[[[{"header":{"parameterUnit":"kt","parameterCategory":2,"dx":1,"dy":1,"la1":29.285339999999998,"la2":30.599998999999997,"lo1":-89.70041500000002,"lo2":-87.6738589999976,"nx":112,"ny":82,"refTime":"2022-10-16T12:00:00:Z","depth":0,"parameterNumber":1,"parameterNumberName":"U-component_of_WINDS"},"data":[-4.2998,-4.001,0.0,-4.0542,-4.0602,0.0,-4.0039,0.0,-3.9117,0.0,0.0,0.0,0.0,-2.7422,-2.1555,-2.2862,-1.9992,-1.7717,0.0,-1.3575,0.0,0.0,0.0,0.0,0.0,0.0,0.0,0.0,0.0,0.0,0.0,0.0,-1.4074,-0.9675,-0.7529,-0.4429,0.0,-0.6338,-0.9556,-0.9559,-1.5986,-1.9092,-1.9092,-1.9092,-1.9092,-1.9092,-1.9092,-1.9092,-1.9092,-1.9092,-1.9092,-1.9092,-1.9092,-1.9092,-1.9092,-1.9092,-1.9092,-1.9092,-1.9007,-1.9014,-1.8645,-1.5857,-1.6809,-1.8738,-1.7318,-1.1928,-0.5728,-0.2629,-0.0839,0.0,0.0,0.0,0.0,0.0,0.0,0.0,0.0,0.0,0.0,0.0,0.0,0.0,0.0,0.0,0.0,0.0,0.0,0.0,0.0,0.3831,0.7293,0.9318,1.3481,1.6815,1.885,1.9092,1.9092,1.9092,1.9092,1.9092,1.9092,1.9092,1.9092,1.9092,1.9092,1.9092,1.9092,1.9092,1.8922,1.8824,1.8824,1.8771,0.0,0.0,-3.4742,-3.213,0.0,0.0,0.0,0.0,0.0,0.0,0.0,0.0,0.0,-1.6899,-1.1208,-1.0617,-0.7917,-0.619,0.0,0.0,0.0,0.0,0.0,0.0,0.0,0.0,0.0,0.0,0.0,0.0,0.0,-1.7052,-1.4549,-1.1219,-0.8126,-0.4907,-0.1678,-0.5862,-0.789,-0.8006,-1.4435,-1.7413,-1.7531,-1.8607,-1.9092,-1.9092,-1.9092,-1.9092,-1.9092,-1.9092,-1.9092,-1.9092,-1.9092,-1.9092,-1.9092,-1.9092,-1.9092,-1.9092,-1.9007,-1.8159,-1.6347,-1.2874,-1.5028,-1.9007,-1.9053,-1.2072,-0.3702,-0.0837,0.0,0.0,0.0,0.0,0.0,0.0,0.0,0.0,0.0,0.0,0.0,0.0,0.0,0.0,0.0,0.0,0.0,0.0,0.0,0.0,0.0,0.2875,0.6101,0.9199,1.2408,1.562,1.8731,1.9092,1.9092,1.9092,1.9092,1.9092,1.9092,1.9092,1.9092,1.9092,1.9092,1.9092,1.9092,1.9092,1.9092,1.9092,1.9092,1.9092,0.0,0.0,0.0,-2.9123,0.0,0.0,0.0,0.0,-2.7392,0.0,0.0,0.0,-1.5001,-0.8904,-0.3268,0.2752,0.4013,0.0,0.0,0.0,0.0,0.0,0.0,0.0,0.0,0.0,0.0,0.0,0.0,0.0,-1.9026,-1.9092,-1.7649,-1.4425,-1.1219,-0.8006,-0.4907,-0.4907,-0.4907,-0.4907,-1.1215,-1.4188,-1.4307,-1.7413,-1.885,-1.885,-1.8968,-1.9092,-1.9092,-1.9092,-1.9092,-1.9092,-1.9092,-1.9092,-1.9092,-1.9092,-1.9092,-1.9092,-1.9092,-1.6302,-1.2352,-1.0494,-1.3861,-1.8684,-1.8504,-0.9815,0.0,0.0,0.0,0.0,0.0,0.0,0.0,0.0,0.0,0.0,0.0,0.0,0.0,0.0,0.0,0.0,0.0,0.0,0.0,0.0,0.0,0.0,0.0,0.2755,0.5862,0.9079,1.2289,1.5502,1.8613,1.8968,1.9092,1.9092,1.9092,1.9092,1.9092,1.9092,1.9092,1.9092,1.9092,1.9092,1.9092,1.9092,1.9092,1.9092,1.9092,1.9092,-3.3619,-3.2528,-3.1251,-2.4861,-2.5835,-2.6445,-1.9186,-2.2619,-2.6944,0.0,0.0,0.0,0.0,0.0,0.4771,0.8086,0.0,1.1885,0.0,0.0,0.0,0.0,0.0,0.0,0.0,0.0,0.0,0.0,0.0,0.0,-1.9053,-1.9092,-1.7649,-1.4425,-1.1219,-0.8006,-0.4907,-0.4907,-0.4907,-0.4907,-0.896,-1.0866,-1.0981,-1.4193,-1.562,-1.5739,-1.801,-1.9092,-1.9092,-1.9092,-1.9092,-1.9092,-1.9092,-1.9092,-1.9092,-1.9092,-1.9092,-1.9092,-1.9007,-1.526,-1.1054,-1.5162,-1.4435,-1.1307,-0.6675,-0.2746,0.0,0.0,0.0,0.0,0.0,0.0,0.0,0.0,0.0,0.0,0.0,0.0,0.0,0.0,0.0,0.0,0.0,0.0,0.0,0.0,0.0,0.0,0.0,0.072,0.2516,0.5742,0.896,1.217,1.5383,1.7773,1.9092,1.9092,1.9092,1.9092,1.9092,1.9092,1.9092,1.9092,1.9092,1.9092,1.9092,1.9092,1.9092,1.9092,1.9092,1.9092,-3.2035,-3.0681,-2.9309,-2.3702,-2.3437,-2.2698,-1.547,-1.7496,-2.027,0.0,0.0,0.0,0.0,0.0,0.0,0.0,1.441,0.0,0.0,0.0,0.0,0.0,0.0,0.0,0.0,0.0,0.0,0.0,0.0,-1.8486,-1.9059,-1.9092,-1.8252,-1.6454,-1.1937,-0.8603,-0.6815,-0.4189,-0.2875,-0.2875,-0.6101,-0.7529,-0.777,-1.2285,-1.4425,-1.4544,-1.7655,-1.9165,-1.9158,-1.9158,-1.9158,-1.9277,-1.9277,-1.9198,-1.9092,-1.9092,-1.9092,-1.9092,-1.9,-1.4894,-1.058,-1.6945,-1.6489,-1.1814,-0.2743,0.0,0.0,0.0,0.0,0.0,0.0,0.0,0.0,0.0,0.0,0.0,0.0,0.0,0.0,0.0,0.0,0.0,0.0,0.0,0.0,0.0,0.0,0.0,0.0,0.0,0.1199,0.4548,0.7651,1.0866,1.4069,1.7294,1.9092,1.9092,1.9092,1.9092,1.9092,1.9092,1.9092,1.9092,1.9092,1.9092,1.9092,1.9092,1.9092,1.9092,1.9092,1.9092,-3.1929,-3.0218,-2.8652,-2.3653,-2.1126,-1.8544,-1.3996,0.0,-0.9876,-0.7063,0.0,0.0,0.0,0.0,0.0,0.0,0.0,0.0,0.0,0.0,0.0,0.0,0.0,0.0,0.0,0.0,-0.9499,-1.3567,-1.6633,-1.8552,-1.9059,-1.9092,-1.9092,-1.9092,-1.2892,-0.9556,-0.9556,-0.3233,0.0,0.0,-0.2875,-0.4309,-0.4548,-1.0502,-1.3476,-1.3951,-1.717,-1.89,-1.9413,-1.9413,-1.9413,-1.942,-1.9574,-1.9529,-1.9138,-1.9106,-1.8994,-1.902,-1.902,-1.5297,-1.1588,-1.7218,-1.9092,-1.6966,-0.5619,-0.1197,0.0,0.0,0.0,0.0,0.0,0.0,0.0,0.0,0.0,0.0,0.0,0.0,0.0,0.0,0.0,0.0,0.0,0.0,0.0,0.0,0.0,0.0,0.0,0.0,0.1079,0.3952,0.7174,1.0148,1.2997,1.6454,1.8489,1.8489,1.885,1.9092,1.9092,1.9092,1.9092,1.9092,1.9092,1.9092,1.9092,1.9092,1.9092,1.9092,1.9092,1.9092,-2.8047,-2.5215,-2.2901,-2.007,-1.7001,-1.3357,0.0,0.0,0.0,0.0,0.0,0.0,0.0,0.0,0.0,0.0,0.0,0.0,0.0,0.0,0.0,0.0,0.0,0.0,0.0,-0.1073,-0.4162,-1.0026,-1.5662,-1.8974,-1.9086,-1.9092,-1.9092,-1.9092,-1.2892,-0.9556,-0.9556,-0.3233,0.0,0.0,-0.06,-0.0959,-0.1079,-0.4906,-0.8123,-1.0624,-1.3832,-1.6841,-1.9413,-1.9413,-1.9413,-1.9439,-1.9927,-1.9969,-1.9789,-1.9303,-1.8999,-1.9081,-1.9081,-1.824,-1.7397,-1.891,-1.9462,-1.8954,-1.6194,-0.8236,0.0,0.0,0.0,0.0,0.0,0.0,0.0,0.0,0.0,0.0,0.0,0.0,0.0,0.0,0.0,0.0,0.0,0.0,0.0,0.0,0.0,0.0,0.0,0.0,0.024,0.084,0.3831,0.5979,0.6694,1.1928,1.526,1.526,1.7655,1.9092,1.9092,1.9092,1.9092,1.9092,1.9092,1.9092,1.9092,1.9092,1.9092,1.9092,1.9092,1.9092,-2.6425,-2.4017,-2.1567,-1.7081,-1.3944,0.0,0.0,0.0871,0.5603,0.9833,1.16,1.2536,1.3159,0.0,0.0,0.0,0.0,0.0,0.0,0.0,0.0,0.0,0.0,0.0,0.0,-0.1439,-0.3711,-0.6935,-1.312,-1.7413,-1.8968,-1.9092,-1.8371,-1.6815,-1.2056,-0.8722,-0.7174,-0.2396,0.0,0.0,0.0,0.0,-0.012,-0.3353,-0.5742,-0.7412,-1.2285,-1.5466,-1.7403,-1.9018,-1.9844,-1.9969,-2.0106,-2.0056,-1.9997,-1.9323,-1.9066,-1.9071,-1.9436,-1.9508,-1.9455,-1.9289,-1.9415,-1.9608,-1.9112,-1.4579,-0.8239,-0.1795,0.0,0.0,0.0,0.0,0.0,0.0,0.0,0.0,0.0,0.0,0.0,0.0,0.0,0.0,0.0,0.0,0.0,0.0,0.0,0.0,0.0,0.0,0.0,0.0,0.2875,0.5503,0.7054,1.1572,1.5023,1.6573,1.8134,1.9092,1.9092,1.9092,1.9092,1.9092,1.9092,1.9092,1.9092,1.9092,1.9092,1.9092,1.9092,1.9092,-2.4425,-2.2255,-1.9952,-1.4496,-1.0836,0.0,-0.1039,0.5048,1.0398,0.0,1.5045,1.523,0.0,0.0,0.0,0.0,0.0,0.0,0.0,0.0,0.0,0.0,0.0,0.0,0.0,-0.2396,-0.4189,-0.4786,-1.0145,-1.5023,-1.885,-1.9092,-1.7649,-1.4425,-1.1219,-0.8006,-0.4907,-0.1678,0.0,0.0,0.0,0.0,-0.012,-0.2755,-0.4309,-0.5145,-1.0977,-1.4077,-1.5472,-1.8726,-2.0147,-2.0365,-2.0212,-1.9927,-1.9749,-1.9204,-1.9007,-1.9178,-1.9791,-1.9988,-1.995,-1.9277,-1.9343,-1.9488,-1.9105,-1.9033,-1.6376,-0.3579,0.0,0.0,0.0,0.0,0.0,0.0,0.0,0.0,0.0,0.0,0.0,0.0,0.0,0.0,0.0,0.0,0.0,0.0,0.0,0.0,0.0,0.0,0.0,0.0,0.2396,0.4907,0.7412,1.1215,1.4549,1.7058,1.8377,1.9092,1.9092,1.9092,1.9092,1.9092,1.9092,1.9092,1.9092,1.9092,1.9092,1.9092,1.9092,1.9092,-1.918,-1.5657,-1.3114,-1.2397,-0.6502,0.0,0.1217,0.6928,1.2663,0.0,1.6502,1.7068,0.0,0.0,0.0,0.0,0.0,0.0,0.0,0.0,0.0,0.0,0.0,0.0,0.0,-0.036,-0.1798,-0.4668,-0.8126,-1.265,-1.8731,-1.9092,-1.7649,-1.4425,-1.1219,-0.8006,-0.4907,-0.1678,0.0,0.0,0.0,0.0,0.0,-0.036,-0.2157,-0.5025,-0.8603,-1.2022,-1.5472,-1.8726,-2.0147,-2.0365,-2.0219,-1.9798,-1.9126,-1.9079,-1.9012,-1.912,-1.9742,-2.0058,-1.9883,-1.958,-1.9387,-1.9361,-1.9185,-1.9007,-1.6364,-0.356,0.0,0.0,0.0,0.0,0.0,0.0,0.0,0.0,0.0,0.0,0.0,0.0,0.0,0.0,0.0,0.0,0.0,0.0,0.0,0.0,0.0,0.0,0.0,0.0,0.036,0.072,0.1079,0.6577,1.0271,1.0509,1.5868,1.9092,1.9092,1.9092,1.9092,1.9092,1.9092,1.9092,1.9092,1.9092,1.9092,1.9092,1.9092,1.9092,-1.5153,-1.226,-0.9693,-0.7398,0.0,0.0,0.4807,0.9012,1.3106,0.0,1.7264,1.7592,0.0,0.0,0.0,0.0,0.0,0.0,0.0,0.0,0.0,0.0,0.0,0.0,0.0,0.0,-0.06,-0.1918,-0.6696,-1.0588,-1.3191,-1.6839,-1.6483,-1.1537,-1.0103,-0.7054,-0.2037,-0.072,0.0,0.0,0.0,0.0,0.0,0.0,-0.072,-0.2157,-0.5384,-0.8994,-1.2718,-1.5697,-1.827,-2.0127,-1.9708,-1.9396,-1.9005,-1.9079,-1.9046,-1.9032,-1.9396,-1.9722,-1.9923,-1.9376,-1.9514,-1.9705,-1.9231,-1.935,-1.7623,-0.8211,-0.5586,-0.5603,-0.5507,-0.2758,0.0,0.0,0.0,0.0,0.0,0.0,0.0,0.0,0.0,0.0,0.0,0.0,0.0,0.0,0.0,0.0,0.0,0.0,0.0,0.0,0.0,0.072,0.2636,0.6935,1.039,1.2289,1.6579,1.9092,1.9092,1.9092,1.9092,1.9092,1.9092,1.9092,1.9092,1.9092,1.9092,1.9092,1.9092,1.9092,-1.1117,0.0,0.0,0.0,0.0,0.0,0.8736,1.1715,1.4348,1.7012,1.784,1.7967,1.8044,1.8301,0.0,0.0,0.0,0.0,0.0,0.0,0.0,0.0,0.0,0.0,0.0,0.0,0.0,0.0,-0.5145,-0.8546,-0.9111,-1.4403,-1.4905,-0.9397,-0.9381,-0.6457,-0.012,0.0,0.0,0.0,0.0,0.0,0.0,0.0,0.0,-0.024,-0.3473,-0.6914,-1.0535,-1.2625,-1.5963,-1.9837,-1.9249,-1.8993,-1.9016,-1.9046,-1.9092,-1.9092,-1.9092,-1.9356,-1.9629,-1.9158,-1.9382,-1.9659,-1.9218,-1.9363,-1.8637,-1.3604,-1.0936,-0.952,-0.9569,-0.4793,0.0,0.0,0.0,0.0,0.0,0.0,0.0,0.0,0.0,0.0,0.0,0.0,0.0,0.0,0.0,0.0,0.0,0.0,0.0,0.0,0.0,0.0959,0.3353,0.7174,1.0509,1.2883,1.6815,1.9092,1.9092,1.9092,1.9092,1.9092,1.9092,1.9092,1.9092,1.9092,1.9092,1.9092,1.9092,1.9092,0.0,0.0,0.0,0.0745,0.4795,0.8972,1.2817,1.5431,1.7389,1.809,1.8209,1.8216,1.8229,1.8473,1.867,0.0,0.0,0.0,0.0,0.0,0.0,0.0,0.0,0.0,0.0,0.0,0.0,0.0,-0.3114,-0.6177,-0.8992,-1.2532,-1.2993,-0.9672,-0.9556,-0.6457,-0.012,0.0,0.0,0.0,0.0,0.0,0.0,0.0,0.0,-0.024,-0.3473,-0.6754,-0.9893,-1.0008,-1.3789,-1.9426,-1.9165,-1.899,-1.9106,-1.9092,-1.9092,-1.9092,-1.9092,-1.9099,-1.9099,-1.9092,-1.9099,-1.9112,-1.9099,-1.9099,-1.8981,-1.885,-1.4282,-0.9516,-0.955,-0.4786,0.0,0.0,0.0,0.0,0.0,0.0,0.0,0.0,0.0,0.0,0.0,0.0,0.0,0.0,0.0,0.0,0.0,0.0,0.0,0.0,0.0,0.0,0.012,0.586,0.9556,0.9675,1.5626,1.9092,1.9092,1.9092,1.9092,1.9092,1.9092,1.9092,1.9092,1.9092,1.9092,1.9092,1.9092,1.9092,-0.429,-0.2627,-0.0753,0.0303,0.3112,0.6485,1.017,1.3049,1.5697,1.8253,1.8802,1.875,1.8565,1.7094,1.5698,0.0,0.0,0.0,0.0,0.0,0.0,0.0,0.0,0.0,0.0,0.0,0.0,0.0,0.0,0.0,-0.5845,-1.1017,-1.3514,-1.2344,-1.0349,-0.6272,-0.012,0.0,0.0,0.0,0.0,0.0,0.0,0.0,0.0,-0.012,-0.1199,-0.4679,-0.9626,-0.9626,-1.3464,-1.9118,-1.9118,-1.9059,-1.9092,-1.9092,-1.9092,-1.9092,-1.9092,-1.9092,-1.9092,-1.9092,-1.9224,-1.923,-1.9152,-1.9231,-1.9343,-1.9145,-1.7519,-1.4884,-1.0595,-0.7992,-0.5264,-0.0959,0.0,0.0,0.0,0.0,0.0,0.0,0.0,0.0,0.0,0.0,0.0,0.0,0.0,0.0,0.0,0.0,0.0,0.0,0.0,0.0,0.0,0.3952,0.729,0.944,1.36,1.6933,1.8968,1.9092,1.9092,1.9092,1.9092,1.9092,1.9092,1.9092,1.9092,1.9092,1.9092,1.9092,-0.2021,-0.1044,0.0295,0.1487,0.3173,0.5353,0.8749,1.0982,1.321,1.6662,1.7413,1.7693,1.8498,1.6339,1.3905,1.2353,0.0,0.0,0.0,0.0,0.0,0.0,0.0,0.0,0.0,0.0,0.0,0.0,0.0,-0.3449,-0.4212,-0.8331,-1.1029,-1.2133,-0.9153,-0.5683,-0.1798,-0.06,0.0,0.0,0.0,0.0,0.0,0.0,0.0,0.0,0.0,-0.3574,-0.9556,-0.9556,-1.3244,-1.9092,-1.9092,-1.9092,-1.9092,-1.9092,-1.9092,-1.9092,-1.9092,-1.9092,-1.9092,-1.9092,-1.9218,-1.9217,-1.9145,-1.9224,-1.9336,-1.9145,-1.9092,-1.7525,-1.1176,-0.9533,-0.7887,-0.1557,0.0,0.0,0.0,0.0,0.0,0.0,0.0,0.0,0.0,0.0,0.0,0.0,0.0,0.0,0.0,0.0,0.0,0.0,0.0,0.0,0.0,0.2995,0.6218,0.9318,1.2527,1.5739,1.8974,1.9092,1.9092,1.9092,1.9092,1.8987,1.8782,1.8782,1.8782,1.8789,1.8895,1.8941,-0.0094,-0.0097,0.0505,0.3837,0.4639,0.542,0.8546,0.9318,1.0271,1.3714,1.4425,1.5196,1.7674,1.5859,1.2803,0.939,0.0,0.0,0.0,0.0,0.0,0.0,0.0,0.0,0.0,0.0,0.0,0.0,0.0,-0.1191,-0.3867,-0.4511,-0.6059,-0.8885,-0.6289,-0.4907,-0.4907,-0.1677,0.0,0.0,0.0,0.0,0.0,0.0,0.0,0.0,0.0,-0.3542,-0.9318,-0.9437,-1.3248,-1.885,-1.8968,-1.9092,-1.9092,-1.9092,-1.9092,-1.9092,-1.9092,-1.9092,-1.9092,-1.9092,-1.9092,-1.9092,-1.9092,-1.9092,-1.9092,-1.9092,-1.9092,-1.7643,-1.1532,-0.9771,-0.7884,-0.1554,0.0,0.0,0.0,0.0,0.0,0.0,0.0,0.0,0.0,0.0,0.0,0.0,0.0,0.0,0.0,0.0,0.0,0.0,0.0,0.0,0.0,0.2875,0.5979,0.9318,1.2408,1.5615,1.8948,1.9086,1.9079,1.9046,1.9046,1.8776,1.8235,1.8235,1.8235,1.8242,1.8525,1.8548,-0.0904,-0.1798,-0.285,0.0465,0.1182,0.2136,0.5255,0.6101,0.7648,1.3234,1.4425,1.3765,1.193,0.9248,0.6838,0.5696,0.0,0.0,0.0,0.0,0.0,0.0,0.0,0.0,0.0,0.0,0.0,0.0,0.0,-0.0359,-0.1073,-0.3466,-0.5136,-0.5946,-0.5253,-0.4907,-0.4907,-0.1659,0.0,0.0,0.0,0.0,0.0,0.0,0.0,0.0,0.0,-0.2244,-0.6218,-0.8603,-1.1933,-1.5857,-1.8134,-1.9092,-1.9092,-1.9092,-1.9092,-1.9092,-1.9092,-1.9092,-1.9092,-1.9092,-1.9092,-1.9092,-1.9092,-1.9092,-1.9092,-1.9092,-1.9092,-1.8725,-1.704,-1.3116,-0.7879,-0.155,0.0,0.0,0.0,0.0,0.0,0.0,0.0,0.0,0.0,0.0,0.0,0.0,0.0,0.0,0.0,0.0,0.0,0.0,0.0,0.0,0.0,0.072,0.3592,0.9199,1.0271,1.3179,1.8557,1.898,1.8888,1.8459,1.8453,1.838,1.8235,1.8235,1.8235,1.8242,1.8314,1.8352,-0.4712,-0.4381,-0.406,-0.083,0.0,0.048,0.2277,0.2755,0.4189,0.9192,1.0145,0.9625,0.7612,0.5999,0.4316,0.2683,0.1101,0.0,0.0,0.0,0.0,0.0,0.0,0.0,0.0,0.0,0.0,0.0,0.0,0.0,0.0,-0.1678,-0.2755,-0.2755,-0.2737,-0.2728,-0.2728,-0.0935,0.0,0.0,0.0,0.0,0.0,0.0,0.0,0.0,0.0,-0.1878,-0.5145,-0.8248,-1.1457,-1.4667,-1.7773,-1.9092,-1.9092,-1.9092,-1.9092,-1.9092,-1.9092,-1.9092,-1.9092,-1.9092,-1.9092,-1.9092,-1.9092,-1.9092,-1.9092,-1.9092,-1.9092,-1.9092,-1.9092,-1.6376,-1.2085,-0.5724,-0.2033,0.0,0.0,0.0,0.0,0.0,0.0,0.0,0.0,0.0,0.0,0.0,0.0,0.0,0.0,0.0,0.0,0.0,0.0,0.0,0.0,0.0,0.2373,0.7813,0.9759,1.3066,1.8404,1.8644,1.8565,1.8242,1.8103,1.7978,1.786,1.786,1.786,1.786,1.7985,1.8011,-0.9866,-0.7485,-0.486,-0.2015,-0.0959,-0.06,-0.06,-0.036,0.0959,0.4189,0.4548,0.4174,0.4235,0.4169,0.3306,0.045,0.0,0.0,0.0,0.0,0.0,0.0,0.0,0.0,0.0,0.0,0.0,0.0,0.0,0.0,0.0,0.0,0.0,0.0,0.0,0.0,0.0,0.0,0.0,0.0,0.0,0.0,0.0,0.0,0.0,0.0,-0.0457,-0.1977,-0.4534,-0.8478,-1.1576,-1.4069,-1.7655,-1.9092,-1.9092,-1.9092,-1.9092,-1.9092,-1.9092,-1.9092,-1.9092,-1.9092,-1.9092,-1.9092,-1.9092,-1.9092,-1.9092,-1.9092,-1.9092,-1.8968,-1.8371,-1.8203,-1.6568,-0.9801,-0.407,0.0,0.0,0.0,0.0,0.0,0.0,0.0,0.0,0.0,0.0,0.0,0.0,0.0,0.0,0.0,0.0,0.0,0.0,0.0,0.0,0.0,0.1987,0.655,0.979,1.3579,1.8248,1.7897,1.7626,1.7556,1.7307,1.7282,1.7271,1.7271,1.7245,1.7218,1.7602,1.7618,-1.3128,-1.111,-0.8585,-0.8058,-0.5979,-0.407,-0.407,-0.1918,0.0959,0.4189,0.2755,0.0839,0.0837,0.0826,0.0697,0.0114,0.0,0.0,0.0,0.0,0.0,0.0,0.0,0.0,0.0,0.0,0.0,0.0,0.0,0.0,0.0,0.0,0.0,0.0,0.0,0.0,0.0,0.0,0.0,0.0,0.0,0.0,0.0,0.0,0.0,-0.0112,-0.2841,-0.2772,-0.153,-1.0088,-1.2289,-1.0985,-1.6821,-1.9092,-1.9092,-1.9092,-1.9092,-1.9092,-1.9092,-1.9092,-1.9092,-1.9092,-1.9092,-1.9092,-1.9092,-1.9092,-1.9092,-1.9092,-1.9092,-1.8252,-1.477,-1.3856,-1.1851,-0.3585,-0.0838,0.0,0.0,0.0,0.0,0.0,0.0,0.0,0.0,0.0,0.0,0.0,0.0,0.0,0.0,0.0,0.0,0.0,0.0,0.0,0.0,0.0,0.2542,0.8657,0.7954,1.0554,1.7717,1.5741,1.4398,1.3909,1.3862,1.502,1.7271,1.7271,1.714,1.7016,1.7312,1.7228,-1.5038,-1.3398,-1.1196,-1.077,-0.8139,-0.5498,-0.5025,-0.3712,-0.2036,-0.0478,-0.1436,-0.2037,-0.036,0.0,0.0,0.0,0.0,0.0,0.0,0.0,0.0,0.0,0.0,0.0,0.0,0.0,0.0,0.0,0.0,0.0,0.0,0.0,0.0,0.0,0.0,0.0,0.0,0.0,0.0,0.0,0.0,0.0,0.0,0.0,0.0,-0.0113,-0.1596,-0.1391,-0.0593,-0.8573,-1.0981,-1.0152,-1.6584,-1.9092,-1.9092,-1.9092,-1.9092,-1.9092,-1.9092,-1.9092,-1.9092,-1.9092,-1.9092,-1.9092,-1.9092,-1.9092,-1.9092,-1.9092,-1.9092,-1.8607,-1.6567,-1.445,-1.1485,-0.6212,-0.5022,-0.5866,-0.9243,-0.4674,0.0,0.0,0.0,0.0,0.0,0.0,0.0,0.0,0.0,0.0,0.0,0.0,0.0,0.0,0.0,0.0,0.0,0.0,0.1361,0.4339,0.6522,0.9324,1.2992,1.0407,0.9485,1.0754,1.0763,1.2155,1.5088,1.4924,1.5542,1.693,1.6917,1.6806,-1.6579,-1.5365,-1.4089,-1.339,-1.1118,-0.8707,-0.7288,-0.6932,-0.6694,-0.5979,-0.5862,-0.5025,-0.2516,-0.1543,-0.1059,-0.1055,-0.0464,0.0,0.0,0.0,0.0,0.0,0.0,0.0,0.0,0.0,0.0,0.0,0.0,0.0,0.0,0.0,0.0,0.0,0.0,0.0,0.0,0.0,0.0,0.0,0.0,0.0,0.0,0.0,0.0,0.0,-0.0685,-0.0698,-0.0597,-0.7638,-1.0152,-1.0152,-1.6584,-1.9092,-1.9092,-1.9092,-1.9092,-1.9092,-1.9092,-1.9092,-1.9092,-1.9092,-1.9092,-1.9092,-1.9092,-1.9092,-1.9092,-1.9092,-1.9092,-1.885,-1.8252,-1.5647,-1.2914,-1.183,-1.0874,-1.1851,-1.7832,-1.1154,-0.4068,-0.4077,-0.1919,0.0,0.0,0.0,0.0,0.0,0.0,0.0,0.0,0.0,0.0,0.0,0.0,0.0,0.0,0.0,0.0,0.0,0.4285,0.74,0.8706,0.531,0.4866,0.8107,0.8077,0.9964,1.386,1.3062,1.4085,1.6745,1.6567,1.6455,-1.7982,-1.7879,-1.8195,-1.8348,-1.8097,-1.717,-1.4188,-1.3476,-1.2645,-0.9675,-0.9079,-0.896,-0.8722,-0.6331,-0.44,-0.4454,-0.1988,0.0,0.0,0.0,0.0,0.0,0.0,0.0,0.0,0.0,0.0,0.0,0.0,0.0,0.0,0.0,0.0,0.0,0.0,0.0,0.0,0.0,0.0,0.0,0.0,0.0,0.0,0.0,0.0,-0.0219,-0.3158,-0.2771,-0.0705,-1.0085,-1.217,-1.0152,-1.6584,-1.9092,-1.9092,-1.9092,-1.9092,-1.9092,-1.9092,-1.9092,-1.9092,-1.9092,-1.9092,-1.9092,-1.9092,-1.9092,-1.9092,-1.9092,-1.9092,-1.8371,-1.5502,-1.4549,-1.4915,-1.7585,-1.5318,-1.3775,-1.8165,-1.8165,-1.7319,-1.736,-0.7909,0.0,0.0,0.0,0.0,0.0,0.0,0.0,0.0,0.0,0.0,0.0,0.0,0.0,0.0,0.0,0.0,0.0,0.055,0.3157,0.8492,0.3328,0.2237,0.6063,0.6063,0.9532,1.6421,1.3846,1.3917,1.6259,1.6383,1.6356,-2.0366,-2.12,-2.221,-2.2464,-2.2223,-2.1017,-1.7921,-1.9115,-1.9877,-1.6021,-1.3595,-1.1573,-0.9896,-0.8483,-0.7635,-0.7706,-0.6636,-0.5059,-0.3225,-0.2961,-0.2251,-0.0222,0.0,0.0,0.0,0.0,0.0,0.0,0.0,0.0,0.0,0.0,0.0,0.0,0.0,0.0,0.0,0.0,0.0,0.0,0.0,0.0,0.0,0.0,0.0,-0.0109,-0.1354,-0.1148,-0.0463,-0.6272,-0.8957,-0.9914,-1.443,-1.7413,-1.9092,-1.9092,-1.9092,-1.9092,-1.9092,-1.9092,-1.9092,-1.9092,-1.9092,-1.9092,-1.9092,-1.9092,-1.9092,-1.9092,-1.9092,-1.8731,-1.7531,-1.5739,-1.5146,-1.8271,-1.5874,-1.3975,-1.8103,-1.9079,-1.9099,-1.9064,-0.8749,0.0,0.0,0.0,0.0,0.0,0.0,0.0,0.0,0.0,0.0,0.0,0.0,0.0,0.0,0.0,0.0,0.0,0.0,0.1085,0.3328,0.1281,0.0741,0.2302,0.2365,0.491,1.0127,1.0906,1.2201,1.3847,1.5471,1.6285,-2.2759,-2.3797,-2.5487,-2.7997,-2.5358,-2.1557,-1.9465,-2.2279,-2.4481,-2.1483,-1.8706,-1.5877,-1.2861,-1.1576,-1.0981,-1.0981,-1.0152,-0.8795,-0.6557,-0.5442,-0.4109,-0.2126,-0.0771,0.0,0.0,0.0,0.0,0.0,0.0,0.0,0.0,0.0,0.0,0.0,0.0,0.0,0.0,0.0,0.0,0.0,0.0,0.0,0.0,0.0,0.0,0.0,0.0,0.0,-0.023,-0.2485,-0.5264,-0.8483,-1.1695,-1.4904,-1.7649,-1.7288,-1.8004,-1.9092,-1.9092,-1.9092,-1.9092,-1.9092,-1.9092,-1.9092,-1.9092,-1.9092,-1.9092,-1.9092,-1.9092,-1.9092,-1.9092,-1.6697,-1.4904,-1.717,-1.4662,-1.2878,-1.685,-1.6969,-1.6755,-1.8674,-0.874,0.0,0.0,0.0,0.0,0.0,0.0,0.0,0.0,0.0,0.0,0.0,0.0,0.0,0.0,0.0,0.0,0.0,0.0,0.0,0.0,0.0,0.0,0.0,0.0,0.2112,0.6405,0.9209,1.1408,1.3228,1.5139,1.5987,-2.4709,-2.5125,-2.7526,-3.5545,-2.7838,-1.8401,-1.8909,-2.2247,-2.5307,-2.5233,-2.4355,-2.2695,-1.9551,-1.6454,-1.4307,-1.4307,-1.1576,-0.9507,-0.9474,-0.6774,-0.5199,-0.6267,-0.264,0.0,0.0,0.0,0.0,0.0,0.0,0.0,0.0,0.0,0.0,0.0,0.0,0.0,0.0,0.0,0.0,0.0,0.0,0.0,0.0,0.0,0.0,0.0,0.0,0.0,0.0,0.0,-0.1918,-0.5264,-0.8364,-1.1576,-1.4307,-1.3221,-1.5486,-1.9092,-1.9092,-1.9092,-1.9092,-1.9092,-1.9092,-1.9092,-1.9092,-1.9092,-1.9092,-1.9092,-1.9092,-1.9092,-1.9092,-1.6697,-1.4425,-1.4425,-1.1933,-1.0509,-1.3714,-1.1899,-1.1433,-1.7777,-0.8719,0.0,0.0,0.0,0.0,0.0,0.0,0.0,0.0,0.0,0.0,0.0,0.0,0.0,0.0,0.0,0.0,0.0,0.0,0.0,0.0,0.0,0.0,0.0,0.0,0.2547,0.7712,0.9576,1.2215,1.5534,1.5534,1.5789,-2.7236,-2.8793,-3.1073,-3.4464,-2.9569,-2.5387,-3.0675,-3.2797,-3.2414,-2.765,-2.5657,-2.3658,-1.978,-1.8252,-1.7531,-1.7531,-1.6703,-1.5244,-1.3152,-1.1976,-0.9846,-0.5793,-0.4133,-0.241,-0.0213,0.0,0.0,0.0,0.0,0.0,0.0,0.0,0.0,0.0,0.0,0.0,0.0,0.0,0.0,0.0,0.0,0.0,0.0,0.0,0.0,0.0,0.0,0.0,0.0,0.0,-0.06,-0.1798,-0.5025,-0.8245,-1.0862,-0.9064,-0.9298,-1.0844,-1.3818,-1.477,-1.5249,-1.8128,-1.9092,-1.9092,-1.9092,-1.9092,-1.9092,-1.9092,-1.9092,-1.9092,-1.9092,-1.6697,-1.4904,-1.7052,-1.5146,-1.3714,-1.6933,-1.6804,-1.659,-1.8629,-0.8719,0.0,0.0,0.0,0.0,0.0,0.0,0.0,0.0,0.0,0.0,0.0,0.0,0.0,0.0,0.0,0.0,0.0,0.0,0.0,0.0,0.0,0.0,0.0,0.0,0.0784,0.2441,1.0173,1.3317,1.22,1.4745,1.5987,-2.8553,-3.0238,-3.2213,-3.3767,-3.4164,-3.5062,-3.9035,-3.994,-3.8258,-3.1978,-2.8437,-2.5401,-2.198,-2.0153,-1.9092,-1.9092,-1.9092,-1.8371,-1.6454,-1.5143,-1.2866,-0.8989,-0.6661,-0.4524,-0.2043,-0.0731,0.0,0.0,0.0,0.0,0.0,0.0,0.0,0.0,0.0,0.0,0.0,0.0,0.0,0.0,0.0,0.0,0.0,0.0,0.0,0.0,0.0,0.0,0.0,0.0,0.0,-0.024,-0.2277,-0.4906,-0.7648,-0.6331,-0.6567,-0.7995,-1.0613,-1.1564,-1.2043,-1.4554,-1.5389,-1.5389,-1.5389,-1.5389,-1.5744,-1.6939,-1.7294,-1.7052,-1.575,-1.312,-1.1572,-1.4672,-1.3002,-1.1928,-1.6336,-1.8166,-1.9053,-1.9006,-0.8725,0.0,0.0,0.0,0.0,0.0,0.0,0.0,0.0,0.0,0.0,0.0,0.0,0.0,0.0,0.0,0.0,0.0,0.0,0.0,0.0,0.0,0.0,0.0,0.0,0.1957,0.586,1.2344,1.45,1.2496,1.4824,1.5967,-2.8977,-3.0251,-3.1713,-3.3719,-4.0187,-4.562,-4.4267,-4.37,-4.2227,-3.746,-3.2141,-2.77,-2.6035,-2.2065,-1.9079,-1.9092,-1.9092,-1.9092,-1.9092,0.0,-1.4586,-1.4378,-0.9773,-0.6209,-0.5115,-0.198,0.0,0.0,0.0,0.0,0.0,0.0,0.0,0.0,0.0,0.0,0.0,0.0,0.0,0.0,0.0,0.0,0.0,0.0,0.0,0.0,0.0,0.0,0.0,0.0,0.0,0.0,0.0,-0.1798,-0.4548,-0.4548,-0.6338,-0.8841,-0.9079,-0.9199,-0.9199,-0.9437,-0.9556,-0.9556,-0.9556,-0.9556,-1.0152,-1.3239,-1.3832,-1.3002,-1.0271,-0.7412,-0.5979,-0.8841,-0.7293,-0.6813,-1.276,-1.6291,-1.8278,-1.7795,-0.8134,0.0,0.0,0.0,0.0,0.0,0.0,0.0,0.0,0.0,0.0,0.0,0.0,0.0,0.0,0.0,0.0,0.0,0.0,0.0,0.0,0.0,0.0,0.0,0.0489,0.5663,1.5593,1.5593,1.5574,1.5528,1.5528,1.5776,-3.007,-3.3137,-3.5769,-3.4538,-3.9016,-4.4055,-4.5084,-4.3313,-4.1453,-4.1863,-3.3999,-2.7685,-2.9608,-2.3989,-1.9084,-1.9073,-1.9092,-1.9092,-1.9092,-1.8371,-1.7081,-1.461,-1.1127,-0.8075,-0.6214,-0.2343,0.0,0.0,0.0,0.0,0.0,0.0,0.0,0.0,0.0,0.0,0.0,0.0,0.0,0.0,0.0,0.0,0.0,0.0,0.0,0.0,0.0,0.0,0.0,0.0,0.0,0.0,0.0,-0.048,-0.1079,-0.1079,-0.1559,-0.2636,-0.5145,-0.5979,-0.6338,-0.8722,-0.9556,-0.9556,-0.9556,-0.9556,-0.9675,-1.0509,-0.8957,-0.741,-0.9079,-0.896,-0.8603,-0.9318,-0.896,-0.8841,-1.039,-1.1235,-1.0285,-0.538,-0.2032,0.0,0.0,0.0,0.0,0.0,0.0,0.0,0.0,0.0,0.0,0.0,0.0,0.0,0.0,0.0,0.0,0.0,0.0,0.0,0.0,0.0,0.0,0.0,0.5273,1.0558,1.5593,1.5593,1.5574,1.5528,1.5528,1.5567,-3.1757,-3.5249,-3.9026,-4.1004,-4.3863,-4.6181,-4.6004,-4.3831,-4.2031,-4.2808,-3.6111,-2.9266,-2.6336,-2.4404,-2.2344,-1.9463,-1.9053,-1.9092,-1.9092,-1.9092,-1.7842,0.0,0.0,-0.8474,-0.5971,-0.2206,0.0,0.0,0.0,0.0,0.0,0.0,0.0,0.0,0.0,0.0,0.0,0.0,0.0,0.0,0.0,0.0,0.0,0.1512,0.2234,0.2249,0.0,0.2277,0.2157,0.06,0.0,0.0,0.0,0.0,0.0,0.0,0.0,-0.024,-0.2037,-0.2636,-0.2875,-0.4548,-0.5145,-0.5145,-0.5145,-0.5145,-0.5503,-0.6935,-0.5025,-0.2995,-0.4666,-0.5145,-0.5503,-0.7054,-0.7412,-0.777,-0.9199,-0.7166,-0.4181,-0.0717,0.0,0.0,0.0,0.0,0.0,0.0,0.0,0.0,0.0,0.0,0.0,0.0,0.0,0.0,0.0,0.0,0.0,0.0,0.0,0.1027,0.3429,0.1283,0.2243,0.703,1.0854,1.3705,1.5567,1.5567,1.5554,1.5528,1.5528,1.5528,-3.2343,-3.4353,-3.766,-4.4519,-4.8082,-4.9148,-4.5883,-4.3988,-4.2789,-4.2541,-3.8062,-3.1641,-2.3443,-2.4688,-2.5481,-2.0762,-1.947,-1.9092,-1.9092,-1.8613,-1.7294,-1.4667,0.0,-0.7823,-0.5144,-0.1938,0.0,0.0,0.0,0.0,0.0,0.0,0.0,0.0,0.0,0.0,0.0,0.0,0.0,0.0,0.0,0.0,0.0115,0.2803,0.4374,0.4786,0.0,0.4429,0.4548,0.1319,0.0,0.0,0.0,0.0,0.0,0.0,0.0,0.0,0.0,0.0,0.0,0.0,0.0,0.0,0.0,0.0,-0.06,-0.3353,-0.2157,0.0,0.0,0.0,-0.072,-0.3473,-0.407,-0.4786,-0.7532,-0.3825,0.0,0.0,0.0,0.0,0.0,0.0,0.0,0.0,0.0,0.0,0.0,0.0,0.0,0.0,0.0,0.0,0.0,0.0,0.0,0.0,0.0,0.1997,0.6385,0.3078,0.5295,1.4209,1.5095,1.5567,1.5528,1.5528,1.5528,1.5528,1.5528,1.5528,-2.8032,-2.4061,-2.0866,-2.7828,-3.9863,-4.8434,-4.2485,-4.1368,-4.1913,-4.3516,-3.8739,-3.4378,-3.4768,-2.6958,-2.1318,-2.389,-2.1354,-1.9092,-1.9092,-1.6815,-1.4904,-1.4425,-0.9186,0.0,-0.491,-0.1958,0.0,0.0,0.0,0.0,0.0,0.0,0.0,0.0,0.0,0.0,0.0,0.0,0.0,0.0,0.0,0.0,0.0,0.0478,0.2272,0.4668,0.0,0.0,0.4548,0.1319,0.0,0.0,0.0,0.0,0.0,0.0,0.0,0.0,0.0,0.0,0.0,0.0,0.0,0.0,0.0,0.0,-0.012,-0.06,-0.036,0.0,0.0,0.0,-0.012,-0.06,-0.072,-0.084,-0.1319,-0.072,0.0,0.0,0.0,0.0,0.0,0.0,0.0,0.0,0.0,0.0,0.0,0.0,0.0,0.0,0.0,0.0,0.0,0.0,0.0,0.0,0.0,0.0321,0.1137,0.4633,0.7289,0.8891,1.3283,1.5534,1.5528,1.5528,1.5528,1.5528,1.5528,1.5528,-1.1985,-0.1645,0.5722,-0.7211,-1.6417,-2.5904,-3.956,-3.9529,-3.767,-4.1453,-3.8316,-3.546,-3.7371,-3.3039,-2.7569,-2.2741,-2.03,-1.8999,-1.9071,-1.5815,-1.2514,-0.955,-0.6652,-0.4146,0.0,-0.0825,0.0,0.0,0.0,0.0,0.0,0.0,0.0,0.0,0.0,0.0,0.0,0.0,0.0,0.0,0.0,0.0,0.0,0.1798,0.3473,0.4786,0.3234,0.3473,0.4548,0.1319,0.0,0.0,0.0,0.0,0.0,0.0,0.0,0.0,0.0,0.0,0.0,0.0,0.0,0.0,0.0,0.0,0.0,0.0,0.0,0.0,0.0,0.0,0.0,0.0,0.0,0.0,0.0,0.0,0.0,0.0,0.0,0.0,0.0,0.0,0.0,0.0,0.0,0.0,0.0,0.0,0.0,0.0,0.0,0.0,0.0,0.0,0.0,0.0,0.0,0.0,0.0,0.4995,0.7765,0.7823,1.2944,1.5528,1.5528,1.5528,1.5528,1.5528,1.5528,1.5528,0.9114,0.0,3.2735,1.5572,0.7282,-0.4348,0.0,-3.7195,-3.5194,-3.8504,-3.715,-3.5819,-3.7388,-3.7715,-3.3659,-2.1053,-1.9053,-1.9071,-1.9308,-1.6347,-1.2047,-0.5981,-0.4309,-0.2755,-0.024,0.0,0.0,0.0,0.0,0.0,0.0,0.0,0.0,0.0,0.0,0.0,0.0,0.0,0.0,0.0,0.0,0.0,0.012,0.2636,0.4189,0.4786,0.407,0.4189,0.4548,0.1319,0.0,0.0,0.0,0.0,0.0,0.0,0.0,0.0,0.0,0.0,0.0239,0.1796,0.1198,0.0,0.0,0.0,0.0,0.0,0.0,0.0,0.0,0.0,0.0,0.0,0.0,0.0,0.0,0.0,0.0,0.0,0.0,0.0,0.0,0.0,0.0,0.0,0.0,0.0,0.0,0.0,0.0,0.0,0.0,0.0,0.0,0.0,0.0,0.0,0.0,0.0,0.0,0.3863,0.6557,0.7724,1.1128,1.3078,1.3762,1.4948,1.5541,1.5528,1.5528,1.5528,0.0,4.8082,5.5022,4.077,2.3314,0.3192,-2.1737,-3.3426,0.0,-3.536,-3.5104,-3.5883,-3.7395,-3.7667,-3.3589,-2.1053,-1.902,-1.925,-1.9917,-1.9171,-1.5545,-0.7301,-0.2756,-0.024,0.0,0.0,0.0,0.0,0.0,0.0,0.0,0.0,0.0,0.0,0.0,0.0,0.0,0.0,0.0,0.0,0.0,0.0,0.0,0.024,0.2037,0.0,0.1678,0.2037,0.4548,0.1319,0.0,0.0,0.0,0.0,0.0,0.0,0.0,0.0,0.0,0.0,0.096,0.6968,0.4803,0.0,0.0,0.0,0.0,0.0,0.0,0.0,0.0,0.0,0.0,0.0,0.0,0.0,0.0,0.0,0.0,0.0,0.0,0.0,0.0,0.0,0.0,0.0,0.0,0.0,0.0,0.0,0.0,0.0,0.0,0.0,0.0,0.0,0.0,0.0,0.0,0.0,0.0,0.0314,0.2875,0.7655,0.5727,0.586,0.8292,1.3214,1.5567,1.5528,1.5528,1.5528,5.167,5.816,6.1482,5.6921,4.1968,2.3276,0.3884,-1.5558,-2.9949,-3.156,-3.111,-3.0455,-2.9982,-2.7819,-2.4599,-1.9855,-1.9058,-1.9169,-1.9435,-1.2347,-0.6029,-0.2753,-0.0959,0.0,0.0,0.0,0.0,0.0,0.0,0.0,0.0,0.0,0.0,0.0,0.0,0.0,0.0,0.0,0.0,0.0,0.0,0.0,0.0,0.0,0.072,0.1798,0.048,0.072,0.0,0.048,0.0,0.0,0.0,0.0,0.0,0.0,0.0,0.0,0.0,0.0,0.0359,0.2759,0.1918,0.0,0.0,0.0,0.0,0.0,0.0,0.0,0.0,0.0,0.0,0.0,0.0,0.0,0.0,0.0,0.0,0.0,0.0,0.0,0.0,0.0,0.0,0.0,0.0,0.0,0.0,0.0,0.0,0.0,0.0,0.0,0.0,0.0,0.0,0.0,0.0,0.0,0.0,0.0,0.2437,0.7658,0.5236,0.4689,0.624,0.5942,0.9163,1.5567,1.5541,1.5528,6.2007,6.4476,6.6312,6.5532,5.5594,4.1022,2.2025,0.0,-1.8774,-2.6891,-2.8201,-2.7301,-2.5588,-2.1855,-1.8987,-1.8993,-1.5706,-1.2968,-1.2976,-0.5453,0.0,0.0,0.0,0.0,0.0,0.0,0.0,0.0,0.0,0.0,0.0,0.0,0.0,0.0,0.0,0.0,0.0,0.0,0.0,0.0,0.0,0.0,0.0,0.0,0.0,0.0,0.0,0.0,0.0,0.0,0.0,0.0,0.0,0.0,0.0,0.0,0.0,0.0,0.0,0.0,0.0,0.0,0.0,0.0,0.0,0.0,0.0,0.0,0.0,0.0,0.0,0.0,0.0,0.0,0.0,0.0,0.0,0.0,0.0,0.0,0.0,0.0,0.0,0.0,0.0,0.0,0.0,0.0,0.0,0.0,0.0,0.0,0.0,0.0,0.0,0.0,0.0,0.0,0.0,0.0,0.0,0.0,0.1714,0.5239,0.3559,0.2935,0.3614,0.117,0.3704,1.0753,1.3985,1.5541,6.421,6.8167,7.1262,6.6206,6.2777,5.4107,2.9372,1.0934,-0.5559,-2.1247,-2.6429,-2.7588,-2.5442,-2.1595,-1.8758,-1.8895,-0.8219,0.0,0.0,0.0,0.0,0.0,0.0,0.0,0.0,0.0,0.0,0.0,0.0,0.0,0.0,0.0,0.0,0.0,0.0,0.0,0.0,0.0,0.0,0.0,0.0,0.0,0.0,0.0,0.0,0.0,0.0,0.0,0.0,0.0,0.0,0.0,0.0,0.0,0.0,0.0,0.0,0.0,0.0,0.0,0.0,0.0,0.0,0.0,0.0,0.0,0.0,0.0,0.0,0.0,0.0,0.0,0.0,0.0,0.0,0.0,0.0,0.0,0.0,0.0,0.0,0.0,0.0,0.0,0.0,0.0,0.0,0.0,0.0,0.0,0.0,0.0,0.0,0.0,0.0,0.0,0.0,0.0,0.0,0.0,0.0,0.0,0.0,0.0,0.0,0.0,0.0,0.0,0.0,0.0293,1.0562,1.547,6.5672,6.7099,6.7106,6.6362,6.1424,5.3878,4.313,2.2164,0.1787,-0.9465,-1.4841,-1.6792,-1.4534,-1.1904,-1.0117,-1.0138,-0.4415,0.0,0.0,0.0,0.0,0.0,0.0,0.0,0.0,0.0,0.0,0.0,0.0,0.0,0.0,0.0,0.0,0.0,0.0,0.0,0.0,0.0,0.0,0.0,0.0,0.0,0.0,0.0,0.0,0.0,0.0,0.0,0.0,0.2517,0.3473,0.3473,0.3473,0.3473,0.3114,0.084,0.0,0.0,0.0,0.0,0.0,0.0,0.0,0.0,0.0,0.0,0.0,0.0,0.0,0.0,0.0,0.0,0.0,0.0,0.0,0.0,0.0,0.0,0.0,0.0,0.0,0.0,0.0,0.0,0.0,0.0,0.0,0.0,0.0,0.0,0.0,0.0,0.0,0.0,0.0,0.0,0.0,0.0,0.0,0.0,0.0,0.0,0.0,0.0,0.0,0.0,0.0,0.0,0.0,0.0098,0.3126,0.8501,6.2991,6.4039,6.3963,6.4759,5.9359,5.2898,4.8771,2.9127,0.8699,-0.1747,-0.6981,-0.9298,-0.7862,-0.668,-0.5973,-0.6331,-0.2751,0.0,0.0,0.0,0.0,0.0,0.0,0.0,0.0,0.0,0.0,0.0,0.0,0.0,0.0,0.0,0.0,0.0,0.0,0.0,0.0,0.0,0.0,0.0,0.0,0.0,0.0,0.0,0.0,0.0,0.0,0.0,0.0,0.2157,0.3712,0.4788,0.3473,0.3712,0.4429,0.1199,0.0,0.0,0.0,0.0,0.0,0.0,0.0,0.0,0.0,0.0,0.0,0.0,0.0,0.0,0.0,0.0,0.0,0.0,0.0,0.0,0.0,0.0,0.0,0.0,0.0,0.0,0.0,0.0,0.0,0.0,0.0,0.0,0.0,0.0,0.0,0.0,0.0,0.0,0.0,0.0,0.0,0.0,0.0,0.0,0.0,0.0,0.0,0.0,0.0,0.0,0.0,0.0,0.0,0.0,0.0,0.4496,5.7609,5.9498,6.096,6.1353,5.6422,5.0644,4.7759,3.2528,1.5726,0.412,-0.0948,-0.3322,-0.3796,-0.3934,-0.4308,-0.5266,-0.2397,0.0,0.0,0.0,0.0,0.0,0.0,0.0,0.0,0.0,0.0,0.0,0.0,0.0,0.0,0.0,0.0,0.0,0.0,0.0,0.0,0.0,0.0,0.0,0.0,0.0,0.0,0.0,0.0,0.0,0.0,0.0,0.0,0.048,0.2277,0.4548,0.1559,0.2277,0.4429,0.1199,0.0,0.0,0.0,0.0,0.0,0.0,0.0,0.0,0.0,0.0,0.0,0.0,0.0,0.0,0.0,0.0,0.0,0.0,0.0,0.0,0.0,0.0,0.0,0.0,0.0,0.0,0.0,0.0,0.0,0.0,0.0,0.0,0.0,0.0,0.0,0.0,0.0,0.0,0.0,0.0,0.0,0.0,0.0,0.0,0.0,0.0,0.0,0.0,0.0,0.0,0.0,0.0,0.0,0.0,0.0,0.2543,5.468,5.5073,5.4683,5.4713,4.9927,4.4465,4.1781,3.4137,2.5232,1.6617,1.176,0.799,0.4645,0.3343,0.2752,0.2511,0.1078,0.0,0.0,0.0,0.0,0.0,0.0,0.0,0.0,0.0,0.0,0.0,0.0,0.0,0.0,0.0,0.0,0.0,0.0,0.0,0.0,0.0,0.0,0.0,0.0,0.0,0.0,0.0,0.0,0.0,0.0,0.0,0.024,0.3595,0.4909,0.4786,0.407,0.4189,0.4429,0.1199,0.0,0.0,0.0,0.0,0.0,0.0,0.0,0.0,0.0,0.0,0.0,0.0,0.0,0.0,0.0,0.0,0.0,0.0,0.0,0.0,0.0,0.0,0.0,0.0,0.0,0.0,0.0,0.0,0.0,0.0,0.0,0.0,0.0,0.0,0.0,0.0,0.0,0.0,0.0,0.0,0.0,0.0,0.0,0.0,0.0,0.0,0.0,0.0,0.0,0.0,0.0,0.0,0.0,0.0,0.0,0.0589,4.8446,4.9749,5.0479,5.1876,4.8127,4.3213,4.0111,3.4294,2.8096,2.2982,1.6094,1.0067,0.703,0.4305,0.2517,0.2517,0.1079,0.0,0.0,0.0,0.0,0.0,0.0,0.0,0.0,0.0,0.0,0.0,0.0,0.0,0.0,0.0,0.0,0.0,0.0,0.0,0.0,0.0,0.0,0.0,0.0,0.0,0.0,0.0,0.0,0.0,0.0,0.0,0.012,0.2398,0.4192,0.5387,0.3354,0.3473,0.4429,0.1199,0.0,0.0,0.0,0.0,0.0,0.0,0.0,0.0,0.0,0.0,0.0,0.0,0.0,0.0,0.0,0.0,0.0,0.0,0.0,0.0,0.0,0.0,0.0,0.0,0.0,0.0,0.0,0.0,0.0,0.0,0.0,0.0,0.0,0.0,0.0,0.0,0.0,0.0,0.0,0.0,0.0,0.0,0.0,0.0,0.0,0.0,0.0,0.0,0.0,0.0,0.0,0.0,0.0,0.0,0.0,0.0,4.1427,4.3479,4.5612,4.9128,4.6638,4.2508,4.0063,3.3912,2.8341,2.666,1.7981,1.01,0.7821,0.3928,0.1195,0.1558,0.0718,0.0,0.0,0.0,0.0,0.0,0.0,0.0,0.0,0.0,0.0,0.0,0.0,0.0,0.0,0.0,0.0,0.0,0.0,0.0,0.0,0.0,0.0,0.0,0.0,0.0,0.0,0.0,0.0,0.0,0.0,0.0,0.0,0.0,0.2038,0.4911,0.1439,0.1678,0.3712,0.0959,0.0,0.0,0.0,0.0,0.0,0.0,0.0,0.0,0.0,0.0,0.0,0.0,0.0,0.0,0.0,0.0,0.0,0.0,0.0,0.0,0.0,0.0,0.0,0.0,0.0,0.0,0.0,0.0,0.0,0.0,0.0,0.0,0.0,0.0,0.0,0.0,0.0,0.0,0.0,0.0,0.0,0.0,0.0,0.0,0.0,0.0,0.0,0.0,0.0,0.0,0.0,0.0,0.0,0.0,0.0,0.0,3.6719,3.5735,3.5542,4.1783,3.9901,3.6923,3.8818,3.4033,2.9336,2.9961,2.3526,1.6458,1.2262,0.8287,0.6113,0.799,0.367,0.0,0.0,0.0,0.0,0.0,0.0,0.0,0.0,0.0,0.0,0.0,0.0,0.0,0.0,0.0,0.0,0.0,0.0,0.0,0.0,0.0,0.0,0.0,0.0,0.0,0.0,0.0,0.0,0.0,0.0,0.0,0.0,0.0,0.036,0.084,0.024,0.024,0.06,0.012,0.0,0.0,0.0,0.0,0.0,0.0,0.0,0.0,0.0,0.0,0.0,0.0,0.0,0.0,0.0,0.0,0.0,0.0,0.0,0.0,0.0,0.0,0.0,0.0,0.0,0.0,0.0,0.0,0.0,0.0,0.0,0.0,0.0,0.0,0.0,0.0,0.0,0.0,0.0,0.0,0.0,0.0,0.0,0.0,0.0,0.0,0.0,0.0,0.0,0.0,0.0,0.0,0.0,0.0,0.0,0.0,2.999,3.127,3.2578,3.5245,3.4292,3.303,3.3911,3.0218,2.6812,2.7845,2.117,1.4713,1.2952,0.8831,0.5997,0.6745,0.4227,0.1698,0.023,0.0,0.0,0.0,0.0,0.0,0.0,0.0,0.0,0.0,0.0,0.0,0.0,0.0,0.0,0.0,0.0,0.0,0.0,0.0,0.0,0.0,0.0,0.0,0.0,0.0,0.0,0.0,0.0,0.0,0.0,0.0,0.0,0.0,0.0,0.0,0.0,0.0,0.0,0.0,0.0,0.0,0.0,0.0,0.0,0.0,0.0,0.0,0.0,0.0,0.0,0.0,0.0,0.0,0.0,0.0,0.0,0.0,0.0,0.0,0.0,0.0,0.0,0.0,0.0,0.0,0.0,0.0,0.0,-0.2391,-0.8821,-0.9682,-0.9675,-0.9675,-0.6841,-0.6188,-0.9462,-0.674,-0.3478,-0.0217,0.0,0.0,0.0,0.0,0.0,0.0,-0.1552,-0.1627,0.0,0.0,0.0,0.0,0.0,0.0,2.064,2.3888,2.6672,2.8027,2.8236,2.8515,2.963,2.6523,2.3732,2.5203,1.9379,1.4093,1.4315,1.0461,0.7097,0.6766,0.5271,0.3431,0.1346,0.0454,0.0,0.0,0.0,0.0,0.0,0.0,0.0,0.0,0.0,0.0,0.0,0.0,0.0,0.0,0.0,-0.036,-0.1199,-0.1199,-0.1199,-0.1199,-0.1199,-0.1199,-0.1199,-0.1199,-0.1199,-0.1199,-0.036,0.0,0.0,0.0,0.0,0.0,0.0,0.0,0.0,0.0,0.0,0.0,0.0,0.0,0.0,0.0,0.0,0.0,0.0,0.0,0.0,0.0,0.0,0.0,0.0,0.0,0.0,0.0,0.0,0.0,0.0,0.0,0.0,0.0,0.0,0.0,0.0,-0.2498,-0.4452,-0.4446,-0.4446,-0.7571,-1.6172,-1.7253,-1.7279,-1.7251,-1.2491,-1.1526,-1.6815,-1.3239,-0.8976,-0.4662,-0.4446,-0.4446,-0.4446,-0.3023,-0.2227,-0.2256,-0.3691,-0.3428,-0.1168,-0.176,-0.1274,0.0,-0.0883,-0.0883,0.7747,0.9699,1.3174,1.9588,2.1179,2.2497,2.7963,2.4547,2.1067,2.4156,2.1553,1.8752,1.875,1.5274,1.2339,1.1987,0.7931,0.4671,0.4105,0.1714,0.0,0.0,0.0,0.0,0.0,0.0,0.0,0.0,0.0,0.0,0.0,0.0,0.0,0.0,0.0,-0.1439,-0.4548,-0.4668,-0.4668,-0.4668,-0.4668,-0.4668,-0.4668,-0.4668,-0.4668,-0.4429,-0.1319,0.0,0.0,0.0,0.0,0.0,0.0,0.0,0.0,0.0,0.0,0.0,0.0,0.0,0.0,0.0,0.0,0.0,0.0,0.0,0.0,0.0,0.0,0.0,0.0,0.0,0.0,0.0,0.0,0.0,0.0,0.0,0.0,0.0,0.0,0.0,0.0,-0.9161,-1.6426,-1.6401,-1.6401,-1.6619,-1.7257,-1.7277,-1.7285,-1.7258,-1.3456,-1.2676,-1.6954,-1.6574,-1.6223,-1.6383,-1.6401,-1.6401,-1.6401,-1.1144,-0.8342,-0.8348,-0.6224,-0.493,-0.4467,-0.6385,-0.488,-0.0098,-0.3424,-0.3233,0.5365,0.8217,1.0721,1.1634,1.4055,1.7621,2.2649,2.1808,2.0205,2.0919,1.9951,1.9059,1.9078,1.7228,1.5036,1.2968,1.1342,0.9052,0.5197,0.3798,0.2364,0.0225,0.0,0.0,0.0,0.0,0.0,0.0,0.0,-0.0813,-0.2673,-0.469,-0.589,-0.589,-0.6067,-0.6696,-0.7887,-0.7887,-0.7887,-0.7887,-0.7887,-0.7887,-0.7887,-0.7887,-0.7887,-0.7768,-0.6577,-0.6065,-0.589,-0.589,-0.4687,-0.279,-0.279,-0.1623,0.0,0.0,0.0,0.0,0.0,0.0,0.0,0.0,0.0,0.0,0.0,0.0,0.0,0.0,0.0,0.0,0.0,0.0,0.0,0.0,0.0,0.0,0.0,0.0,0.0,0.0,0.0,-0.0747,-0.2955,-0.7677,-1.2298,-1.5678,-1.6206,-1.6227,-1.6202,-1.6169,-1.6317,-1.6743,-1.5511,-1.5119,-1.6064,-1.6428,-1.6739,-1.7274,-1.7281,-1.7281,-1.7281,-1.5367,-1.227,-0.8177,-0.817,-0.7543,-0.615,-0.6943,-0.6971,-0.6312,-0.5369,-0.3961,-0.1958,0.1365,0.3515,0.265,0.42,0.7285,1.2627,1.3485,1.4439,1.8294,1.9099,1.8393,1.6223,1.5836,1.5139,1.2997,1.1462,0.9193,0.5265,0.3874,0.2449,0.0222,0.0,0.0,0.0,0.0,-0.0455,-0.1372,-0.1484,-0.2737,-0.5588,-0.783,-0.9027,-0.9027,-0.9121,-0.9759,-1.0818,-1.0818,-1.0818,-1.0818,-1.0818,-1.0818,-1.0818,-1.0818,-1.0818,-1.0818,-0.9759,-0.9118,-0.9027,-0.9027,-0.771,-0.5816,-0.5816,-0.4664,-0.2833,-0.1815,-0.2035,-0.2915,-0.2961,-0.2938,-0.2938,-0.2938,-0.1632,0.0,0.0,0.0,-0.0218,-0.1197,-0.1415,-0.1198,-0.0218,0.0,0.0,0.0,0.0,0.0,0.0,0.0,0.0,0.0,0.0,-0.1882,-0.7662,-0.9795,-1.1833,-1.5046,-1.5551,-1.5578,-1.5603,-1.5546,-1.5752,-1.6425,-1.7413,-1.8087,-1.8089,-1.6903,-1.6383,-1.6692,-1.6699,-1.6699,-1.6699,-1.6714,-1.4655,-1.0232,-1.1106,-1.0812,-0.9308,-0.9467,-0.9593,-0.9689,-0.7648,-0.5993,-1.5272,-1.2127,-0.9293,-0.7315,-0.822,-0.819,-0.1953,-0.0608,0.3028,1.5842,1.8504,1.6536,1.0385,1.1207,1.2557,1.2133,0.8092,0.4853,0.4364,0.1785,0.0,0.0,0.0,0.0,0.0,-0.0112,-0.1235,-0.4099,-0.4445,-0.581,-0.8759,-0.8989,-0.8993,-0.8993,-0.8996,-1.0479,-1.3549,-1.3549,-1.3549,-1.3549,-1.3549,-1.3549,-1.3549,-1.3549,-1.3549,-1.3436,-1.0362,-0.8996,-0.8993,-0.8993,-0.8989,-0.8873,-0.8873,-0.8789,-0.8444,-0.5561,-0.639,-0.8906,-0.8794,-0.8791,-0.8794,-0.8896,-0.5096,-0.0434,-0.0108,-0.0108,-0.0868,-0.3581,-0.434,-0.369,-0.0979,-0.0215,-0.0213,-0.0213,-0.0209,-0.031,-0.0413,-0.0515,-0.0514,-0.0514,-0.0514,-0.3701,-1.3858,-1.6029,-1.6317,-1.5684,-1.5545,-1.5628,-1.5794,-1.5622,-1.5814,-1.6667,-1.9148,-2.1448,-2.2962,-1.852,-1.5546,-1.559,-1.5507,-1.5507,-1.5507,-1.5565,-1.536,-1.5076,-1.5056,-1.4682,-1.3945,-1.4325,-1.2788,-0.9458,-1.0478,-0.9567,-1.9829,-1.7366,-1.5362,-1.4779,-1.5062,-1.5144,-1.401,-1.3736,-1.0141,0.2663,0.5282,0.4695,0.2976,0.6876,0.9855,0.832,0.8119,0.7407,0.5026,0.2005,0.0,0.0,0.0,0.0,0.0,-0.1863,-0.34,-0.4185,-0.8253,-1.1003,-1.1774,-1.4124,-1.533,-1.533,-1.5505,-1.6059,-1.6975,-1.6975,-1.6975,-1.6975,-1.6975,-1.6975,-1.6975,-1.6975,-1.6975,-1.6862,-1.6059,-1.55,-1.533,-1.533,-1.4003,-1.1879,-1.1879,-1.0536,-0.8855,-1.0162,-1.1116,-1.1489,-0.9101,-0.9282,-1.0872,-1.35,-1.2921,-0.9821,-0.234,-0.298,-0.6394,-0.6929,-0.6972,-0.6591,-0.5859,-0.5632,-0.5614,-0.5614,-0.559,-0.6703,-1.044,-1.1268,-1.1218,-1.1276,-1.124,-1.2202,-1.5071,-1.5711,-1.5783,-1.558,-1.5503,-1.6889,-2.0535,-1.7875,-1.7025,-2.0866,-2.3042,-2.3912,-2.3228,-1.8516,-1.5539,-1.5515,-1.5521,-1.5521,-1.5521,-1.5538,-1.7604,-2.1865,-2.0507,-1.8865,-1.7212,-1.7317,-1.5691,-1.2605,-1.2873,-1.1735,-3.0406,-2.6973,-2.3589,-2.0876,-2.2658,-2.4231,-2.0927,-2.3625,-2.4523,-1.603,-0.6634,0.0,0.0,0.3043,0.5189,0.395,0.4771,0.4881,0.3129,0.1226,0.0,0.0,-0.1415,-0.2392,-0.2392,-0.4671,-0.6624,-0.7813,-1.107,-1.3568,-1.4764,-1.6649,-1.7616,-1.7616,-1.7787,-1.7873,-1.7873,-1.7873,-1.7873,-1.7873,-1.7873,-1.7873,-1.7873,-1.7873,-1.7873,-1.7873,-1.7873,-1.778,-1.7616,-1.7616,-1.6534,-1.4764,-1.4764,-1.3783,-1.2474,-1.4106,-1.4675,-1.4493,-1.2347,-1.2349,-1.3461,-1.53,-1.5401,-1.3769,-0.838,-0.9357,-1.1932,-1.0151,-0.9558,-0.9075,-0.7953,-0.7564,-0.7692,-0.8462,-0.9731,-1.1604,-1.487,-1.5603,-1.5539,-1.5572,-1.5534,-1.5567,-1.5593,-1.5548,-1.5532,-1.5532,-1.5584,-1.7248,-2.1849,-2.2188,-2.2876,-2.5557,-2.6669,-2.706,-2.634,-2.3587,-2.1914,-2.1914,-2.1914,-2.001,-1.568,-1.9601,-2.2538,-2.4047,-2.3117,-2.2041,-2.0847,-1.986,-1.8385,-1.6584,-1.5662,-1.5049,-4.3147,-3.8407,-3.323,-2.7051,-3.0706,-3.3647,0.0,-3.0737,-3.713,-3.6107,-1.8825,-0.3216,-0.1333,-0.0445,-0.0223,-0.0891,-0.1015,-0.1019,-0.1004,-0.1114,-0.1218,-0.0982,-0.402,-0.6183,-0.6183,-0.8033,-1.0317,-1.2807,-1.3352,-1.4657,-1.7157,-1.7271,-1.7271,-1.7271,-1.7271,-1.7271,-1.7271,-1.7271,-1.7271,-1.7271,-1.7271,-1.7271,-1.7271,-1.7271,-1.7271,-1.7271,-1.7271,-1.7271,-1.7271,-1.7271,-1.7271,-1.7264,-1.7231,-1.7493,-1.7924,-1.7614,-1.7613,-1.7499,-1.6964,-1.6458,-1.5982,-1.512,-1.439,-1.404,-1.5592,-1.65,-1.6344,-1.2985,-1.2057,-1.1443,-0.8862,-0.806,-0.8275,-0.9978,-1.2677,-1.4891,-1.5283,-1.5412,-1.5572,-1.5539,-1.5559,-1.5559,-1.5595,-1.5595,-1.589,-1.6743,-1.6899,-1.8208,-2.1992,-2.7029,-3.0216,-2.9913,-2.9859,-3.0304,-3.1143,-3.0861,-3.0709,-3.0709,-3.0667,-2.6633,-1.7616,-2.596,-2.8688,-2.4473,-2.4929,-2.5039,-2.4543,-2.2205,-2.0927,-2.0541,-1.8621,-1.895,0.0,0.0,0.0,0.0,0.0,0.0,0.0,-3.5622,-3.7246,-4.5295,-3.6554,-2.3374,-0.9595,-0.3206,-0.1548,-0.6233,-0.7008,-0.7013,-0.7101,-0.8412,-0.8841,-0.7283,-0.7711,-0.8144,-0.8144,-1.0638,-1.2375,-1.3023,-1.5195,-1.672,-1.7264,-1.7271,-1.7271,-1.7271,-1.7271,-1.7271,-1.7271,-1.7271,-1.7271,-1.7271,-1.7271,-1.7271,-1.7271,-1.7271,-1.7271,-1.7271,-1.7271,-1.7271,-1.7271,-1.7271,-1.7271,-1.7245,-1.7115,-1.907,-2.1911,-2.1528,-2.0644,-1.9461,-1.8408,-1.7022,-1.5503,-1.4743,-1.4231,-1.4015,-1.4884,-1.522,-1.5171,-1.4588,-1.4337,-1.4082,-1.3517,-1.3348,-1.3283,-1.3428,-1.4155,-1.4655,-1.4249,-1.4884,-1.5592,-1.5555,-1.5504,-1.5511,-1.5596,-1.5547,-1.7752,-2.4158,-2.5097,-2.575,-2.7507,-2.7863,-2.8981,-3.1457,-3.1943,-3.2684,-3.4284,-3.2155,-3.0736,-3.0736,-3.0732,-2.9854,-2.7844,-2.9616,-3.1208,-3.2197,-3.2316,-3.0848,-2.7555,-2.5186,-2.283,-2.0625,-2.0121,-2.209,0.0,0.0,0.0,0.0,0.0,0.0,0.0,0.0,0.0,0.0,0.0,-3.0912,-1.2554,0.0,-0.8327,-1.0469,-0.8821,-0.7634,-0.8571,-0.9563,-1.08,-1.2405,-1.2889,-1.2939,-1.261,-1.4072,-1.4947,-1.482,-1.6085,-1.693,-1.693,-1.8067,-1.879,-1.879,-2.0292,-2.1114,-2.1114,-2.1391,-2.1587,-2.1587,-2.1587,-2.1587,-2.1587,-2.1587,-2.1587,-2.1587,-2.1587,-2.1587,-2.1587,-2.1587,-2.1276,-2.0693,-2.005,-2.0984,-2.2747,-2.2624,-2.2047,-2.1218,-2.0624,-1.9617,-1.8491,-1.7682,-1.7842,-1.8264,-1.7892,-1.7371,-1.7037,-1.7881,-1.7949,-1.7908,-1.7908,-1.7778,-1.768,-1.7682,-1.7641,-1.7633,-1.7261,-1.6301,-1.5558,-1.5516,-1.469,-1.4087,-1.459,-1.8462,-2.2826,-2.6811,-2.7387,-2.7662,-2.8236,-2.7756,-2.8336,-3.0868,-3.2938,-3.4803,-3.6337,-3.6544,-3.632,-3.5427,-3.6879,-3.7831,-3.7843,-3.5536,-3.5029,-3.6517,-3.555,-3.4344,-3.2752,-3.1247,-2.9595,-2.7815,-2.8018,-2.8356,0.0,0.0,0.0,0.0,0.0,0.0,0.0,0.0,0.0,0.0,0.0,0.0,0.0,0.0,0.0,-1.3763,-1.0435,-0.8533,-1.0065,-1.029,-1.2079,-1.691,-1.792,-1.8137,-1.8045,-1.8129,-1.8172,-1.8016,-1.7994,-1.7994,-1.7994,-1.9896,-2.0998,-2.0998,-2.3413,-2.4712,-2.4712,-2.5258,-2.5538,-2.5538,0.0,0.0,-2.5538,-2.5538,-2.5538,-2.5538,-2.5538,-2.5538,-2.5538,-2.5538,-2.4921,-2.411,-2.4123,-2.402,-2.3812,-2.3724,-2.3484,-2.3225,-2.296,-2.2309,-2.1519,-2.1008,-2.1775,-2.2616,-2.1075,-2.0247,0.0,-2.0715,-2.0897,-2.0878,-2.08,-2.0594,-2.0492,-2.0587,-2.1121,-2.1313,-2.0352,-1.854,-1.7182,-1.7204,-1.6087,-1.5408,-1.6251,-2.2565,-2.7424,-2.7441,-2.7409,-2.7375,-2.7441,-2.8812,-3.0218,-3.1262,-3.4546,-3.721,-3.8849,-4.2219,-4.3734,-4.2375,-4.4698,-4.617,-4.6192,-4.1823,-3.948,-3.9582,-3.7808,-3.7163,-3.7847,-3.6898,-3.5697,-3.4561,-3.5092,-3.3509,0.0,0.0,0.0,0.0,0.0,0.0,0.0,0.0,0.0,0.0,0.0,0.0,0.0,0.0,0.0,0.0,-1.605,-1.5982,-1.5806,-1.5736,-1.6995,-2.078,-2.1266,-2.1811,-2.3107,-2.3244,-2.3254,-2.3207,-2.3207,-2.3207,-2.3207,0.0,0.0,0.0,0.0,-2.4175,-2.4175,-2.4223,-2.4343,-2.4343,-2.4343,-2.4343,-2.4343,-2.4343,-2.4343,-2.4343,-2.4343,-2.4343,-2.4343,-2.4343,-2.4185,-2.4478,-2.7838,-2.9095,-2.8918,-2.7445,-2.6713,-2.6308,-2.5016,0.0,0.0,-2.1536,-2.2118,-2.2616,-2.1075,-2.1482,-2.2249,-2.0976,-2.062,-2.0531,-2.0067,-1.9931,-1.9733,-1.9243,-2.2152,-2.3851,-1.931,-2.0788,-2.2959,-2.297,-2.4426,-2.5707,-2.5828,-2.6738,-2.7376,-2.7424,-2.7443,-2.7398,-2.7377,-3.3985,-3.809,-3.678,0.0,0.0,-4.3803,-4.8008,-5.0405,-5.0269,-5.0533,-5.081,-5.0802,-4.6816,-4.4099,-4.2843,-4.1467,-4.07,-4.0546,-3.8298,-3.566,-3.2735,-3.3538,-3.28,0.0,0.0,0.0,0.0,0.0,0.0,0.0,0.0,0.0,0.0,0.0,0.0,0.0,0.0,0.0,0.0,-1.8905,-1.9341,-2.5267,-2.5419,-2.404,-2.1403,-2.1499,-2.2226,-2.3411,-2.3781,-2.3829,-2.3586,-2.3566,-2.3566,-2.3566,-2.5004,-2.5774,-2.5774,-2.7601,-2.8547,-2.8547,-2.8837,-2.8976,-2.8976,-2.8976,-2.8976,-2.8976,-2.8976,-2.8976,-2.8976,-2.8976,-2.8976,-2.8976,-2.8976,-2.8976,0.0,0.0,0.0,0.0,0.0,-3.2438,-3.2296,-3.2043,-3.1215,-3.0137,-2.9552,-2.9667,-2.968,-2.8518,-2.8612,-2.8666,-2.6505,-2.5908,-2.5487,-2.3649,-2.3216,-2.317,-2.2871,-2.3785,-2.4097,-2.191,-2.276,-2.3905,-2.3928,-2.4728,0.0,-2.718,-2.7447,-2.6912,-2.5574,-2.9044,-3.1821,-3.186,-3.6635,-3.898,-3.6343,-4.0136,-4.4787,-4.9604,-5.4394,0.0,0.0,0.0,-5.2274,-5.4012,-4.9652,0.0,0.0,0.0,0.0,0.0,0.0,0.0,0.0,-3.8556,-3.8095,0.0,0.0,0.0,0.0,0.0,0.0,0.0,0.0,0.0,0.0,0.0,0.0,0.0,0.0,0.0,0.0,-2.5952,-2.5718,-3.5696,-3.7863,-3.5525,-2.7672,-2.523,-2.4805,-2.639,-2.7157,-2.7191,-2.6312,-2.6196,-2.6196,-2.6196,-2.8071,-2.9368,-2.9975,-3.2201,-3.3403,-3.3403,-3.3738,-3.3959,-3.3959,-3.3959,-3.3959,-3.3959,-3.3959,-3.3959,-3.3959,-3.3959,-3.3959,-3.3959,-3.3959,-3.3959,-3.4171,-3.6296,-3.7114,-3.7049,-3.6617,-3.6293,-3.6228,-3.6871,-3.6774,-3.6341,-3.5757,-3.545,-3.5126,-3.3983,-3.3632,-3.3125,-3.0762,-3.0136,-2.9619,-2.7507,-2.6915,-2.6935,-2.677,-2.6082,-2.5489,-2.5474,-2.4629,-2.4513,-2.6592,-2.6979,-2.7779,-3.0421,-3.0147,-2.8896,-2.7213,-3.1568,0.0,-3.4967,-3.8714,-4.0437,-3.7978,-4.3462,-4.9556,-5.5093,-5.9822,-6.0873,-5.7188,-5.5829,-5.5481,-5.6229,-5.2245,-5.125,-5.3723,-5.1931,-5.0788,0.0,0.0,0.0,0.0,0.0,0.0,0.0,0.0,0.0,0.0,0.0,0.0,0.0,0.0,0.0,0.0,0.0,0.0,0.0,0.0,0.0,0.0,0.0,0.0,-4.6514,-5.3078,-5.3399,-4.3479,-3.5251,-3.1717,-3.4852,-3.6539,-3.6489,-3.4194,-3.4013,-3.4013,-3.4013,-3.4103,-3.5249,-3.7527,-3.7632,-3.7753,-3.7753,-3.7769,-3.7696,-3.7696,-3.7696,-3.7696,-3.7696,-3.7696,-3.7696,-3.7696,-3.7696,-3.7696,-3.7696,-3.7696,-3.7696,-3.7705,-3.7318,-3.7114,-3.7114,-3.7098,-3.673,-3.6228,-3.6871,-3.7098,-3.7081,-3.7065,-3.6665,-3.5823,-3.4128,-3.3632,-3.3249,-3.1528,-3.1059,-3.0901,-3.0294,-3.0192,-3.0089,-2.956,-2.9385,-2.9369,-2.9369,-2.6461,-2.6043,-3.3217,-3.4641,-3.5708,-3.9079,-3.6928,-3.4752,-3.4664,-3.4821,0.0,-3.4979,-4.0726,-4.4689,-4.4629,-4.9866,-5.5252,-6.0057,-6.358,-6.5488,-6.5345,-6.4705,-6.2083,-5.7103,-5.5187,-5.5578,-5.8465,-5.8423,-5.6767,-5.3502,0.0,0.0,0.0,0.0,0.0,0.0,0.0,0.0,0.0,0.0,0.0,0.0,0.0,0.0,0.0,0.0,0.0,0.0,0.0,0.0,0.0,0.0,0.0,0.0,-5.4763,-5.3353,-4.8706,-4.3903,-3.9541,-3.5954,-3.8252,-3.9057,-3.692,-3.6757,-3.6757,-3.6757,-3.6757,-3.7099,-3.7898,-3.7898,-3.7898,-3.7898,-3.7898,-3.7898,-3.7898,-3.7898,-3.7898,-3.7898,-3.7898,-3.7898,-3.7898,-3.7898,-3.7898,-3.7898,-3.7898,-4.1457,-4.6925,-4.6729,-4.6609,-4.6609,-4.6609,-4.6511,-4.6392,-4.6591,-4.6609,-4.6509,-4.593,-4.4176,-4.2395,-4.261,-4.1245,-3.9448,-3.8395,-3.7174,-3.5923,-3.4547,-3.4166,-3.3967,-3.297,-3.4692,-3.648,-3.648,-3.3727,-3.1969,-3.4522,-3.8531,-4.1022,-3.9296,-3.6787,-3.4982,-3.4958,-3.8745,-4.1596,-4.1544,-4.3495,-4.7702,-5.4923,-6.0659,-6.3974,-6.397,-6.6367,-6.7314,-6.6041,-6.4388,-6.3464,-6.3513,-6.2577,-6.3297,-6.5989,-6.6282,-6.5145,-6.2512,0.0,0.0,0.0,0.0,0.0,0.0,0.0,0.0,0.0,0.0,0.0,0.0,0.0,0.0,0.0,0.0,0.0,0.0,0.0,0.0,0.0,0.0,0.0,0.0,0.0,0.0,-5.4798,-5.192,0.0,-4.2864,-4.2878,-4.261,-4.1015,-4.0879,-4.0572,-3.9867,-4.0521,-4.0949,-4.1173,-4.1803,-4.2354,-4.273,-4.273,-4.273,-4.273,-4.273,-4.273,-4.273,-4.273,-4.273,-4.273,-4.273,-4.273,-4.2883,-4.4149,-4.7895,-5.2728,-5.2728,-5.2524,-5.2044,-5.185,-5.1771,-5.1894,-5.2329,-5.2139,-5.1917,-5.2535,-4.9839,-4.6521,-4.7503,-4.6141,-4.3973,-4.2664,-4.1501,-4.031,-3.9005,-3.8648,-3.844,-3.7723,-4.0289,-4.2924,-4.2964,-4.0621,-3.8048,-3.6538,-4.2212,-4.6533,-4.4244,-4.107,-3.8795,-3.8549,-4.2154,-4.4908,-4.4906,-4.6707,-5.2148,-6.2934,-6.7113,-6.8268,-6.592,-6.8457,-6.9212,-6.6861,-6.5184,-6.5113,-6.7009,-6.7099,-6.7701,-6.8845,-7.1652,-7.1303,0.0,0.0,0.0,0.0,0.0,0.0,0.0,0.0,0.0,0.0,0.0,0.0,0.0,0.0,0.0,0.0,0.0,0.0,0.0,0.0,0.0,0.0,0.0,0.0,0.0,0.0,0.0,-6.2017,-5.9455,0.0,0.0,0.0,0.0,-4.666,-4.6625,-4.581,-4.3867,-4.5529,-4.6732,-4.7197,-4.8902,-5.0255,-5.1305,-5.1326,-5.1406,-5.1464,-5.145,-5.1472,-5.1552,-5.1515,-5.1537,-5.1617,-5.1617,-5.1675,-5.211,-5.5984,-5.6762,-5.5539,-5.549,-5.464,-5.344,-5.2855,-5.2608,-5.277,-5.4064,-5.3738,-5.3223,-5.6369,-5.329,-4.8475,-4.895,-4.8072,0.0,0.0,-4.4123,-4.3966,-4.3693,-4.3653,-4.3653,-4.3631,-4.6188,-4.8586,-4.8636,-4.6632,-4.3849,0.0,-4.6549,-5.2736,-5.3855,0.0,-4.6133,-4.5339,-4.5304,-4.5327,-4.5357,-5.0188,-5.7652,-6.8115,-6.9361,-6.8582,-6.6309,-6.9918,-7.1109,-6.8168,-6.7452,-6.7304,-6.7673,-6.8719,-6.8833,-6.7827,-7.4056,0.0,0.0,0.0,0.0,0.0,0.0,0.0,0.0,0.0,0.0,0.0,0.0,0.0,0.0,0.0,0.0,0.0,0.0,0.0,0.0,0.0,0.0,0.0,0.0,0.0,0.0,-6.5039,-6.6203,-6.7587,-6.6496,-6.3526,0.0,0.0,0.0,0.0,0.0,0.0,-5.0047,-5.0475,-5.0201,-4.9116,-4.9508,-4.9526,-4.9071,-4.9071,-4.9673,-5.0954,-5.0398,-5.0906,-5.2085,-5.17,-5.2247,-5.3506,-5.3506,-5.4321,-5.6134,-6.3563,-6.5182,-6.2879,-6.1773,-6.0637,-5.9388,-5.8106,-5.705,-5.6485,-5.7685,-5.8644,-5.8995,-5.7553,-5.6749,-5.5981,-5.3893,0.0,0.0,0.0,0.0,-4.8517,-5.0033,-5.0375,-5.0409,-5.0477,-5.2462,-5.4324,-5.4282,-4.9352,-4.6968,0.0,-6.0418,-6.3435,-5.95,0.0,0.0,0.0,0.0,-5.1424,-5.142,-5.2695,-5.7648,-6.8082,-7.1897,-7.3161,-7.1871,-7.2099,-7.1689,-7.0264,-6.875,-6.8927,-7.1141,-6.9294,-7.0447,-7.5119,0.0,0.0,0.0,0.0,0.0,0.0,0.0,0.0,0.0,0.0,0.0,0.0,0.0,0.0,0.0,0.0,0.0,0.0,0.0,0.0,0.0,0.0,0.0,0.0,0.0,0.0,0.0,-6.6824,-6.8217,-6.863,-6.9306,-6.7063,0.0,0.0,0.0,0.0,0.0,0.0,0.0,0.0,0.0,-5.3809,-5.4594,-5.4986,-5.4866,-5.4288,-5.4502,-5.5425,-5.4432,-5.4505,-5.5459,-5.5157,-5.6151,-5.8263,-5.9037,-6.1456,-6.5323,-7.0691,-7.1657,-6.9628,0.0,0.0,0.0,0.0,-6.1751,-5.9918,-6.1587,-6.1894,-6.1393,-6.0266,0.0,0.0,0.0,0.0,0.0,0.0,0.0,0.0,0.0,0.0,-5.4389,-5.4481,-5.6542,-5.8486,-5.8462,-5.6944,-5.7884,0.0,-6.5323,-6.2563,-5.9335,0.0,0.0,0.0,0.0,-5.107,-5.3383,-5.5456,-5.9922,-6.8326,-7.3704,-7.5971,-7.403,-7.39,-7.2883,-7.0439,-6.9466,-6.9095,-6.9336,-6.9915,-7.0269,0.0,0.0,0.0,0.0,0.0,0.0,0.0,0.0,0.0,0.0,0.0,0.0,0.0,0.0,0.0,0.0,0.0,0.0,0.0,0.0,0.0,0.0,0.0,0.0,0.0,0.0,0.0,0.0,0.0,-6.8621,-6.8262,0.0,0.0,0.0,0.0,0.0,0.0,0.0,0.0,0.0,0.0,0.0,0.0,0.0,-6.2778,-6.3541,-6.224,-6.1791,-6.2163,-6.0538,-6.0051,-6.0407,-6.0375,-6.1698,-6.4137,-6.6686,0.0,-7.5475,-7.719,0.0,0.0,0.0,0.0,0.0,0.0,0.0,0.0,0.0,0.0,0.0,0.0,0.0,0.0,0.0,0.0,0.0,0.0,0.0,0.0,0.0,0.0,-5.681,-5.679,-5.9057,-6.1102,0.0,-6.4449,-6.8838,-7.2113,-6.3862,0.0,0.0,0.0,0.0,0.0,0.0,0.0,-5.2947,-5.7754,-6.2747,-6.8174,-7.4742,-7.75,-7.45,-7.4943,-7.373,-6.9778,-6.9615,-6.8294,-6.5306,-6.95,0.0,0.0,0.0,0.0,0.0,0.0,0.0,0.0,0.0,0.0,0.0,0.0,0.0,0.0,0.0,0.0,0.0,0.0,0.0,0.0,0.0,0.0,0.0,0.0,0.0,0.0,0.0,0.0,0.0,0.0,0.0,0.0,0.0,0.0,0.0,0.0,0.0,0.0,0.0,0.0,0.0,0.0,0.0,0.0,0.0,0.0,0.0,0.0,0.0,0.0,-6.3024,-6.2908,-6.5412,-6.4898,-6.5713,-6.7952,-7.4784,-7.7441,-7.7305,-8.205,0.0,0.0,0.0,0.0,0.0,0.0,0.0,0.0,0.0,0.0,0.0,0.0,0.0,0.0,0.0,0.0,0.0,0.0,0.0,0.0,0.0,0.0,0.0,0.0,-6.0213,-6.05,-5.7787,0.0,0.0,0.0,0.0,0.0,0.0,0.0,0.0,0.0,0.0,0.0,-5.2977,-5.7766,-6.2094,-6.59,-7.3749,-7.8012,-7.6273,-7.376,-7.1704,-7.0295,-6.8761,-6.6919,0.0,0.0,0.0,0.0,0.0,0.0,0.0,0.0,0.0,0.0,0.0,0.0,0.0,0.0,0.0,0.0,0.0,0.0,0.0,0.0,0.0,0.0,0.0,0.0,0.0,0.0,0.0,0.0,0.0,0.0,0.0,0.0,0.0,0.0,0.0,0.0,0.0,0.0,0.0,0.0,0.0,0.0,0.0,0.0,0.0,0.0,0.0,0.0,0.0,0.0,0.0,0.0,0.0,0.0,0.0,0.0,0.0,0.0,0.0,-8.2399,0.0,0.0,0.0,0.0,0.0,0.0,0.0,0.0,0.0,0.0,0.0,0.0,0.0,0.0,0.0,0.0,0.0,0.0,0.0,0.0,0.0,0.0,0.0,0.0,0.0,0.0,0.0,0.0,0.0,0.0,0.0,0.0,0.0,0.0,0.0,0.0,0.0,0.0,0.0,0.0,-5.298,-5.7756,-6.193,-6.532,-7.1667,-7.5368,-7.4534,-7.2305,-6.9975,-6.7788,-6.6882,0.0,0.0,0.0,0.0,0.0,0.0,0.0,0.0,0.0,0.0,0.0,0.0,0.0,0.0,0.0,0.0,0.0,0.0,0.0,0.0,0.0,0.0,0.0,0.0,0.0,0.0,0.0,0.0,0.0,0.0,0.0,0.0,0.0,0.0,0.0,0.0,0.0,0.0,0.0,0.0,0.0,0.0,0.0,0.0,0.0,0.0,0.0,0.0,0.0,0.0,0.0,0.0,0.0,0.0,0.0,0.0,0.0,0.0,0.0,-8.1485,0.0,0.0,0.0,0.0,0.0,0.0,0.0,0.0,0.0,0.0,0.0,0.0,0.0,0.0,0.0,0.0,0.0,0.0,0.0,0.0,0.0,0.0,0.0,0.0,0.0,0.0,0.0,0.0,0.0,0.0,0.0,0.0,0.0,0.0,0.0,0.0,0.0,0.0,0.0,0.0,0.0,-5.436,-5.9,-6.2869,-6.5936,-6.9802,-7.204,-7.1722,-7.0084,-6.7803,-6.4797,-6.4526,0.0,0.0,0.0,0.0,0.0,0.0,0.0,0.0,0.0,0.0,0.0,0.0,0.0,0.0,0.0,0.0,0.0,0.0,0.0,0.0,0.0,0.0,0.0,0.0,0.0,0.0,0.0,0.0,0.0,0.0,0.0,0.0,0.0,0.0,0.0,0.0,0.0,0.0,0.0,0.0,0.0,0.0,0.0,0.0,0.0,0.0,0.0,0.0,0.0,0.0,0.0,0.0,0.0,0.0,0.0,0.0,0.0,0.0,0.0,0.0,0.0,0.0,0.0,0.0,0.0,0.0,0.0,0.0,0.0,0.0,0.0,0.0,0.0,0.0,0.0,0.0,0.0,0.0,0.0,0.0,0.0,0.0,0.0,0.0,0.0,0.0,0.0,0.0,0.0,0.0,0.0,0.0,0.0,0.0,0.0,0.0,0.0,0.0,0.0,0.0,0.0,-5.8794,-6.3073,-6.5943,-6.7814,-6.9128,-6.9656,-6.9035,-6.6508,-6.4288,-6.2929,0.0,0.0,0.0,0.0,0.0,0.0,0.0,0.0,0.0,0.0,0.0,0.0,0.0,0.0,0.0,0.0,0.0,0.0,0.0,0.0,0.0,0.0,0.0,0.0,0.0,0.0,0.0,0.0,0.0,0.0,0.0,0.0,0.0,0.0,0.0,0.0,0.0,0.0,0.0,0.0,0.0,0.0,0.0,0.0,0.0,0.0,0.0,0.0,0.0,0.0,0.0,0.0,0.0,0.0,0.0,0.0,0.0,0.0,0.0,0.0,0.0,0.0,0.0,0.0,0.0,0.0,0.0,0.0,0.0,0.0,0.0,0.0,0.0,0.0,0.0,0.0,0.0,0.0,0.0,0.0,0.0,0.0,0.0,0.0,0.0,0.0,0.0,0.0,0.0,0.0,0.0,0.0,0.0,0.0,0.0,0.0,0.0,0.0,0.0,0.0,0.0,0.0,-5.534,-6.1556,-6.6128,-6.826,-6.7952,-6.7014,-6.5582,-6.3208,-6.0705,-5.8197,0.0,0.0,0.0,0.0,0.0,0.0,0.0,0.0,0.0,0.0,0.0,0.0,0.0,0.0,0.0,0.0,0.0,0.0,0.0,0.0,0.0,0.0,0.0,0.0,0.0,0.0,0.0,0.0,0.0,0.0,0.0,0.0,0.0,0.0,0.0,0.0,0.0,0.0,0.0,0.0,0.0,0.0,0.0,0.0,0.0,0.0,0.0,0.0,0.0,0.0,0.0,0.0,0.0,0.0,0.0,0.0,0.0,0.0,0.0,0.0,0.0,0.0,0.0,0.0,0.0,0.0,0.0,0.0,0.0,0.0,0.0,0.0,0.0,0.0,0.0,0.0,0.0,0.0,0.0,0.0,0.0,0.0,0.0,0.0,0.0,0.0,0.0,0.0,0.0,0.0,0.0,0.0,0.0,0.0,0.0,0.0,0.0,0.0,0.0,0.0,0.0,0.0,-5.5319,-6.149,-6.6087,-6.8279,-6.7225,-6.5669,-6.3931,-6.116,-5.8241,-5.5229,0.0,0.0,0.0,0.0,0.0,0.0,0.0,0.0,0.0,0.0,0.0,0.0,0.0,0.0,0.0,0.0,0.0,0.0,0.0,0.0,0.0,0.0,0.0,0.0,0.0,0.0,0.0,0.0,0.0,0.0,0.0,0.0,0.0,0.0,0.0,0.0,0.0,0.0,0.0,0.0,0.0,0.0,0.0,0.0,0.0,0.0,0.0,0.0,0.0,0.0,0.0,0.0,0.0,0.0,0.0,0.0,0.0,0.0,0.0,0.0,0.0,0.0,0.0,0.0,0.0,0.0,0.0,0.0,0.0,0.0,0.0,0.0,0.0,0.0,0.0,0.0,0.0,0.0,0.0,0.0,0.0,0.0,0.0,0.0,0.0,0.0,0.0,0.0,0.0,0.0,0.0,0.0,0.0,0.0,0.0,0.0,0.0,0.0,0.0,0.0,0.0,0.0,-6.1571,-6.4484,-6.62,-6.803,-6.7295,-6.6125,-6.4823,-6.0781,-5.7379,0.0,0.0,0.0,0.0,0.0,0.0,0.0,0.0,0.0,0.0,0.0,0.0,0.0,0.0,0.0,0.0,0.0,0.0,0.0,0.0,0.0,0.0,0.0,0.0,0.0,0.0,0.0,0.0,0.0,0.0,0.0,0.0,0.0,0.0,0.0,0.0,0.0,0.0,0.0,0.0,0.0,0.0,0.0,0.0,0.0,0.0,0.0,0.0,0.0,0.0,0.0,0.0,0.0,0.0,0.0,0.0,0.0,0.0,0.0,0.0,0.0,0.0,0.0,0.0,0.0,0.0,0.0,0.0,0.0,0.0,0.0,0.0,0.0,0.0,0.0,0.0,0.0,0.0,0.0,0.0,0.0,0.0,0.0,0.0,0.0,0.0,0.0,0.0,0.0,0.0,0.0,0.0,0.0,0.0,0.0,0.0,0.0,0.0,0.0,0.0,0.0,0.0,0.0,-5.8955,-6.3022,-6.6126,0.0,-6.6737,-6.4842,-6.2544,-5.8462,-5.4662,-5.1405,0.0,0.0,0.0,0.0,0.0,0.0,0.0,0.0,0.0,0.0,0.0,0.0,0.0,0.0,0.0,0.0,0.0,0.0,0.0,0.0,0.0,0.0,0.0,0.0,0.0,0.0,0.0,0.0,0.0,0.0,0.0,0.0,0.0,0.0,0.0,0.0,0.0,0.0,0.0,0.0,0.0,0.0,0.0,0.0,0.0,0.0,0.0,0.0,0.0,0.0,0.0,0.0,0.0,0.0,0.0,0.0,0.0,0.0,0.0,0.0,0.0,0.0,0.0,0.0,0.0,0.0,0.0,0.0,0.0,0.0,0.0,0.0,0.0,0.0,0.0,0.0,0.0,0.0,0.0,0.0,0.0,0.0,0.0,0.0,0.0,0.0,0.0,0.0,0.0,0.0,0.0,0.0,0.0,0.0,0.0,0.0,0.0,0.0,0.0,0.0,0.0,0.0,0.0,-6.2665,-6.608,0.0,-6.6492,-6.4289,-6.1801,-5.7539,-5.3589,-5.027,0.0,0.0,0.0,0.0,0.0,0.0,0.0,0.0,0.0,0.0,0.0,0.0,0.0,0.0,0.0,0.0,0.0,0.0,0.0,0.0,0.0,0.0,0.0,0.0,0.0,0.0,0.0,0.0,0.0,0.0,0.0,0.0,0.0,0.0,0.0,0.0,0.0,0.0,0.0,0.0,0.0,0.0,0.0,0.0,0.0,0.0,0.0,0.0,0.0,0.0,0.0,0.0,0.0,0.0,0.0,0.0,0.0,0.0,0.0,0.0,0.0,0.0,0.0,0.0,0.0,0.0,0.0,0.0,0.0,0.0,0.0,0.0,0.0,0.0,0.0,0.0,0.0,0.0,0.0,0.0,0.0,0.0,0.0,0.0,0.0,0.0,0.0,0.0,0.0,0.0,0.0,0.0,0.0,0.0,0.0,0.0,0.0,0.0,0.0,0.0,0.0,0.0,0.0,-6.3415,-6.6138,-6.8018,-6.649,-6.4434,-6.2258,-5.7617,-5.3722,-5.1191,-4.8532,0.0,0.0,0.0,0.0,0.0,0.0,0.0,0.0,0.0,0.0,0.0,0.0,0.0,0.0,0.0,0.0,0.0,0.0,0.0,0.0,0.0,0.0,0.0,0.0,0.0,0.0,0.0,0.0,0.0,0.0,0.0,0.0,0.0,0.0,0.0,0.0,0.0,0.0,0.0,0.0,0.0,0.0,0.0,0.0,0.0,0.0,0.0,0.0,0.0,0.0,0.0,0.0,0.0,0.0,0.0,0.0,0.0,0.0,0.0,0.0,0.0,0.0,0.0,0.0,0.0,0.0,0.0,0.0,0.0,0.0,0.0,0.0,0.0,0.0,0.0,0.0,0.0,0.0,0.0,0.0,0.0,0.0,0.0,0.0,0.0,0.0,0.0,0.0,0.0,0.0,0.0,0.0,0.0,0.0,0.0,0.0,0.0,0.0,0.0,0.0,0.0,0.0,-6.4563,-6.6836,-6.8091,-6.649,-6.4107,-6.112,-5.6266,-5.2354,-4.9956,-4.7031,0.0,0.0,0.0,0.0,0.0,0.0,0.0,0.0,0.0,0.0,0.0,0.0,0.0,0.0,0.0,0.0,0.0,0.0,0.0,0.0,0.0,0.0,0.0,0.0,0.0,0.0,0.0,0.0,0.0,0.0,0.0,0.0,0.0,0.0,0.0,0.0,0.0,0.0,0.0,0.0,0.0,0.0,0.0,0.0,0.0,0.0,0.0,0.0,0.0,0.0,0.0,0.0,0.0,0.0,0.0,0.0,0.0,0.0,0.0,0.0,0.0,0.0,0.0,0.0,0.0,0.0,0.0,0.0,0.0,0.0,0.0,0.0,0.0,0.0,0.0,0.0,0.0,0.0,0.0,0.0,0.0,0.0,0.0,0.0,0.0,0.0,0.0,0.0,0.0,0.0,0.0,0.0,0.0,0.0,0.0,0.0,0.0,0.0,0.0,0.0,0.0,0.0,-6.2976,-6.5572,-6.7641,-6.6349,-6.3885,-6.0409,-5.624,-5.2559,-4.9557,-4.7839,0.0,0.0,0.0,0.0,0.0,0.0,0.0,0.0,0.0,0.0,0.0,0.0,0.0,0.0,0.0,0.0,0.0,0.0,0.0,0.0,0.0,0.0,0.0,0.0,0.0,0.0,0.0,0.0,0.0,0.0,0.0,0.0,0.0,0.0,0.0,0.0,0.0,0.0,0.0,0.0,0.0,0.0,0.0,0.0,0.0,0.0,0.0,0.0,0.0,0.0,0.0,0.0,0.0,0.0,0.0,0.0,0.0,0.0,0.0,0.0,0.0,0.0,0.0,0.0,0.0,0.0,0.0,0.0,0.0,0.0,0.0,0.0,0.0,0.0,0.0,0.0,0.0,0.0,0.0,0.0,0.0,0.0,0.0,0.0,0.0,0.0,0.0,0.0,0.0,0.0,0.0,0.0,0.0,0.0,0.0,0.0,0.0,0.0,0.0,0.0,0.0,0.0,0.0,-6.4028,-6.7188,-6.6203,-6.3777,-5.9996,-5.6797,-5.3397,-4.9611,0.0,0.0,0.0,0.0,0.0,0.0,0.0,0.0,0.0,0.0,0.0,0.0,0.0,0.0,0.0,0.0,0.0,0.0,0.0,0.0,0.0,0.0,0.0,0.0,0.0,0.0,0.0,0.0,0.0,0.0,0.0,0.0,0.0,0.0,0.0,0.0,0.0,0.0,0.0,0.0,0.0,0.0,0.0,0.0,0.0,0.0,0.0,0.0,0.0,0.0,0.0,0.0,0.0,0.0,0.0,0.0,0.0,0.0,0.0,0.0,0.0,0.0,0.0,0.0,0.0,0.0,0.0,0.0,0.0,0.0,0.0,0.0,0.0,0.0,0.0,0.0,0.0,0.0,0.0,0.0,0.0,0.0,0.0,0.0,0.0,0.0,0.0,0.0,0.0,0.0,0.0,0.0,0.0,0.0,0.0,0.0,0.0,0.0,0.0,0.0,0.0,0.0,0.0,0.0,-6.4782,-6.7494,-6.6325,-6.3777,-5.9996,-5.6797,-5.3397,-4.9611,0.0,0.0,0.0,0.0,0.0,0.0,0.0,0.0,0.0,0.0,0.0,0.0,0.0,0.0]}],[{"header":{"parameterUnit":"kt","parameterCategory":2,"dx":1,"dy":1,"la1":29.285339999999998,"la2":30.599998999999997,"lo1":-89.70041500000002,"lo2":-87.6738589999976,"nx":112,"ny":82,"refTime":"2022-10-16T12:00:00:Z","depth":0,"parameterNumber":2,"parameterNumberName":"V-component_of_WINDS"},"data":[8.3934,8.5315,0.0,8.3124,8.2334,0.0,7.5501,0.0,7.6154,0.0,0.0,0.0,0.0,7.664,7.4864,7.4198,7.3646,7.3445,0.0,7.8487,0.0,0.0,0.0,0.0,0.0,0.0,0.0,0.0,0.0,0.0,0.0,0.0,10.8738,10.9217,10.9386,10.9669,11.0024,10.9499,10.9227,10.9265,10.8588,10.8278,10.8278,10.8278,10.8278,10.8278,10.8278,10.8278,10.8278,10.8278,10.8278,10.8278,10.8278,10.8278,10.8278,10.8278,10.8278,10.8278,10.8486,10.8523,10.851,10.853,10.8425,10.834,10.8576,10.8918,10.9305,10.9537,10.9831,11.0024,11.0024,11.0024,11.0024,11.0024,11.0024,11.0024,11.0024,11.0024,11.0024,11.0024,11.0024,11.0024,11.0024,11.0024,11.0024,11.0024,11.0024,11.0024,11.0024,10.9692,10.944,10.9248,10.8813,10.8463,10.8282,10.8278,10.8278,10.8278,10.8278,10.8278,10.8278,10.8278,10.8278,10.8278,10.8278,10.8278,10.8278,10.8278,10.8,10.7439,10.7439,10.714,0.0,0.0,8.1847,7.9027,0.0,0.0,0.0,0.0,0.0,0.0,0.0,0.0,0.0,7.7022,7.7901,7.6757,7.7769,7.8649,0.0,0.0,0.0,0.0,0.0,0.0,0.0,0.0,0.0,0.0,0.0,0.0,0.0,10.8426,10.8675,10.9031,10.9343,10.9649,10.9898,10.9564,10.9399,10.9352,10.8729,10.8407,10.8388,10.8286,10.8278,10.8278,10.8278,10.8278,10.8278,10.8278,10.8278,10.8278,10.8278,10.8278,10.8278,10.8278,10.8278,10.8278,10.8486,10.8515,10.8573,10.8772,10.8648,10.8486,10.8748,10.9131,10.943,10.9604,10.9835,11.0024,11.0024,11.0024,11.0024,11.0024,11.0024,11.0024,11.0024,11.0024,11.0024,11.0024,11.0024,11.0024,11.0024,11.0024,11.0024,11.0024,11.0024,11.0024,11.0024,10.9797,10.9551,10.9258,10.8902,10.8565,10.8303,10.8278,10.8278,10.8278,10.8278,10.8278,10.8278,10.8278,10.8278,10.8278,10.8278,10.8278,10.8278,10.8278,10.8278,10.8278,10.8278,10.8278,0.0,0.0,0.0,7.3933,0.0,0.0,0.0,0.0,7.1591,0.0,0.0,0.0,7.9965,8.049,8.0915,8.1352,8.1679,0.0,0.0,0.0,0.0,0.0,0.0,0.0,0.0,0.0,0.0,0.0,0.0,0.0,10.7904,10.8278,10.8369,10.8653,10.9031,10.9352,10.9649,10.9649,10.9649,10.9649,10.8993,10.8685,10.8669,10.8407,10.8282,10.8282,10.8261,10.8278,10.8278,10.8278,10.8278,10.8278,10.8278,10.8278,10.8278,10.8278,10.8278,10.8278,10.8278,10.8272,10.8412,10.8989,10.8956,10.8735,10.9112,10.9433,10.9645,10.9645,10.9835,11.0024,11.0024,11.0024,11.0024,11.0024,11.0024,11.0024,11.0024,11.0024,11.0024,11.0024,11.0024,11.0024,11.0024,11.0024,11.0024,11.0024,11.0024,11.0024,11.0024,10.98,10.9564,10.9268,10.8916,10.8582,10.8323,10.8261,10.8278,10.8278,10.8278,10.8278,10.8278,10.8278,10.8278,10.8278,10.8278,10.8278,10.8278,10.8278,10.8278,10.8278,10.8278,10.8278,6.8929,7.1791,7.5448,7.4033,7.6108,7.7905,7.5545,7.4272,7.4028,0.0,0.0,0.0,0.0,0.0,7.9433,8.1186,0.0,8.6623,0.0,0.0,0.0,0.0,0.0,0.0,0.0,0.0,0.0,0.0,0.0,0.0,10.8054,10.8278,10.8369,10.8653,10.9031,10.9352,10.9649,10.9649,10.9649,10.9649,10.9278,10.9105,10.9055,10.8722,10.8565,10.8548,10.8348,10.8278,10.8278,10.8278,10.8278,10.8278,10.8278,10.8278,10.8278,10.8278,10.8278,10.8278,10.8486,10.8578,10.859,10.8745,10.8729,10.8717,10.9137,10.942,10.9683,10.9873,10.9948,11.0024,11.0024,11.0024,11.0024,11.0024,11.0024,11.0024,11.0024,11.0024,11.0024,11.0024,11.0024,11.0024,11.0024,11.0024,11.0024,11.0024,11.0024,11.0024,11.0024,10.9946,10.9806,10.957,10.9278,10.8929,10.8599,10.8387,10.8278,10.8278,10.8278,10.8278,10.8278,10.8278,10.8278,10.8278,10.8278,10.8278,10.8278,10.8278,10.8278,10.8278,10.8278,10.8278,6.7542,7.1197,7.5857,7.4889,7.7872,8.0145,7.6896,7.5409,7.4672,0.0,0.0,0.0,0.0,0.0,0.0,0.0,8.7278,0.0,0.0,0.0,0.0,0.0,0.0,0.0,0.0,0.0,0.0,0.0,0.0,10.4838,10.8091,10.8278,10.8346,10.848,10.8993,10.9307,10.9471,10.9679,10.9797,10.9797,10.9551,10.9386,10.9407,10.8878,10.8653,10.8638,10.8406,10.8689,10.9346,10.9346,10.9346,10.9325,10.9325,10.8876,10.8278,10.8278,10.8278,10.8278,10.8448,10.8552,10.8637,10.852,10.8705,10.8968,10.9307,10.9607,10.9835,10.9986,11.0024,11.0024,11.0024,11.0024,11.0024,11.0024,11.0024,11.0024,11.0024,11.0024,11.0024,11.0024,11.0024,11.0024,11.0024,11.0024,11.0024,11.0024,11.0024,11.0024,11.0024,11.0024,10.9942,10.9664,10.9416,10.9105,10.87,10.8426,10.8278,10.8278,10.8278,10.8278,10.8278,10.8278,10.8278,10.8278,10.8278,10.8278,10.8278,10.8278,10.8278,10.8278,10.8278,10.8278,6.8473,7.1188,7.5377,7.5303,7.7823,7.9531,7.6445,0.0,7.5018,7.3352,0.0,0.0,0.0,0.0,0.0,0.0,0.0,0.0,0.0,0.0,0.0,0.0,0.0,0.0,0.0,0.0,10.5917,10.8534,10.5763,10.5212,10.8091,10.8278,10.8278,10.8278,10.8922,10.9227,10.9227,10.9749,11.0024,11.0024,10.9797,10.9674,10.9664,10.9064,10.8775,10.8715,10.8407,10.9275,11.0804,11.0804,11.0804,11.0842,11.1007,11.0052,10.854,10.8353,10.8411,10.8561,10.8561,10.8841,10.9107,10.8707,10.8972,10.9438,10.9501,10.9714,10.9986,11.0024,11.0024,11.0024,11.0024,11.0024,11.0024,11.0024,11.0024,11.0024,11.0024,11.0024,11.0024,11.0024,11.0024,11.0024,11.0024,11.0024,11.0024,11.0024,11.0024,11.0024,11.0024,11.0024,10.9943,10.9725,10.9448,10.9136,10.8795,10.848,10.8306,10.8306,10.8282,10.8278,10.8278,10.8278,10.8278,10.8278,10.8278,10.8278,10.8278,10.8278,10.8278,10.8278,10.8278,10.8278,6.4311,6.6773,7.0482,7.0866,7.2912,7.575,0.0,0.0,0.0,0.0,0.0,0.0,0.0,0.0,0.0,0.0,0.0,0.0,0.0,0.0,0.0,0.0,0.0,0.0,0.0,10.9336,10.8958,10.9109,10.8022,10.7605,10.8241,10.8278,10.8278,10.8278,10.8922,10.9227,10.9227,10.9749,11.0024,11.0024,10.9947,10.9944,10.9943,10.9611,10.9305,10.9091,10.873,10.9419,11.0804,11.0804,11.0804,11.0954,11.2294,11.1824,11.0121,10.8781,10.9142,11.0323,11.0323,11.1234,11.2215,11.0776,11.0372,11.0306,10.9172,10.9221,10.9759,10.9948,11.0024,11.0024,11.0024,11.0024,11.0024,11.0024,11.0024,11.0024,11.0024,11.0024,11.0024,11.0024,11.0024,11.0024,11.0024,11.0024,11.0024,11.0024,11.0024,11.0024,11.0024,11.0024,10.9986,10.9945,10.9692,10.952,10.944,10.8918,10.8578,10.8578,10.8406,10.8278,10.8278,10.8278,10.8278,10.8278,10.8278,10.8278,10.8278,10.8278,10.8278,10.8278,10.8278,10.8278,6.5404,6.8059,7.1377,7.1489,7.4331,0.0,0.0,7.9799,8.1396,8.4664,8.3865,8.3884,8.8051,0.0,0.0,0.0,0.0,0.0,0.0,0.0,0.0,0.0,0.0,0.0,0.0,10.9901,10.9696,10.9463,10.8819,10.8407,10.8261,10.8278,10.8326,10.8463,10.898,10.9297,10.9448,10.9808,11.0024,11.0024,11.0024,11.0024,11.0024,10.9745,10.957,10.9432,10.8878,11.0044,11.2252,11.2144,11.254,11.3251,11.3304,11.231,11.0585,10.8893,10.8822,10.9554,10.9528,11.0634,11.1761,11.0094,11.011,11.05,10.9084,10.8901,10.9259,10.9706,10.991,11.0024,11.0024,11.0024,11.0024,11.0024,11.0024,11.0024,11.0024,11.0024,11.0024,11.0024,11.0024,11.0024,11.0024,11.0024,11.0024,11.0024,11.0024,11.0024,11.0024,11.0024,11.0024,11.0024,10.9797,10.9583,10.9456,10.8956,10.8611,10.8462,10.8366,10.8278,10.8278,10.8278,10.8278,10.8278,10.8278,10.8278,10.8278,10.8278,10.8278,10.8278,10.8278,10.8278,6.7107,7.0051,7.3184,7.3297,7.6496,0.0,7.9379,8.1089,8.3181,0.0,8.4782,8.5828,0.0,0.0,0.0,0.0,0.0,0.0,0.0,0.0,0.0,0.0,0.0,0.0,0.0,10.9808,10.9679,10.9616,10.9098,10.8611,10.8282,10.8278,10.8369,10.8653,10.9031,10.9352,10.9649,10.9898,11.0024,11.0024,11.0024,11.0024,11.0024,10.98,10.9674,10.96,10.9018,11.0651,11.3684,11.3424,11.426,11.5494,11.3902,11.2294,11.0591,10.8914,10.8486,10.8764,10.877,10.9853,11.1018,10.9325,10.9699,11.0521,10.9047,10.8635,10.8761,10.932,10.9683,10.9948,10.9986,11.0024,11.0024,11.0024,11.0024,11.0024,11.0024,11.0024,11.0024,11.0024,11.0024,11.0024,11.0024,11.0024,11.0024,11.0024,11.0024,11.0024,11.0024,11.0024,11.0024,11.0024,10.9808,10.9649,10.9432,10.8993,10.8675,10.8463,10.8363,10.8278,10.8278,10.8278,10.8278,10.8278,10.8278,10.8278,10.8278,10.8278,10.8278,10.8278,10.8278,10.8278,6.5275,6.8157,7.1628,7.3103,7.4319,0.0,8.5794,8.6817,8.8009,0.0,9.6667,9.68,0.0,0.0,0.0,0.0,0.0,0.0,0.0,0.0,0.0,0.0,0.0,0.0,0.0,10.9986,10.9896,10.9659,10.9343,10.8913,10.8303,10.8278,10.8369,10.8653,10.9031,10.9352,10.9649,10.9898,11.0024,11.0024,11.0024,11.0024,11.0024,10.9986,10.9851,10.9606,10.9307,11.0893,11.3684,11.3424,11.426,11.5494,11.3939,11.2279,11.0585,10.8897,10.9217,11.0547,11.0553,11.1615,11.2765,11.1045,11.0655,11.0505,10.8802,10.8486,10.8685,10.8751,10.9189,10.9721,10.9948,11.0024,11.0024,11.0024,11.0024,11.0024,11.0024,11.0024,11.0024,11.0024,11.0024,11.0024,11.0024,11.0024,11.0024,11.0024,11.0024,11.0024,11.0024,11.0024,11.0024,11.0024,10.9986,10.9946,10.9943,10.9485,10.9163,10.914,10.8606,10.8278,10.8278,10.8278,10.8278,10.8278,10.8278,10.8278,10.8278,10.8278,10.8278,10.8278,10.8278,10.8278,6.7999,7.043,7.3013,7.5112,0.0,0.0,8.6314,8.8534,9.1091,0.0,9.8538,9.9136,0.0,0.0,0.0,0.0,0.0,0.0,0.0,0.0,0.0,0.0,0.0,0.0,0.0,0.0,10.9985,10.9856,10.9478,10.8713,10.7433,10.7076,10.7093,10.7509,10.8645,10.9456,10.9854,10.9946,11.0024,11.0024,11.0024,11.0024,11.0024,11.0024,10.9946,10.9851,10.9588,11.118,11.3834,11.258,11.296,11.4148,11.2487,11.1424,11.0605,10.8897,10.871,10.9329,10.9304,11.0441,11.1562,10.9886,11.0671,11.1755,10.9063,10.9042,10.9719,10.888,10.8856,10.9197,10.9658,10.9914,11.0024,11.0024,11.0024,11.0024,11.0024,11.0024,11.0024,11.0024,11.0024,11.0024,11.0024,11.0024,11.0024,11.0024,11.0024,11.0024,11.0024,11.0024,11.0024,11.0024,11.0024,10.9946,10.9803,10.9463,10.9151,10.8916,10.8499,10.8278,10.8278,10.8278,10.8278,10.8278,10.8278,10.8278,10.8278,10.8278,10.8278,10.8278,10.8278,10.8278,7.1196,0.0,0.0,0.0,0.0,0.0,8.9706,9.2084,9.4591,9.9006,9.9902,10.0612,10.2989,10.3791,0.0,0.0,0.0,0.0,0.0,0.0,0.0,0.0,0.0,0.0,0.0,0.0,0.0,0.0,10.96,10.8588,10.6827,10.6703,10.6902,10.7412,10.8595,10.9492,11.0024,11.0024,11.0024,11.0024,11.0024,11.0024,11.0024,11.0024,11.0024,10.9986,10.9742,11.1062,11.3294,11.1896,11.1814,11.2503,11.1295,11.0531,10.9949,10.871,10.8278,10.8278,10.8278,10.908,10.9918,10.8652,10.9923,11.1494,10.8988,10.9117,10.9898,10.8836,10.8602,10.8811,10.9379,10.9768,11.0024,11.0024,11.0024,11.0024,11.0024,11.0024,11.0024,11.0024,11.0024,11.0024,11.0024,11.0024,11.0024,11.0024,11.0024,11.0024,11.0024,11.0024,11.0024,11.0024,11.0024,10.9944,10.9745,10.9448,10.914,10.8847,10.8463,10.8278,10.8278,10.8278,10.8278,10.8278,10.8278,10.8278,10.8278,10.8278,10.8278,10.8278,10.8278,10.8278,0.0,0.0,0.0,8.5419,8.7836,9.1094,9.9024,9.9534,9.9249,10.2595,10.3268,10.3305,10.338,10.4764,10.5885,0.0,0.0,0.0,0.0,0.0,0.0,0.0,0.0,0.0,0.0,0.0,0.0,0.0,10.9752,10.8786,10.6799,10.7894,10.8758,10.9179,10.9227,10.9492,11.0024,11.0024,11.0024,11.0024,11.0024,11.0024,11.0024,11.0024,11.0024,10.9986,10.9742,11.0425,11.1675,11.1589,11.13,11.0879,11.0809,10.9799,10.8353,10.8278,10.8278,10.8278,10.8278,10.8315,10.8315,10.8278,10.8315,10.839,10.8315,10.8315,10.8336,10.8282,10.8481,10.8774,10.9152,10.9616,11.0024,11.0024,11.0024,11.0024,11.0024,11.0024,11.0024,11.0024,11.0024,11.0024,11.0024,11.0024,11.0024,11.0024,11.0024,11.0024,11.0024,11.0024,11.0024,11.0024,11.0024,11.0024,10.9986,10.9526,10.9227,10.9217,10.8602,10.8278,10.8278,10.8278,10.8278,10.8278,10.8278,10.8278,10.8278,10.8278,10.8278,10.8278,10.8278,10.8278,8.0183,8.3027,8.6331,9.2484,9.5053,9.7318,10.2116,10.3472,10.4255,10.6228,10.6633,10.6334,10.5287,10.569,10.5829,0.0,0.0,0.0,0.0,0.0,0.0,0.0,0.0,0.0,0.0,0.0,0.0,0.0,0.0,0.0,10.7056,10.7067,10.7163,10.7304,10.7477,10.8362,10.9986,11.0024,11.0024,11.0024,11.0024,11.0024,11.0024,11.0024,11.0024,11.0024,10.9942,10.9925,11.0022,11.0022,10.9656,10.9122,10.9122,10.8785,10.8278,10.8278,10.8278,10.8278,10.8278,10.8278,10.8278,10.8278,10.9026,10.9757,10.8615,10.9063,10.9699,10.8577,10.8313,10.8477,10.8788,10.9163,10.9594,10.9944,11.0024,11.0024,11.0024,11.0024,11.0024,11.0024,11.0024,11.0024,11.0024,11.0024,11.0024,11.0024,11.0024,11.0024,11.0024,11.0024,11.0024,11.0024,11.0024,11.0024,11.0024,10.9725,10.9402,10.9276,10.8798,10.8445,10.8261,10.8278,10.8278,10.8278,10.8278,10.8278,10.8278,10.8278,10.8278,10.8278,10.8278,10.8278,8.4184,8.7011,9.013,9.737,10.0255,10.2139,10.5295,10.6727,10.7584,10.8256,10.8407,10.79,10.6262,10.6155,10.562,10.3404,0.0,0.0,0.0,0.0,0.0,0.0,0.0,0.0,0.0,0.0,0.0,0.0,0.0,10.8983,10.7208,10.7348,10.7181,10.6488,10.7319,10.8433,10.9858,10.9985,11.0024,11.0024,11.0024,11.0024,11.0024,11.0024,11.0024,10.9986,10.9379,10.9169,10.9227,10.9227,10.8842,10.8278,10.8278,10.8278,10.8278,10.8278,10.8278,10.8278,10.8278,10.8278,10.8278,10.8278,10.8988,10.9683,10.8577,10.9026,10.9661,10.8577,10.8278,10.8351,10.8616,10.8963,10.9361,10.9786,10.9948,11.0024,11.0024,11.0024,11.0024,11.0024,11.0024,11.0024,11.0024,11.0024,11.0024,11.0024,11.0024,11.0024,11.0024,11.0024,11.0024,11.0024,11.0024,11.0024,11.0024,10.9794,10.9506,10.9248,10.8889,10.8548,10.8299,10.8278,10.8278,10.8278,10.8278,10.768,10.6521,10.6521,10.6521,10.6558,10.7156,10.7418,8.6106,8.9295,9.2521,10.046,10.3656,10.5633,10.8588,10.9248,10.9163,10.8745,10.8653,10.8127,10.6326,10.6112,10.5224,10.2191,0.0,0.0,0.0,0.0,0.0,0.0,0.0,0.0,0.0,0.0,0.0,0.0,11.0024,10.9221,10.7373,10.8754,10.8793,10.6922,10.8666,10.9649,10.9649,10.9822,10.9835,10.9759,10.9835,10.9835,10.9759,10.9759,10.9797,10.9797,10.8202,10.8182,10.9248,10.9238,10.888,10.8282,10.8261,10.8278,10.8278,10.8278,10.8278,10.8278,10.8278,10.8278,10.8278,10.8278,10.8278,10.8278,10.8278,10.8278,10.8278,10.8278,10.8278,10.8331,10.8578,10.8942,10.9323,10.9558,10.9835,11.0024,11.0024,11.0024,11.0024,11.0024,11.0024,11.0024,11.0024,11.0024,11.0024,11.0024,11.0024,11.0024,11.0024,11.0024,11.0024,11.0024,11.0024,11.0024,11.0024,10.9797,10.952,10.9248,10.8902,10.8527,10.8149,10.8241,10.8203,10.8016,10.8016,10.6483,10.3418,10.3418,10.3418,10.3455,10.5063,10.5868,9.21,9.6948,10.0455,10.6493,10.8309,10.8789,10.9405,10.9551,10.9378,10.8767,10.8653,10.8203,10.6778,10.571,10.4333,10.2273,0.0,0.0,0.0,0.0,0.0,0.0,0.0,0.0,0.0,0.0,0.0,0.0,11.0024,10.9796,10.9298,10.9514,10.941,10.8913,10.9367,10.9649,10.9649,10.8645,10.7481,10.6266,10.7519,10.7481,10.6266,10.6266,10.6949,10.8126,10.7671,10.8255,10.9506,10.9307,10.8955,10.853,10.8366,10.8278,10.8278,10.8278,10.8278,10.8278,10.8278,10.8278,10.8278,10.8278,10.8278,10.8278,10.8278,10.8278,10.8278,10.8278,10.8278,10.8265,10.8351,10.8781,10.9247,10.933,10.9683,11.0024,11.0024,11.0024,11.0024,11.0024,11.0024,11.0024,11.0024,11.0024,11.0024,11.0024,11.0024,11.0024,11.0024,11.0024,11.0024,11.0024,11.0024,11.0024,11.0024,10.9946,10.9738,10.9258,10.9163,10.8314,10.6599,10.7642,10.7119,10.4689,10.4651,10.424,10.3418,10.3418,10.3418,10.3455,10.3866,10.4746,9.1832,9.7891,10.3339,10.8692,11.0024,10.9985,10.9849,10.98,10.9679,10.9183,10.9098,10.865,10.7173,10.564,10.405,10.2472,10.0907,0.0,0.0,0.0,0.0,0.0,0.0,0.0,0.0,0.0,0.0,0.0,10.9607,11.0024,11.0024,10.9898,10.98,10.98,10.9079,10.8699,10.8699,10.7173,10.5886,10.4975,10.5924,10.5886,10.4975,10.4975,10.5506,10.638,10.638,10.7616,10.96,10.9372,10.9006,10.8659,10.8387,10.8278,10.8278,10.8278,10.8278,10.8278,10.8278,10.8278,10.8278,10.8278,10.8278,10.8278,10.8278,10.8278,10.8278,10.8278,10.8278,10.8278,10.8278,10.8761,10.9244,10.9229,10.9626,11.0024,11.0024,11.0024,11.0024,11.0024,11.0024,11.0024,11.0024,11.0024,11.0024,11.0024,11.0024,11.0024,11.0024,11.0024,11.0024,11.0024,11.0024,11.0024,11.0024,10.9341,10.8746,10.8338,10.7494,10.6416,10.5045,10.5736,10.5287,10.3455,10.267,10.1959,10.1286,10.1286,10.1286,10.1286,10.1997,10.2802,9.0085,9.6446,10.3532,10.8639,10.9944,10.9947,10.9947,10.9986,10.9944,10.9679,10.9664,10.9261,10.7777,10.6108,10.4467,10.3038,10.1368,10.0153,0.0,0.0,0.0,0.0,0.0,0.0,0.0,0.0,0.0,0.0,10.9075,11.0024,11.0024,11.0024,10.991,10.9683,10.824,10.7367,10.7177,10.5469,10.4747,10.4975,10.4519,10.4292,10.4292,10.4292,10.4405,10.4633,10.4822,10.6589,10.9323,10.924,10.8994,10.87,10.8406,10.8278,10.8278,10.8278,10.8278,10.8278,10.8278,10.8278,10.8278,10.8278,10.8278,10.8278,10.8278,10.8278,10.8278,10.8278,10.8278,10.8261,10.8326,10.8778,10.9231,10.9282,10.9683,11.0024,11.0024,11.0024,11.0024,11.0024,11.0024,11.0024,11.0024,11.0024,11.0024,11.0024,11.0024,11.0024,11.0024,11.0024,11.0024,11.0024,10.9835,10.9759,10.9986,10.824,10.7159,10.7091,10.528,10.4016,10.3492,10.3477,10.3253,10.2842,10.1382,9.9923,9.8576,9.8576,9.8426,9.8277,9.9828,10.0558,9.7259,10.1445,10.47,10.8435,10.952,10.9683,10.9683,10.9856,10.9944,10.9679,10.98,10.9869,10.9566,10.8123,10.6453,10.4785,10.3115,10.152,10.0115,0.0,0.0,0.0,0.0,0.0,0.0,0.0,0.0,0.0,0.0,11.0024,11.0024,11.0024,10.9379,10.7974,10.7633,10.6797,10.5431,10.3722,10.357,10.4937,10.2128,10.0799,10.0799,10.0799,10.1558,10.2963,10.4139,10.585,10.7887,10.8493,10.8916,10.9093,10.85,10.8278,10.8278,10.8278,10.8278,10.8278,10.8278,10.8278,10.8278,10.8278,10.8278,10.8278,10.8278,10.8278,10.8278,10.8278,10.8278,10.8346,10.853,10.8919,10.9308,10.951,10.9793,11.0024,11.0024,11.0024,11.0024,11.0024,11.0024,11.0024,11.0024,11.0024,11.0024,11.0024,11.0024,11.0024,11.0024,11.0024,11.0024,11.0024,10.8772,10.8506,10.991,10.7177,10.5894,10.7017,10.5473,10.368,10.1774,10.302,10.2449,9.9758,9.9419,9.9021,9.8576,9.8576,9.7828,9.6501,9.8183,9.8969,9.4945,9.9253,10.3269,10.5795,10.7934,10.9469,10.9606,10.9734,10.9778,10.9644,10.9711,10.9854,10.9986,10.8658,10.7215,10.6418,10.4861,10.3153,10.1482,10.1938,10.2128,0.0,0.0,0.0,0.0,0.0,0.0,0.0,0.0,11.0024,11.0024,10.9189,10.8316,10.7519,10.5772,10.4443,10.3646,10.1976,10.152,10.2317,10.0685,9.9926,9.9926,9.9926,10.133,10.3798,10.4469,10.6295,10.8808,10.8928,10.9055,10.9174,10.8537,10.8278,10.8278,10.8278,10.8278,10.8278,10.8278,10.8278,10.8278,10.8278,10.8278,10.8278,10.8278,10.8278,10.8278,10.8278,10.8278,10.8286,10.8424,10.8842,10.9271,10.9393,10.953,10.964,10.9788,10.9811,10.9873,10.9986,11.0024,11.0024,11.0024,11.0024,11.0024,11.0024,11.0024,11.0024,11.0024,11.0024,11.0024,11.0024,10.8506,10.7822,10.8658,10.5582,10.3941,10.4619,10.2946,10.1472,10.0379,10.1138,10.0809,9.9192,9.8275,9.8112,9.8742,9.6961,9.6095,9.6015,9.594,9.5921,9.2838,9.77,10.2684,10.4347,10.6904,10.9108,10.9364,10.9425,10.944,10.952,10.9564,10.9606,10.9806,10.8799,10.7855,10.7476,10.6341,10.4785,10.2735,10.2431,10.1824,10.0115,9.9926,0.0,0.0,0.0,0.0,0.0,0.0,0.0,10.9455,10.786,10.6759,10.6418,10.3836,10.2279,10.19,10.0571,9.9926,9.9926,9.9926,9.9926,9.9926,9.9926,10.1368,10.3912,10.4593,10.6643,10.9453,10.9226,10.9174,10.9174,10.8537,10.8278,10.8278,10.8278,10.8278,10.8278,10.8278,10.8278,10.8278,10.8278,10.8278,10.8278,10.8278,10.8278,10.8278,10.8278,10.8278,10.8282,10.8346,10.8753,10.9111,10.9119,10.9181,10.9308,10.9493,10.9572,10.9645,10.9873,10.9932,10.9948,11.0024,11.0024,11.0024,11.0024,11.0024,11.0024,11.0024,11.0024,11.0024,11.0024,10.8164,10.7101,10.7443,10.4064,10.2052,10.2431,10.067,9.9575,9.9507,9.9252,9.9047,9.8872,9.7199,9.6833,9.7848,9.5199,9.4247,9.4968,9.3958,9.3323,9.8217,10.2709,10.5891,10.7482,10.8141,10.8407,10.8685,10.8775,10.8875,10.9217,10.9268,10.9278,10.9297,10.9386,10.8948,10.7388,10.7196,10.6152,10.2887,10.2431,10.1824,10.0115,9.9926,9.9926,0.0,0.0,0.0,0.0,0.0,0.0,0.0,10.6114,10.4519,10.2963,10.2583,10.171,10.0153,10.0001,9.9926,9.9926,9.9926,9.9926,9.9926,9.9926,10.0077,10.0533,10.337,10.5812,10.7782,10.8456,10.8929,10.9174,10.8537,10.8278,10.8278,10.8278,10.8278,10.8278,10.8278,10.8278,10.8278,10.8278,10.8278,10.8278,10.8278,10.8278,10.8278,10.8278,10.8278,10.8326,10.8582,10.8675,10.8702,10.8725,10.8991,10.9235,10.9284,10.9284,10.9345,10.9607,10.9664,10.9759,10.9986,11.0024,11.0024,11.0024,11.0024,11.0024,11.0024,11.0024,11.0024,11.0024,10.7139,10.581,10.7367,10.3001,10.0799,10.2355,10.0835,9.9762,9.9564,9.8389,9.7622,9.7383,9.5709,9.4663,9.4331,9.4052,9.3121,9.1622,9.2911,9.2762,8.8656,9.3217,9.766,9.9782,10.3994,10.7496,10.7093,10.704,10.7249,10.8007,10.7804,10.7849,10.9007,10.9316,10.9188,10.8498,10.8493,10.778,10.5571,10.4363,10.3166,10.1634,10.0533,9.9926,9.9926,0.0,0.0,0.0,0.0,0.0,0.0,10.4368,10.3153,10.2469,10.1444,10.0609,9.9926,9.9926,9.9926,9.9926,9.9926,9.9926,9.9926,9.9926,9.9926,10.0077,10.341,10.5272,10.6151,10.8362,10.924,10.9196,10.8691,10.8407,10.8278,10.8278,10.8278,10.8278,10.8278,10.8278,10.8278,10.8278,10.8278,10.8278,10.8278,10.8278,10.8278,10.8278,10.8278,10.8303,10.8388,10.8548,10.8632,10.8458,10.8643,10.8904,10.891,10.8897,10.9009,10.9516,10.9638,10.9721,10.9986,11.0024,11.0024,11.0024,11.0024,11.0024,11.0024,11.0024,10.9645,10.862,10.638,10.4823,10.4481,10.1672,10.0191,10.0875,10.0267,9.9464,9.8389,9.7867,9.7037,9.5912,9.4239,9.3684,9.4372,9.2145,9.114,9.1288,9.1836,9.1772,8.2414,8.7286,9.2689,9.4895,10.077,10.5955,10.5665,10.5379,10.5513,10.6784,10.6766,10.7031,10.8659,10.8994,10.9055,10.9055,10.9174,10.872,10.7204,10.605,10.4591,10.2561,10.091,9.9736,9.928,9.8749,0.0,0.0,0.0,0.0,0.0,10.1634,10.0989,10.0989,9.985,9.9432,9.9926,9.9926,9.9926,9.9926,9.9926,9.9926,9.9926,9.9926,9.9926,10.0115,10.3494,10.4975,10.5203,10.8439,10.9594,10.9316,10.8981,10.8627,10.8369,10.8389,10.831,10.8278,10.8278,10.8278,10.8278,10.8278,10.8278,10.8278,10.8278,10.8278,10.8278,10.8278,10.8278,10.8278,10.8278,10.8481,10.8627,10.8407,10.8622,10.8809,10.8688,10.867,10.8856,10.9391,10.9524,10.9645,10.9948,11.0024,11.0024,11.0024,11.0024,11.0024,11.0024,11.0024,10.9569,10.8354,10.6266,10.4481,10.3304,10.1178,9.9926,9.9926,9.9926,9.8976,9.6926,9.6357,9.5522,9.4345,9.2636,9.2194,9.3061,9.046,8.9673,9.0536,9.0467,9.0668,8.3752,8.9085,9.4439,9.6026,9.9956,10.3697,10.457,10.4105,10.3912,10.5609,10.6555,10.7348,10.8119,10.848,10.8669,10.8669,10.8994,10.866,10.6948,10.6925,10.5834,10.2468,10.0802,9.9318,9.7761,9.6091,9.5825,0.0,0.0,0.0,0.0,9.7648,9.761,9.761,9.761,9.8331,9.9888,9.9926,9.9926,9.9926,9.9926,9.9926,9.9926,9.9926,9.9926,10.0115,10.3494,10.4975,10.5241,10.862,10.9856,10.9594,10.9325,10.8994,10.8669,10.8654,10.8469,10.8278,10.8278,10.8278,10.8278,10.8278,10.8278,10.8278,10.8278,10.8278,10.8278,10.8278,10.8278,10.8278,10.8278,10.8481,10.8653,10.8653,10.8955,10.914,10.8745,10.8653,10.878,10.9156,10.9259,10.9417,10.991,11.0024,11.0024,11.0024,11.0024,11.0024,11.0024,11.0024,11.0024,10.9986,10.6987,10.4975,10.4937,10.1862,9.9926,9.9926,9.9926,9.8445,9.5218,9.3471,9.256,9.256,9.089,8.9791,8.9266,8.9238,8.9031,8.8666,8.8666,8.9546,8.0524,8.5127,8.9925,9.3106,9.7476,10.135,10.2733,10.3231,10.3591,10.4099,10.5351,10.6712,10.8039,10.8346,10.8388,10.8388,10.8519,10.8465,10.8088,10.7193,10.5885,10.4017,10.2348,10.039,9.7837,9.6053,9.5256,9.5825,0.0,0.0,0.0,9.5863,9.5863,9.5863,9.6964,9.7799,9.8331,9.9356,9.9926,9.9926,9.9926,9.9926,9.9963,10.1102,10.1634,10.1824,10.5203,10.6683,10.6873,10.9113,10.9985,10.9858,10.9606,10.9334,10.9067,10.9079,10.9021,10.8878,10.8617,10.853,10.8502,10.8328,10.8278,10.8278,10.8278,10.8278,10.8278,10.8278,10.8278,10.8278,10.8278,10.8481,10.8627,10.8426,10.8632,10.8745,10.8445,10.8388,10.8574,10.9129,10.9259,10.9417,10.991,11.0024,11.0024,11.0024,11.0024,11.0024,11.0024,11.0024,11.0024,11.0024,10.8012,10.5317,10.1786,10.0533,9.8976,9.6736,9.6585,9.5597,9.3433,9.2826,9.1991,9.0814,9.0282,8.9823,8.949,8.9287,8.9103,8.8918,8.9917,9.0668,8.063,8.4221,8.7907,9.2149,9.5155,9.7656,9.9734,10.0111,10.0319,10.142,10.3414,10.5296,10.6256,10.7429,10.8278,10.8278,10.8278,10.8326,10.848,10.7751,10.6708,10.539,10.3356,10.1077,9.8538,9.5747,9.4117,9.4117,9.313,9.2712,9.313,9.3737,9.4117,9.4117,9.5104,9.5977,9.6623,9.8217,9.8711,9.8103,9.8711,9.9356,9.9963,10.1672,10.2773,10.3532,10.6304,10.7481,10.7633,10.9303,11.0024,10.9986,10.9849,10.9611,10.9378,10.9386,10.9334,10.9201,10.8977,10.8881,10.8867,10.8713,10.8636,10.8636,10.8636,10.8636,10.8585,10.8482,10.8426,10.8426,10.8623,10.8819,10.8956,10.8697,10.8833,10.8918,10.8498,10.8553,10.8748,10.918,10.9335,10.9531,10.9948,11.0024,11.0024,11.0024,11.0024,11.0024,11.0024,11.0024,11.0024,11.0024,10.9075,10.638,10.1292,10.0267,9.8521,9.5256,9.3851,9.2674,9.1611,9.1573,9.1042,8.9865,8.9827,8.9691,8.9407,8.9243,8.9033,8.8915,8.9788,9.0556,8.2976,8.5426,8.7725,9.2328,9.2979,9.3277,9.6022,9.5614,9.5402,9.8226,10.1169,10.3378,10.3458,10.6083,10.8203,10.8278,10.8278,10.8278,10.8278,0.0,10.8057,10.6515,10.3871,10.152,9.968,9.5501,9.2826,9.2712,9.2712,9.2029,9.0434,9.1725,9.2522,9.2522,9.2522,9.3282,9.4876,9.6547,9.6774,9.5597,9.7306,9.8862,10.0343,10.2014,10.3646,10.5241,10.6949,10.7671,10.7822,10.9379,11.0024,11.0024,11.0024,10.9858,10.9664,10.9664,10.9499,10.9288,10.9268,10.9258,10.9258,10.9238,10.9227,10.9227,10.9227,10.9227,10.9174,10.8804,10.873,10.8833,10.9163,10.9432,10.952,10.9288,10.944,10.9433,10.8823,10.9004,10.9227,10.9268,10.9457,10.9721,10.9986,11.0024,11.0024,11.0024,11.0024,11.0024,11.0024,11.0024,11.0024,11.0024,11.0024,10.805,10.3229,10.114,9.8635,9.5256,9.1991,9.0168,9.0168,9.0054,8.9865,8.9599,8.9598,8.9382,8.9003,8.9003,8.889,8.8629,8.8629,8.9471,8.0158,8.2796,8.504,8.8529,9.1086,9.3146,9.5053,9.5873,9.6774,9.8622,10.088,10.2871,10.4112,10.6015,10.7547,10.8166,10.8278,10.8278,10.8278,10.8326,10.7845,10.6483,10.4765,10.2608,9.9808,9.7619,9.5863,9.4572,9.4458,9.4307,9.3889,9.3016,9.2522,9.2522,9.2522,9.2712,9.3092,9.48,9.7344,10.0723,10.2431,10.3418,10.3836,10.5544,10.6532,10.6987,10.8696,10.9455,10.9455,10.9873,11.0024,11.0024,11.0024,10.9985,10.9943,10.9943,10.9899,10.9803,10.96,10.952,10.9499,10.9297,10.9227,10.9227,10.9227,10.9227,10.9217,10.914,10.924,10.9394,10.9268,10.9278,10.9307,10.9248,10.9278,10.9288,10.9151,10.9182,10.9314,10.9513,10.9588,10.9721,10.9986,11.0024,11.0024,11.0024,11.0024,11.0024,11.0024,11.0024,11.0024,11.0024,11.0024,10.8999,10.6532,10.357,9.9926,9.5332,9.3092,9.1953,9.1953,9.051,8.9675,8.9599,8.9406,8.9204,8.9003,8.9003,8.889,8.8629,8.8629,8.8853,8.0363,8.2539,8.3931,8.5726,8.7497,8.9426,9.1519,9.2412,9.3577,9.6432,9.9215,10.1643,10.3225,10.518,10.684,10.7633,10.8054,10.8278,10.8278,10.8278,10.8068,0.0,0.0,10.4747,10.317,10.1078,9.9432,9.8521,9.704,9.6205,9.6205,9.461,9.3699,9.3699,9.4458,9.4876,9.4876,9.6471,9.8635,10.1292,10.3001,10.4216,10.5013,10.6597,10.7761,10.852,0.0,10.9849,10.9851,10.9947,11.0024,11.0024,11.0024,11.0024,11.0024,11.0024,11.0024,10.9986,10.9854,10.9803,10.9797,10.9664,10.96,10.96,10.96,10.96,10.9583,10.9463,10.9606,10.9794,10.9621,10.96,10.9583,10.9456,10.9432,10.9407,10.9258,10.9334,10.9451,10.9604,10.9721,10.9835,10.9986,11.0024,11.0024,11.0024,11.0024,11.0024,11.0024,11.0024,11.0024,11.0024,11.0024,10.9341,10.7633,10.4368,10.0951,9.7496,9.5749,9.4111,9.2421,9.0463,8.9381,8.9323,8.9207,8.9044,8.8853,8.8853,8.8778,8.8629,8.8629,8.8629,8.1846,8.345,8.3846,8.417,8.4553,8.5342,8.7441,8.7986,8.9207,9.3347,9.6935,9.9973,10.2051,10.4334,10.6135,10.681,10.7671,10.8278,10.8278,10.8323,10.8426,10.8659,0.0,10.6853,10.7091,10.4501,10.2811,10.2811,10.0267,9.8597,9.8331,9.6736,9.5787,9.5787,9.6964,9.8065,9.909,10.0685,10.1482,10.1482,10.2925,10.4368,10.5772,10.7026,10.8304,10.9616,0.0,10.9669,10.9664,10.9903,11.0024,11.0024,11.0024,11.0024,11.0024,11.0024,11.0024,11.0024,11.0024,11.0024,11.0024,11.0024,11.0024,11.0024,11.0024,11.0024,10.9985,10.9745,10.9851,11.0024,11.0024,11.0024,10.9946,10.9742,10.9683,10.9616,10.9424,10.954,10.9683,10.9683,10.9873,11.0024,11.0024,11.0024,11.0024,11.0024,11.0024,11.0024,11.0024,11.0024,10.991,10.9645,10.9645,10.8847,10.6873,10.4102,10.171,10.0039,9.8673,9.6336,9.2758,9.099,8.9785,8.908,8.9011,8.8853,8.8629,8.8629,8.8629,8.8629,8.8629,8.8629,8.2579,8.4257,8.487,8.5328,8.6221,8.6708,8.568,8.673,8.8867,9.2267,9.4987,9.8101,10.2424,10.4711,10.5965,10.6116,10.7352,10.8278,10.8278,10.8463,10.8627,10.8653,10.7697,0.0,10.7102,10.5564,10.4595,10.4595,10.4102,10.3229,10.1786,10.0077,9.9166,9.9166,9.8141,10.0267,10.5924,10.7633,10.8468,10.8468,10.8734,10.8999,10.9265,10.9492,10.9583,10.9659,0.0,0.0,10.9664,10.9903,11.0024,11.0024,11.0024,11.0024,11.0024,11.0024,11.0024,11.0024,11.0024,11.0024,11.0024,11.0024,11.0024,11.0024,11.0024,11.0024,11.0024,10.9985,10.9986,11.0024,11.0024,11.0024,10.9986,10.9947,10.9946,10.9945,10.9903,10.9946,10.9948,10.9948,10.9986,11.0024,11.0024,11.0024,11.0024,11.0024,11.0024,11.0024,11.0024,11.0024,10.9493,10.805,10.7898,10.6607,10.3456,10.2735,10.171,10.0039,9.9698,9.8065,9.4755,9.4307,9.2615,8.9271,8.8878,8.8666,8.8629,8.8629,8.8629,8.8629,8.8629,8.8629,8.266,8.3774,8.447,8.5651,8.5454,8.5059,8.5566,8.7751,9.0665,9.4208,9.6345,9.8764,10.2676,10.4389,10.5651,10.6989,10.8213,10.9142,10.9554,10.9074,10.8775,10.9152,10.8758,10.854,0.0,10.8085,10.7708,10.7708,10.6835,10.6,10.5203,10.357,10.2659,10.2659,10.2849,10.4861,10.8809,10.9645,11.0024,11.0024,11.0024,11.0024,11.0024,10.9858,10.9742,10.9616,10.9787,10.9742,10.9664,10.9903,11.0024,11.0024,11.0024,11.0024,11.0024,11.0024,11.0024,11.0024,11.0024,10.991,10.9797,10.9797,10.991,11.0024,11.0024,11.0024,11.0024,11.0024,11.0024,11.0024,11.0024,11.0024,11.0024,11.0024,11.0024,11.0024,11.0024,11.0024,10.9759,10.8847,10.8658,10.8354,10.7443,10.7291,10.7291,10.7291,10.7291,10.7595,10.8544,10.786,10.7329,10.7481,10.6683,10.5127,10.2659,10.1596,10.0761,9.9963,9.9926,9.8787,9.6319,9.5315,9.3453,9.0552,8.9273,8.8629,8.8629,8.8629,8.8629,8.8629,8.8629,8.8629,8.4935,0.0,8.5278,8.6114,8.5378,8.4742,0.0,8.8971,9.2589,9.5902,9.7735,9.9765,10.3073,10.4328,10.5547,10.7682,10.8748,10.9554,11.0206,10.9379,10.8904,10.9558,10.9674,10.98,10.9986,11.0024,11.0024,11.0024,10.8809,10.7936,10.7519,10.6266,10.5582,10.5582,10.7215,10.8734,10.9986,11.0024,11.0024,11.0024,11.0024,11.0024,11.0024,10.9803,10.9679,10.9616,10.9683,10.9679,10.9664,10.9903,11.0024,11.0024,11.0024,11.0024,11.0024,11.0024,11.0024,11.0024,11.0024,10.9873,10.972,10.9744,10.9866,11.0024,11.0024,11.0024,11.0024,11.0024,11.0024,11.0024,11.0024,11.0024,11.0024,11.0024,11.0024,11.0024,11.0024,11.0024,10.9645,10.8316,10.8088,10.7671,10.638,10.6152,10.6152,10.6152,10.581,10.619,10.786,10.6266,10.5469,10.6759,10.5393,10.3684,10.1976,10.1027,10.0533,10.0533,10.0115,9.9128,9.7344,9.5671,9.3774,9.1742,8.9823,8.8831,8.8766,8.8728,8.8703,8.8629,8.8629,8.8629,0.0,9.139,8.9132,8.7432,8.8163,8.863,8.5983,8.9401,0.0,9.5527,9.744,9.9943,10.3797,10.5273,10.6127,10.7063,10.7867,10.8481,10.8786,10.8727,10.8882,10.9554,10.9838,10.9986,11.0024,11.0024,11.0024,11.0024,10.991,10.9151,10.7557,10.7367,10.7329,10.7329,10.8961,10.991,11.0024,11.0024,11.0024,11.0024,11.0024,11.0024,11.0024,10.9986,10.9854,0.0,10.9898,10.9854,10.9664,10.9903,11.0024,11.0024,11.0024,11.0024,11.0024,11.0024,11.0024,11.0024,11.0024,10.9986,11.002,10.9994,10.9996,11.0024,11.0024,11.0024,11.0024,11.0024,11.0024,11.0024,11.0024,11.0024,11.0024,11.0024,11.0024,11.0024,11.0024,11.0024,10.9986,10.9873,10.9835,10.9797,10.9683,10.9683,10.9683,10.9683,10.8316,10.7936,10.9645,10.6987,10.5013,10.5127,10.3608,10.1938,10.0229,10.1444,10.2279,10.2279,10.0799,9.9204,9.761,9.5939,9.4111,9.2129,9.0405,8.9407,8.9176,8.908,8.8853,8.8629,8.8629,8.8629,9.5413,9.353,9.051,8.7026,8.7496,8.8409,8.6778,9.1744,9.7201,9.8964,10.0577,10.2403,10.4992,10.6135,10.7083,10.845,10.9479,11.0115,11.0222,11.0514,11.0429,10.9724,10.9868,11.0024,11.0024,11.0024,11.0024,11.0024,11.0024,10.9759,10.9113,10.9075,10.9075,10.9075,10.9683,11.0024,11.0024,11.0024,11.0024,11.0024,11.0024,11.0024,11.0024,11.0024,10.9946,10.9896,10.9985,10.9946,0.0,10.9985,11.0024,11.0024,11.0024,11.0024,11.0024,11.0024,11.0024,11.0024,11.0024,10.991,10.9796,10.9952,10.9894,10.9797,10.9948,11.0024,11.0024,11.0024,11.0024,11.0024,11.0024,11.0024,11.0024,11.0024,11.0024,11.0024,11.0024,11.0024,10.9721,10.8658,10.843,10.8126,10.7063,10.6873,10.6873,10.6873,10.6342,10.6532,10.824,10.6418,10.4975,10.4975,10.4405,10.376,10.3115,10.3646,10.357,10.2507,10.0837,9.9204,9.7648,9.4952,9.306,9.2167,9.0473,8.9476,8.9229,8.9173,8.9053,8.8853,8.8703,8.8629,9.8513,9.5589,9.1901,8.6767,8.7475,8.924,8.8337,9.4041,10.0078,10.214,10.344,10.4623,10.6071,10.6825,10.768,10.9105,11.001,11.0596,11.0671,11.0992,11.086,10.9873,10.991,11.0024,11.0024,11.0024,11.0024,11.0024,11.0024,11.0024,11.0024,11.0024,11.0024,11.0024,11.0024,11.0024,11.0024,11.0024,11.0024,11.0024,11.0024,11.0024,11.0024,11.0024,11.0024,11.0024,11.0024,11.0024,11.0024,11.0024,11.0024,11.0024,11.0024,11.0024,11.0024,11.0024,11.0024,11.0024,11.0024,10.991,10.9797,10.9948,10.991,10.9797,10.9948,11.0024,11.0024,11.0024,11.0024,11.0024,11.0024,11.0024,11.0024,11.0024,11.0024,11.0024,11.0024,11.0024,10.9683,10.8506,10.8278,10.7936,10.6759,10.657,10.657,10.657,10.6114,10.638,10.8088,10.6342,10.5165,10.5696,10.5279,10.5165,10.5734,10.5772,10.5051,10.3342,10.114,9.9204,9.7648,9.4345,9.243,9.226,9.0592,8.9665,8.9488,8.9363,8.9294,8.9181,8.8924,8.8703,10.1522,9.8262,9.3714,8.7066,8.8827,9.1856,9.0734,9.5964,10.1824,10.443,10.5512,10.6196,10.7003,10.7342,10.7758,10.8544,10.8994,10.9341,10.9607,10.9645,10.9721,10.9986,11.0024,11.0024,11.0024,11.0024,11.0024,11.0024,11.0024,0.0,11.0024,11.0024,11.0024,11.0024,11.0024,11.0024,11.0024,11.0024,11.0024,11.0024,11.0024,11.0024,11.0024,11.0024,11.0024,11.0024,11.0024,11.0024,0.0,11.0024,11.0024,11.0024,11.0024,11.0024,11.0024,11.0024,11.0024,11.0024,11.0024,11.0024,11.0024,11.0024,11.0024,11.0024,11.0024,11.0024,11.0024,11.0024,11.0024,11.0024,11.0024,11.0024,11.0024,11.0024,11.0024,11.0024,11.0024,11.0024,11.0024,11.0024,11.0024,11.0024,11.0024,11.0024,11.0024,11.0024,10.862,10.8126,10.9797,10.7101,10.5658,10.7329,10.6,10.5696,10.7367,10.7519,10.6797,10.5089,10.1824,9.928,9.7686,9.4345,9.256,9.256,9.089,9.0016,9.0016,8.9751,8.9599,8.9598,8.9242,8.887,10.6383,10.3323,9.9723,9.4336,9.3243,9.3791,9.4914,9.8449,10.2378,10.5538,10.7294,10.8313,10.8562,10.8691,10.8796,10.9023,10.9328,10.9531,10.9607,10.9797,10.9948,11.0024,11.0024,11.0024,11.0024,11.0024,11.0024,11.0024,11.0024,11.0024,11.0024,11.0024,11.0024,11.0024,11.0024,11.0024,11.0024,11.0024,11.0024,11.0024,11.0024,11.0024,11.0024,11.0024,11.0024,11.0024,11.0024,11.0024,0.0,10.9844,10.9742,10.9742,10.9742,10.9742,10.9752,10.9945,11.0024,11.0024,11.0024,11.0024,11.0024,11.0024,11.0024,11.0024,11.0024,11.0024,11.0024,11.0024,11.0024,11.0024,11.0024,11.0024,11.0024,11.0024,11.0024,11.0024,11.0024,11.0024,11.0024,11.0024,11.0024,11.0024,11.0024,11.0024,11.0024,11.0024,10.9607,10.9455,10.9948,10.9151,10.824,10.7557,10.8126,10.824,10.7557,10.8582,10.805,10.5127,10.4026,10.2735,10.1064,9.6698,9.4307,9.4307,9.1459,9.0016,9.0016,8.9941,8.9789,8.9599,8.9506,8.9309,11.0491,10.7374,10.3869,9.8775,9.6628,9.6171,9.7819,10.0339,10.3319,10.6783,10.8319,10.9021,10.902,10.9213,10.9406,10.9386,10.961,10.9797,10.9797,10.991,11.0024,11.0024,11.0024,11.0024,11.0024,11.0024,11.0024,11.0024,11.0024,11.0024,11.0024,11.0024,11.0024,11.0024,11.0024,11.0024,11.0024,11.0024,11.0024,11.0024,11.0024,11.0024,11.0024,11.0024,11.0024,11.0024,11.0024,11.0024,0.0,10.9851,10.9734,10.9654,10.9742,10.9734,10.9669,10.9942,11.0024,11.0024,11.0024,11.0024,11.0024,11.0024,11.0024,11.0024,11.0024,11.0024,11.0024,11.0024,11.0024,11.0024,11.0024,11.0024,11.0024,11.0024,11.0024,11.0024,11.0024,11.0024,11.0024,11.0024,11.0024,11.0024,11.0024,11.0024,11.0024,11.0024,11.0024,11.0024,11.0024,11.0024,10.9645,10.862,10.9417,10.9341,10.7633,10.843,10.7557,10.4178,10.3342,10.2241,10.0571,9.7002,9.4724,9.4079,9.2029,9.0662,9.0016,9.0016,8.9941,8.9751,8.9637,8.9524,11.3985,11.0732,10.6928,10.1857,9.9726,9.9127,10.0129,10.2002,10.4443,10.7858,10.8653,10.8721,10.8705,10.9232,10.9636,10.9632,10.9846,11.0024,11.0024,11.0024,11.0024,11.0024,11.0024,11.0024,11.0024,11.0024,11.0024,11.0024,11.0024,11.0024,11.0024,11.0024,11.0024,11.0024,11.0024,11.0024,11.0024,11.0024,11.0024,11.0024,11.0024,11.0024,11.0024,11.0024,11.0024,11.0024,11.0024,11.0024,0.0,10.9985,10.9849,10.9664,10.9899,10.9849,10.9669,10.9942,11.0024,11.0024,11.0024,11.0024,11.0024,11.0024,11.0024,11.0024,11.0024,11.0024,11.0024,11.0024,11.0024,11.0024,11.0024,11.0024,11.0024,11.0024,10.991,10.9759,10.9607,10.9569,10.9569,10.9569,10.9569,10.9569,10.9569,10.9569,10.9569,10.9569,10.9569,10.9569,10.9569,10.9683,10.9721,10.9569,10.9569,10.8885,10.7177,10.7177,10.5886,10.2659,10.114,9.9736,9.8331,9.6509,9.4686,9.3016,9.2674,9.1687,9.0016,9.0016,9.0016,9.0016,8.9751,8.9639,11.6929,11.4179,11.1498,11.034,10.616,10.2876,10.5058,10.4674,10.4594,10.7187,10.8478,10.9125,10.9128,10.9404,10.9648,10.9616,10.9829,11.0024,11.0024,11.0024,11.0024,11.0024,11.0024,11.0024,11.0024,11.0024,11.0024,11.0024,11.0024,11.0024,11.0024,11.0024,11.0024,11.0024,11.0024,11.0024,11.0024,11.0024,11.0024,11.0024,11.0024,11.0024,11.0024,11.0024,11.0024,11.0024,11.0024,11.0024,10.9986,10.9814,10.9687,10.9616,10.9683,10.9679,10.9669,10.9942,11.0024,11.0024,11.0024,11.0024,11.0024,11.0024,11.0024,11.0024,11.0024,11.0024,11.0024,11.0024,11.0024,11.0024,11.0024,11.0024,11.0024,11.0024,10.8999,10.7671,10.6342,10.6038,10.6038,10.6038,10.6038,10.6038,10.6038,10.6038,10.6038,10.6038,10.6038,10.6038,10.6038,10.7215,10.7519,10.619,10.6038,10.5355,10.3646,10.4747,10.4633,10.2583,10.3342,10.376,10.338,10.0495,9.8141,9.6547,9.3889,9.1687,9.0016,9.0016,9.0016,9.0016,8.9941,8.9939,11.8787,11.6143,11.3712,11.2205,10.8733,10.5955,10.6925,10.5941,10.5316,10.6976,10.7689,10.8266,10.9077,10.956,10.9844,10.9844,10.9943,11.0024,11.0024,11.0024,11.0024,11.0024,11.0024,11.0024,11.0024,11.0024,11.0024,11.0024,11.0024,11.0024,11.0024,11.0024,11.0024,11.0024,11.0024,11.0024,11.0024,11.0024,11.0024,11.0024,11.0024,11.0024,11.0024,11.0024,11.0024,11.0024,11.0024,11.0024,10.9986,10.9884,10.9755,10.9664,10.9783,10.9742,10.9669,10.9942,11.0024,11.0024,11.0024,11.0024,11.0024,11.0024,11.0024,11.0024,11.0024,11.0024,11.0024,11.0024,11.0024,11.0024,11.0024,10.9417,10.8809,10.8809,10.7519,10.6038,10.5165,10.4975,10.4975,10.4975,10.4975,10.4975,10.4975,10.4975,10.4975,10.4975,10.4975,10.4975,10.4975,10.5013,10.4747,10.3836,10.4481,10.4292,10.2583,10.3266,10.3039,10.133,10.2052,10.2545,10.2545,10.0837,9.8787,9.6433,9.4648,9.2522,9.0016,9.0016,9.0016,9.0016,9.0016,9.0016,11.9887,11.746,11.5057,11.2316,11.0206,10.8608,10.751,10.6741,10.6233,10.6432,10.6736,10.7348,10.8452,10.908,10.9524,10.9861,10.9718,10.9683,10.9986,11.0024,11.0024,11.0024,11.0024,11.0024,11.0024,11.0024,11.0024,11.0024,11.0024,11.0024,11.0024,11.0024,11.0024,11.0024,11.0024,11.0024,11.0024,11.0024,11.0024,11.0024,11.0024,11.0024,11.0024,11.0024,11.0024,11.0024,11.0024,0.0,11.0024,11.0024,10.9892,10.9725,10.9939,10.9898,10.9734,10.9944,11.0024,11.0024,11.0024,11.0024,11.0024,11.0024,10.9835,10.9569,10.9569,10.9379,10.9151,10.9151,10.9151,10.9151,10.9151,10.8088,10.7063,10.7063,10.5772,10.4519,10.4519,10.4292,10.4102,10.4102,10.4102,10.4102,10.4102,10.4102,10.4102,10.4102,10.4102,10.4102,10.4102,10.2811,10.19,10.19,10.3191,10.3456,10.2052,10.1976,10.1406,10.0001,9.9926,9.9926,9.9926,9.9926,9.8369,9.5104,9.5066,9.3395,9.0016,9.0016,9.0016,9.0016,9.0016,9.0016,12.0103,11.8735,11.7167,11.5977,11.3464,11.0752,10.849,10.7937,10.7144,10.4485,10.6119,10.7711,10.6588,10.678,10.7649,10.9125,10.8482,10.8354,10.9797,11.0024,11.0024,11.0024,11.0024,11.0024,11.0024,11.0024,11.0024,11.0024,11.0024,11.0024,11.0024,11.0024,11.0024,11.0024,11.0024,11.0024,11.0024,11.0024,11.0024,11.0024,11.0024,11.0024,11.0024,11.0024,11.0024,11.0024,11.0024,11.0024,11.0024,11.0024,10.9986,10.9983,10.9986,10.9986,10.9985,10.9986,11.0024,11.0024,11.0024,11.0024,11.0024,11.0024,10.9037,10.7822,10.7822,10.6797,10.5658,10.5658,10.5658,10.5658,10.5658,10.5469,10.5317,10.5317,10.4026,10.2773,10.2773,10.1634,10.0609,10.0609,10.0609,10.0609,10.0609,10.0609,10.0609,10.0609,10.0609,10.0609,10.0609,10.0077,9.9736,9.9736,10.0039,10.0153,9.9926,10.0115,10.0153,9.9926,9.9926,9.9926,9.9926,9.9926,9.8369,9.5104,9.5066,9.3395,9.0016,9.0016,9.0016,9.0016,9.0016,9.0016,11.9727,11.8771,11.7474,11.6186,11.4847,11.332,11.1353,10.9894,10.8546,10.7188,10.704,10.7235,10.7424,10.6279,10.5602,10.647,10.4662,10.3746,10.5506,10.657,10.7519,10.8468,10.9455,11.0024,11.0024,11.0024,11.0024,11.0024,11.0024,11.0024,11.0024,11.0024,11.0024,11.0024,11.0024,11.0024,11.0024,11.0024,11.0024,11.0024,11.0024,11.0024,11.0024,11.0024,11.0024,11.0024,0.0,11.0024,11.0024,11.0024,11.0024,11.0024,11.0024,11.0024,11.0024,11.0024,11.0024,11.0024,11.0024,10.8772,10.7177,10.7177,10.6683,10.6076,10.6076,10.5544,10.4975,10.4975,10.4975,10.4975,10.4975,10.4254,10.3532,10.3532,10.2241,10.1027,10.1027,10.0457,9.9926,9.9926,9.9926,9.9888,9.9736,9.9698,9.9698,9.9584,9.9584,9.9593,9.9574,9.9417,9.9342,9.9342,9.9387,9.9391,9.94,9.9508,9.9599,9.9584,9.9584,9.9584,9.9584,9.9584,9.8103,9.4914,9.4825,9.3229,9.0016,9.0016,9.0016,9.0016,9.0016,9.0016,11.8568,11.8073,11.728,11.6183,11.5937,11.5439,11.3549,11.1546,10.9883,10.9165,10.7841,10.7051,10.7825,10.6207,10.4773,10.4985,10.2714,10.1424,10.2802,10.4139,10.5431,10.6683,10.8354,10.9379,10.9379,10.9759,11.0024,11.0024,11.0024,11.0024,11.0024,11.0024,11.0024,11.0024,11.0024,10.9986,10.9942,10.9942,10.9942,10.9942,10.9942,10.9942,10.9942,10.9942,10.9942,10.9942,10.9986,11.0024,11.0024,11.0024,11.0024,11.0024,11.0024,10.9759,10.9379,10.9379,10.9113,10.8734,10.8734,10.7101,10.4975,10.4975,10.4671,10.433,10.433,10.4026,10.3684,10.3684,10.3684,10.3684,10.3684,10.2735,10.1786,10.1786,10.0837,9.9926,9.9926,9.9926,9.9926,9.9926,9.9926,9.985,9.966,9.9552,9.9484,9.9333,9.9333,9.8953,9.7954,9.7847,9.7996,9.8464,9.8185,9.8303,9.9155,9.8891,9.8873,9.9323,9.9333,9.9333,9.9333,9.893,9.7204,9.3976,9.393,9.2383,8.9212,8.962,8.9856,8.9903,8.9898,8.9936,11.6259,11.6722,11.6763,11.7053,11.7123,11.6413,11.3737,11.2464,11.0966,10.7846,10.7738,10.7721,10.6334,10.616,10.6235,10.6237,10.517,10.4377,10.4477,10.4771,10.5013,10.5089,10.6607,10.7633,10.7633,10.9075,11.0024,11.0024,0.0,11.0024,11.0024,11.0024,11.0024,11.0024,11.0024,10.9901,10.9664,10.9659,10.9659,10.9659,10.9659,10.9659,10.9659,10.9659,10.9659,10.9669,10.9903,11.0024,11.0024,11.0024,11.0024,11.0024,11.0024,10.9037,10.7633,10.7633,10.6607,10.5203,10.5203,10.5089,10.4975,10.4975,10.3874,10.2583,10.2583,10.1444,10.0153,10.0153,10.0153,10.0153,10.0153,10.0115,10.0039,10.0039,9.9963,9.9926,9.9926,9.9926,9.9926,9.9926,9.9926,9.9926,9.9888,9.9695,9.949,9.934,9.934,9.7995,9.4259,9.3792,9.4408,9.6033,9.4991,9.5481,9.8669,9.7733,9.7599,9.9228,9.934,9.934,9.934,9.7812,9.5347,9.1954,9.1894,9.03,8.7055,8.8534,8.939,8.9637,8.9647,8.9768,11.4303,11.5694,11.667,11.6812,11.7654,11.7903,11.5842,11.4187,11.2438,11.0182,10.8972,10.8091,10.751,10.5783,10.4506,10.4668,10.2527,10.0925,10.1273,10.2361,10.3163,10.3304,10.4823,10.6304,10.7405,10.7063,10.6759,10.6759,10.6607,10.6528,10.6536,10.7416,10.7889,10.7889,10.8944,10.9478,10.9361,10.9361,10.9361,10.9361,10.9361,10.9361,10.9361,10.9361,10.9361,10.9369,10.9485,10.8906,10.7889,10.7889,10.734,10.6533,10.6533,10.6253,10.5848,10.5848,10.5506,10.4671,10.2469,10.171,10.171,10.171,10.133,10.0799,10.0799,10.0381,9.9926,9.9926,9.9926,9.9926,9.9926,9.9926,9.9926,9.9926,9.9926,9.9926,9.9926,9.9926,9.9622,9.8597,9.8293,9.7797,9.6729,9.6203,9.5837,9.5611,9.5562,9.5058,9.3675,9.3488,9.3732,9.4351,9.3946,9.4125,9.5355,9.4985,9.493,9.5529,9.5566,9.5566,9.5566,9.5008,9.3199,9.0064,8.9988,8.8443,8.5277,8.5826,8.6166,8.6217,8.6243,8.6395,11.2171,11.3737,11.5058,11.5651,11.6631,11.7011,11.5296,11.3937,11.2519,11.0802,10.9009,10.7744,10.7747,10.5962,10.4415,10.3976,10.259,10.1256,10.0471,10.1408,10.2022,10.1634,10.3077,10.4557,10.5696,10.4785,10.4329,10.4776,10.4661,10.4522,10.4446,10.5368,10.5844,10.5844,10.6941,10.7494,10.7431,10.7431,10.7431,10.7431,10.7431,10.7431,10.7431,10.7431,10.7431,10.7431,10.7494,10.6903,10.5844,10.5844,10.5301,10.4433,10.4433,10.4225,10.3873,10.3972,10.3626,10.277,10.0489,9.973,9.973,9.973,9.9722,9.9774,9.9736,9.9736,9.9773,9.9766,9.9764,9.9804,9.9887,9.9508,9.9128,9.9128,9.8635,9.8141,9.8141,9.8103,9.7724,9.666,9.6319,9.5845,9.4719,9.4178,9.3829,9.3675,9.3555,9.3088,9.2006,9.1669,9.1672,9.1978,9.1719,9.1976,9.3058,9.2895,9.2911,9.3473,9.3511,9.3511,9.3511,9.3007,9.1239,8.8095,8.8066,8.6496,8.331,8.3903,8.4195,8.4222,8.4241,8.4375,10.9534,11.0729,11.1841,11.351,11.398,11.3564,11.1906,11.1503,11.1008,10.9262,10.7687,10.6662,10.6634,10.6628,10.6095,10.4463,10.5767,10.5851,10.2528,10.2264,10.1786,10.0115,10.1368,10.2355,10.2355,10.2355,10.2917,10.4325,10.4425,10.432,10.4037,10.4056,10.4094,10.4094,10.4132,10.4069,10.3791,10.3791,10.3791,10.3791,10.3791,10.3791,10.3791,10.3791,10.3791,10.3805,10.4043,10.4132,10.4094,10.4094,10.4056,10.4028,10.4028,10.3044,10.1625,10.1862,10.0862,9.9299,9.9271,9.9233,9.9271,9.9186,9.9301,9.9431,9.928,9.9356,9.9428,9.9443,9.9413,9.9439,9.9693,9.8596,9.7495,9.7495,9.6015,9.4648,9.4647,9.4457,9.4267,9.4229,9.4191,9.4196,9.4127,9.3897,9.3732,9.3725,9.3517,9.2156,8.9006,8.8034,8.7999,8.8846,8.819,8.8909,9.2095,9.1541,9.1669,9.3163,9.3292,9.3292,9.3292,9.1781,8.939,8.6048,8.5936,8.4344,8.1158,8.2826,8.3692,8.3828,8.3821,8.3968,10.1422,10.5184,10.8448,10.9487,11.0675,11.1277,11.0124,10.9891,10.906,10.6118,10.5184,10.4908,10.4895,10.4902,10.474,10.4264,10.4622,10.4295,10.2308,10.2108,10.1596,10.0077,10.0305,10.0609,10.0609,10.044,10.0513,10.0902,10.0651,10.0464,10.0415,10.1299,10.1815,10.1815,10.2979,10.3586,10.3517,10.3517,10.3517,10.3517,10.3517,10.3517,10.3517,10.3517,10.3517,10.3535,10.3586,10.2941,10.1815,10.1815,10.124,10.0364,10.0364,10.0247,9.9952,9.9827,9.9496,9.8919,9.7871,9.7511,9.7308,9.6058,9.6521,9.7534,9.7506,9.7526,9.7552,9.7554,9.6675,9.5751,9.5798,9.5507,9.5204,9.5204,9.4787,9.4373,9.4376,9.4319,9.3905,9.2674,9.2372,9.1906,9.0671,9.0254,9.0087,9.0084,8.9635,8.8959,8.8072,8.7371,8.7077,8.7331,8.7135,8.7334,8.8225,8.8053,8.8125,8.8554,8.8591,8.8591,8.8591,8.7008,8.5102,8.3048,8.1868,8.0509,7.8858,7.9341,7.9794,8.0147,8.0143,8.0318,9.4988,9.8934,10.2173,10.2607,10.491,10.6544,10.4611,10.6019,10.675,10.3398,10.2939,10.3153,10.3266,10.3298,10.3326,10.3419,10.4068,10.3987,10.2421,10.2196,10.1634,10.0077,9.9764,9.9669,9.9669,9.9512,9.9401,9.9277,9.9081,9.8885,9.879,9.9491,9.9903,9.9903,10.0875,10.1361,10.1361,10.1361,10.1361,10.1361,10.1361,10.1361,10.1361,10.1361,10.1361,10.1361,10.1361,10.0838,9.9903,9.9903,9.9472,9.879,9.879,9.8855,9.8914,9.8043,9.819,9.8447,9.6213,9.5409,9.5028,9.2672,9.2656,9.3526,9.3438,9.3956,9.462,9.4599,9.3897,9.3182,9.3247,9.2251,9.1364,9.2096,9.1627,9.1218,9.1935,9.2006,9.1632,9.0625,9.04,9.0009,8.9003,8.8741,8.8088,8.643,8.5649,8.5252,8.5249,8.4651,8.4271,8.4251,8.4583,8.5176,8.6156,8.6517,8.6682,8.6682,8.6682,8.6674,8.6712,8.5755,8.448,8.2838,8.1288,7.9816,7.8487,7.7842,7.7696,7.8023,7.8291,7.8333,8.9203,9.1591,9.3191,9.4339,9.776,10.0198,0.0,10.093,10.3772,10.0912,10.0957,10.1621,10.1853,10.1937,10.2013,10.2086,10.3337,10.3831,10.2312,10.2083,10.1513,10.0035,9.9541,9.9316,9.9316,9.9297,9.9201,9.8948,9.8915,9.8806,9.8557,9.8576,9.8576,9.8576,9.8576,9.8576,9.8576,9.8576,9.8576,9.8576,9.8576,9.8576,9.8576,9.8576,9.8576,9.8576,9.8576,9.8576,9.8576,9.8576,9.8576,9.8538,9.8352,9.7958,9.7301,9.5621,9.62,9.7379,9.381,9.2744,9.2403,8.9161,8.8359,8.8646,8.8425,8.9572,9.0951,9.0955,9.0814,9.074,9.0991,8.8778,8.6928,8.843,8.7432,8.6658,8.8363,8.8533,8.8312,8.8125,8.8238,8.8238,8.7884,8.7884,8.679,8.3224,8.2146,8.171,8.1718,8.1074,8.0549,8.0541,8.1208,8.242,8.4417,8.5369,8.5827,8.5827,8.6003,8.6105,8.6107,8.5914,8.5122,8.3624,8.218,8.0638,7.9042,7.7758,7.709,7.6997,7.7562,7.7443,0.0,0.0,0.0,0.0,0.0,0.0,0.0,9.7211,9.8632,9.7972,9.9417,10.0742,10.0799,10.1318,10.1356,10.0111,10.0212,10.0288,9.9977,9.9914,9.98,9.9469,9.9361,9.9326,9.9326,9.9129,9.9003,9.892,9.8725,9.8594,9.8538,9.8576,9.8576,9.8576,9.8576,9.8576,9.8576,9.8576,9.8576,9.8576,9.8576,9.8576,9.8576,9.8576,9.8576,9.8576,9.8576,9.8576,9.8576,9.8576,9.8576,9.8426,9.7061,9.4257,9.0828,8.9241,9.0774,9.3053,8.8502,8.8083,8.9057,8.5798,8.5615,8.665,8.6621,8.6871,8.7149,8.7172,8.6251,8.5293,8.5346,8.4873,8.4461,8.4783,8.4588,8.4734,8.6304,8.6621,8.6226,8.496,8.5741,8.5778,8.3137,8.3378,8.3519,8.2213,8.1454,8.1051,8.1033,7.9786,7.8821,7.8848,7.8324,7.8182,7.8614,7.9836,8.0596,8.0596,8.1653,8.2302,8.2322,8.1095,8.0252,7.9942,7.9238,7.8313,7.7278,7.7803,7.7696,7.6974,7.7108,7.6409,0.0,0.0,0.0,0.0,0.0,0.0,0.0,0.0,0.0,0.0,0.0,9.4785,9.699,0.0,9.7635,9.8574,9.8354,9.8377,9.9214,9.9314,9.8615,9.6665,9.7904,9.828,9.66,9.705,9.7111,9.6286,9.6121,9.6015,9.6015,9.573,9.5552,9.5552,9.5982,9.6232,9.6232,9.6987,9.7372,9.7372,9.7372,9.7372,9.7372,9.7372,9.7372,9.7372,9.7372,9.7372,9.7372,9.7372,9.6468,9.4808,9.2345,8.9994,8.7958,8.7088,8.8019,8.9237,8.5905,8.4972,8.4719,8.1437,8.0897,8.1542,8.1547,8.2164,8.2815,8.2792,8.2234,8.1621,8.1621,8.1028,8.0583,8.1437,8.1252,8.1215,8.2536,8.2421,8.1947,8.1723,8.2261,8.252,8.17,8.0368,7.9279,7.8984,7.8424,7.7845,7.7315,7.652,7.5537,7.4292,7.398,7.3793,7.3685,7.4514,7.5299,7.5974,7.6673,7.735,7.802,7.7305,7.7535,7.8984,7.8008,7.7592,7.7866,7.7582,7.6846,7.565,7.4196,7.2684,0.0,0.0,0.0,0.0,0.0,0.0,0.0,0.0,0.0,0.0,0.0,0.0,0.0,0.0,0.0,9.6404,9.6248,9.6321,9.7814,9.7906,9.663,9.3511,9.5526,9.6103,9.3376,9.4365,9.4589,9.3227,9.3115,9.3115,9.3115,9.2611,9.2329,9.2329,9.3038,9.3448,9.3448,9.4678,9.531,9.531,0.0,0.0,9.531,9.531,9.531,9.531,9.531,9.531,9.531,9.531,9.3825,9.1173,8.7354,8.5886,8.5865,8.4825,8.5404,8.6301,8.3855,8.2537,8.1373,7.8405,7.7209,7.6967,7.6971,7.7938,0.0,7.9032,7.9024,7.895,7.8657,7.7533,7.6814,7.7849,7.747,7.7181,7.8342,7.7972,7.7504,7.8005,7.8631,7.9269,7.9876,7.7417,7.5348,7.5139,7.4545,7.3707,7.2669,7.2218,7.1188,6.9197,6.8724,6.8531,6.849,6.8392,6.9146,7.1227,7.1186,7.178,7.3386,7.3175,7.425,7.6854,7.5625,7.5775,7.7384,7.6284,7.505,7.3487,7.0192,6.8137,0.0,0.0,0.0,0.0,0.0,0.0,0.0,0.0,0.0,0.0,0.0,0.0,0.0,0.0,0.0,0.0,9.2199,9.2403,9.3204,9.2792,9.2261,9.1833,9.2111,9.2179,9.1823,9.1945,9.1982,9.1798,9.1798,9.1798,9.1798,0.0,0.0,0.0,0.0,9.1823,9.1823,9.2007,9.2053,9.2053,9.2053,9.2053,9.2053,9.2053,9.2053,9.2053,9.2053,9.2053,9.2053,9.2053,9.186,9.0957,8.5045,8.2734,8.2232,7.8042,8.0419,8.5054,8.0565,0.0,0.0,7.9678,7.8099,7.6967,7.6971,7.7134,7.7272,7.7273,7.729,7.696,7.5552,7.5038,7.4619,7.3413,7.3025,7.3406,7.5004,7.5278,7.4803,7.3409,7.5455,7.6552,7.3701,7.3214,7.2978,7.2148,7.0798,6.9553,6.8621,6.688,6.5643,6.5342,0.0,0.0,6.1837,5.9951,6.074,6.5511,6.4971,6.5622,6.8343,6.7329,6.7422,6.8898,6.8673,6.9614,7.1848,7.26,7.2114,7.0401,6.6,6.4374,0.0,0.0,0.0,0.0,0.0,0.0,0.0,0.0,0.0,0.0,0.0,0.0,0.0,0.0,0.0,0.0,8.8941,8.908,8.8847,8.8646,8.8558,8.8724,9.0419,9.083,8.8923,8.9532,8.9715,8.8798,8.8724,8.8724,8.8724,8.829,8.8069,8.8069,8.8548,8.8846,8.8846,8.975,9.0183,9.0183,9.0183,9.0183,9.0183,9.0183,9.0183,9.0183,9.0183,9.0183,9.0183,9.0183,9.0183,0.0,0.0,0.0,0.0,0.0,7.7832,8.0188,7.9062,7.874,7.8508,7.6984,7.6044,7.5346,7.4534,7.4295,7.4193,7.3823,7.3673,7.3498,7.2514,7.2255,7.2111,7.1449,7.0829,7.0483,7.0836,7.0048,6.9425,6.9739,7.131,0.0,6.8781,6.9901,7.0799,6.9556,6.884,6.7853,6.6237,6.5249,6.3609,6.0635,5.7454,5.4939,5.331,5.0723,0.0,0.0,0.0,5.6426,6.1049,6.077,0.0,0.0,0.0,0.0,0.0,0.0,0.0,0.0,5.839,5.7693,0.0,0.0,0.0,0.0,0.0,0.0,0.0,0.0,0.0,0.0,0.0,0.0,0.0,0.0,0.0,0.0,8.4885,8.5115,8.4865,8.4545,8.4978,8.6774,8.7989,8.7952,8.5982,8.6459,8.6568,8.5728,8.5684,8.5684,8.5684,8.5128,8.4689,8.4355,8.4994,8.5345,8.5345,8.6478,8.7044,8.7044,8.7044,8.7044,8.7044,8.7044,8.7044,8.7044,8.7044,8.7044,8.7044,8.7044,8.7044,8.6471,8.1045,7.8915,7.8778,7.7639,7.6952,7.6815,7.84,7.8194,7.7055,7.6029,7.5377,7.469,7.2877,7.2329,7.2061,7.0748,7.0356,7.0205,6.9387,6.9212,6.9041,6.8616,6.7946,6.7278,6.6797,6.5655,6.5131,6.6441,6.6777,6.6448,6.5239,6.6535,6.7459,6.6518,6.5999,0.0,6.2919,6.2256,6.0376,5.6173,5.249,4.8912,4.5617,4.218,4.1059,4.2899,4.4409,4.7805,5.3593,5.4101,5.52,5.7359,5.5811,5.6036,0.0,0.0,0.0,0.0,0.0,0.0,0.0,0.0,0.0,0.0,0.0,0.0,0.0,0.0,0.0,0.0,0.0,0.0,0.0,0.0,0.0,0.0,0.0,0.0,8.1382,8.0192,8.1254,8.6967,8.4064,8.209,8.3366,8.2309,8.1957,8.3064,8.3138,8.3138,8.3138,8.3101,8.2539,8.1403,8.1397,8.1424,8.1424,8.1459,8.1534,8.1534,8.1534,8.1534,8.1534,8.1534,8.1534,8.1534,8.1534,8.1534,8.1534,8.1534,8.1534,8.1321,7.9575,7.8915,7.8915,7.8881,7.7879,7.6815,7.84,7.8881,7.8847,7.8812,7.7742,7.5956,7.3187,7.2329,7.1711,6.8784,6.7955,6.761,6.6092,6.568,6.5267,6.3755,6.3376,6.3342,6.3342,6.3295,6.3263,6.3303,6.2014,6.1538,6.3459,6.2848,6.2213,6.2697,6.139,0.0,5.7644,5.6055,5.4333,5.2253,4.7115,4.2684,3.9751,3.4791,3.3458,3.7159,3.8114,4.1092,4.6759,4.7448,4.6636,4.4357,4.4225,4.5969,4.9565,0.0,0.0,0.0,0.0,0.0,0.0,0.0,0.0,0.0,0.0,0.0,0.0,0.0,0.0,0.0,0.0,0.0,0.0,0.0,0.0,0.0,0.0,0.0,0.0,7.7847,7.7994,8.248,8.0233,7.8876,8.0283,7.9972,8.0301,8.1722,8.1837,8.1837,8.1837,8.1837,8.1641,8.1273,8.1273,8.1273,8.1273,8.1273,8.1273,8.1273,8.1273,8.1273,8.1273,8.1273,8.1273,8.1273,8.1273,8.1273,8.1273,8.1273,7.9217,7.6016,7.5513,7.5319,7.5319,7.5319,7.4978,7.4604,7.5107,7.5319,7.5158,7.4221,7.298,7.1436,6.9533,6.8983,6.8498,6.6168,6.6209,6.6335,6.3627,6.2926,6.2559,6.1199,6.0852,6.0862,6.0862,6.1002,6.1086,6.0862,5.8769,5.7246,5.7986,5.8446,5.8219,5.6767,5.7442,5.7252,5.4881,5.3592,5.1604,4.8272,4.3168,3.8155,3.3745,2.903,2.6346,2.6264,2.758,3.0356,3.4755,3.4331,3.4278,3.4718,3.4321,3.4365,3.4919,0.0,0.0,0.0,0.0,0.0,0.0,0.0,0.0,0.0,0.0,0.0,0.0,0.0,0.0,0.0,0.0,0.0,0.0,0.0,0.0,0.0,0.0,0.0,0.0,0.0,0.0,7.7358,7.5017,0.0,7.5378,7.5021,7.5697,7.8163,7.8319,7.8564,7.9095,7.8676,7.8454,7.8465,7.8003,7.8007,7.8494,7.8494,7.8494,7.8494,7.8494,7.8494,7.8494,7.8494,7.8494,7.8494,7.8494,7.8494,7.8368,7.7049,7.4282,7.0933,7.0933,7.0659,7.0494,7.153,7.1915,7.192,7.2356,7.2259,7.1622,7.0034,6.844,6.6748,6.4786,6.3946,6.3387,6.2076,6.2404,6.282,6.167,6.1402,6.1219,6.0369,6.0155,6.0039,5.9543,5.9242,5.845,5.6533,5.4272,5.2712,5.2728,5.2804,5.2669,5.2096,5.3353,5.3757,5.2116,5.0972,4.8735,4.4684,3.9336,3.3759,2.8151,2.2739,1.8788,1.667,1.7542,1.9056,2.1047,2.164,2.1998,2.2286,2.3108,2.3685,0.0,0.0,0.0,0.0,0.0,0.0,0.0,0.0,0.0,0.0,0.0,0.0,0.0,0.0,0.0,0.0,0.0,0.0,0.0,0.0,0.0,0.0,0.0,0.0,0.0,0.0,0.0,7.15,6.8395,0.0,0.0,0.0,0.0,7.2368,7.2661,7.3312,7.4843,7.3754,7.3179,7.3376,7.216,7.2105,7.3271,7.3302,7.3246,7.3159,7.3308,7.3339,7.3283,7.3401,7.3432,7.3376,7.3376,7.3289,7.2887,6.898,6.6754,6.5751,6.5693,6.5118,6.4684,6.7348,6.8406,6.8616,6.9824,6.9404,6.8122,6.6292,6.4217,6.1906,5.8987,5.7545,0.0,0.0,5.673,5.7427,6.0,6.0638,6.0638,6.0607,6.0603,6.0266,5.9001,5.7843,5.5498,0.0,4.8413,4.7588,4.7647,0.0,4.5732,4.8514,4.9117,4.925,4.9067,4.8044,4.5654,4.1435,3.5723,2.9554,2.3156,1.6302,1.1183,0.8672,0.8282,0.7594,0.6218,0.9429,0.998,0.7353,1.0738,0.0,0.0,0.0,0.0,0.0,0.0,0.0,0.0,0.0,0.0,0.0,0.0,0.0,0.0,0.0,0.0,0.0,0.0,0.0,0.0,0.0,0.0,0.0,0.0,0.0,0.0,6.2671,6.2551,6.2068,6.1738,6.1615,0.0,0.0,0.0,0.0,0.0,0.0,7.0488,7.0275,7.0704,7.1968,7.1699,7.1225,7.0571,7.0571,6.9962,6.8704,7.0983,7.1368,7.0228,7.248,7.2742,7.149,7.149,7.0633,6.8858,6.3148,5.9859,5.838,5.773,5.8047,5.9001,5.9258,6.0118,6.1374,6.254,6.1798,6.0034,5.8311,5.6379,5.4179,5.1366,0.0,0.0,0.0,0.0,5.5567,5.5082,5.4975,5.4892,5.4726,5.4683,5.4562,5.4282,5.4571,5.3087,0.0,4.1524,3.8683,4.0039,0.0,0.0,0.0,0.0,4.7225,4.4896,4.5105,4.2853,3.62,3.2293,2.6991,1.8838,1.3281,0.8009,0.2607,0.09,-0.1579,-0.5287,-0.3859,-0.3615,-0.5006,0.0,0.0,0.0,0.0,0.0,0.0,0.0,0.0,0.0,0.0,0.0,0.0,0.0,0.0,0.0,0.0,0.0,0.0,0.0,0.0,0.0,0.0,0.0,0.0,0.0,0.0,0.0,5.6445,5.4995,5.362,5.3181,5.3704,0.0,0.0,0.0,0.0,0.0,0.0,0.0,0.0,0.0,6.7951,6.7419,6.7001,6.6854,6.6445,6.5678,6.4751,6.6031,6.6119,6.5221,6.691,6.7664,6.7468,6.6437,6.3362,5.8688,5.4121,5.1349,5.001,0.0,0.0,0.0,0.0,5.3208,5.4307,5.4607,5.3449,5.1401,4.8586,0.0,0.0,0.0,0.0,0.0,0.0,0.0,0.0,0.0,0.0,5.4389,5.4244,5.3539,5.2777,5.2179,4.8958,4.4617,0.0,3.556,3.388,3.5038,0.0,0.0,0.0,0.0,4.3618,4.2178,4.1979,3.9474,3.2773,2.7924,2.1964,1.4306,0.7686,0.1272,-0.5003,-0.7378,-1.0789,-1.561,-1.359,-1.2944,0.0,0.0,0.0,0.0,0.0,0.0,0.0,0.0,0.0,0.0,0.0,0.0,0.0,0.0,0.0,0.0,0.0,0.0,0.0,0.0,0.0,0.0,0.0,0.0,0.0,0.0,0.0,0.0,0.0,4.6613,4.5719,0.0,0.0,0.0,0.0,0.0,0.0,0.0,0.0,0.0,0.0,0.0,0.0,0.0,6.1022,6.2034,6.103,6.0457,6.0293,5.962,5.9141,5.9103,5.946,6.0498,6.1801,5.8353,0.0,4.6138,4.3672,0.0,0.0,0.0,0.0,0.0,0.0,0.0,0.0,0.0,0.0,0.0,0.0,0.0,0.0,0.0,0.0,0.0,0.0,0.0,0.0,0.0,0.0,5.4028,5.3774,5.271,5.1157,0.0,4.0861,3.3111,2.9778,2.9779,0.0,0.0,0.0,0.0,0.0,0.0,0.0,4.0262,3.9231,3.6044,2.9731,2.3029,1.612,0.8818,0.0327,-0.7099,-1.309,-1.5752,-1.9261,-2.3931,-2.0422,0.0,0.0,0.0,0.0,0.0,0.0,0.0,0.0,0.0,0.0,0.0,0.0,0.0,0.0,0.0,0.0,0.0,0.0,0.0,0.0,0.0,0.0,0.0,0.0,0.0,0.0,0.0,0.0,0.0,0.0,0.0,0.0,0.0,0.0,0.0,0.0,0.0,0.0,0.0,0.0,0.0,0.0,0.0,0.0,0.0,0.0,0.0,0.0,0.0,0.0,5.3472,5.3491,5.297,5.5428,5.5877,5.4173,4.4935,4.0099,3.8438,3.504,0.0,0.0,0.0,0.0,0.0,0.0,0.0,0.0,0.0,0.0,0.0,0.0,0.0,0.0,0.0,0.0,0.0,0.0,0.0,0.0,0.0,0.0,0.0,0.0,4.1286,4.1,3.37,0.0,0.0,0.0,0.0,0.0,0.0,0.0,0.0,0.0,0.0,0.0,3.7788,3.8053,3.4419,2.3742,1.9159,1.2007,0.0,-0.7183,-1.3532,-1.9577,-2.2176,-2.4274,0.0,0.0,0.0,0.0,0.0,0.0,0.0,0.0,0.0,0.0,0.0,0.0,0.0,0.0,0.0,0.0,0.0,0.0,0.0,0.0,0.0,0.0,0.0,0.0,0.0,0.0,0.0,0.0,0.0,0.0,0.0,0.0,0.0,0.0,0.0,0.0,0.0,0.0,0.0,0.0,0.0,0.0,0.0,0.0,0.0,0.0,0.0,0.0,0.0,0.0,0.0,0.0,0.0,0.0,0.0,0.0,0.0,0.0,0.0,2.9584,0.0,0.0,0.0,0.0,0.0,0.0,0.0,0.0,0.0,0.0,0.0,0.0,0.0,0.0,0.0,0.0,0.0,0.0,0.0,0.0,0.0,0.0,0.0,0.0,0.0,0.0,0.0,0.0,0.0,0.0,0.0,0.0,0.0,0.0,0.0,0.0,0.0,0.0,0.0,0.0,3.5651,3.4276,2.9955,2.0595,1.3525,0.527,-0.5212,-1.2993,-1.9735,-2.5429,-2.7022,0.0,0.0,0.0,0.0,0.0,0.0,0.0,0.0,0.0,0.0,0.0,0.0,0.0,0.0,0.0,0.0,0.0,0.0,0.0,0.0,0.0,0.0,0.0,0.0,0.0,0.0,0.0,0.0,0.0,0.0,0.0,0.0,0.0,0.0,0.0,0.0,0.0,0.0,0.0,0.0,0.0,0.0,0.0,0.0,0.0,0.0,0.0,0.0,0.0,0.0,0.0,0.0,0.0,0.0,0.0,0.0,0.0,0.0,0.0,2.5888,0.0,0.0,0.0,0.0,0.0,0.0,0.0,0.0,0.0,0.0,0.0,0.0,0.0,0.0,0.0,0.0,0.0,0.0,0.0,0.0,0.0,0.0,0.0,0.0,0.0,0.0,0.0,0.0,0.0,0.0,0.0,0.0,0.0,0.0,0.0,0.0,0.0,0.0,0.0,0.0,0.0,3.4299,3.0714,2.5401,1.7668,0.7799,-0.1651,-1.016,-1.8615,-2.5604,-3.0647,-3.1646,0.0,0.0,0.0,0.0,0.0,0.0,0.0,0.0,0.0,0.0,0.0,0.0,0.0,0.0,0.0,0.0,0.0,0.0,0.0,0.0,0.0,0.0,0.0,0.0,0.0,0.0,0.0,0.0,0.0,0.0,0.0,0.0,0.0,0.0,0.0,0.0,0.0,0.0,0.0,0.0,0.0,0.0,0.0,0.0,0.0,0.0,0.0,0.0,0.0,0.0,0.0,0.0,0.0,0.0,0.0,0.0,0.0,0.0,0.0,0.0,0.0,0.0,0.0,0.0,0.0,0.0,0.0,0.0,0.0,0.0,0.0,0.0,0.0,0.0,0.0,0.0,0.0,0.0,0.0,0.0,0.0,0.0,0.0,0.0,0.0,0.0,0.0,0.0,0.0,0.0,0.0,0.0,0.0,0.0,0.0,0.0,0.0,0.0,0.0,0.0,0.0,3.446,2.9495,2.2706,1.3258,0.3396,-0.663,-1.6893,-2.4949,-3.1095,-3.4793,0.0,0.0,0.0,0.0,0.0,0.0,0.0,0.0,0.0,0.0,0.0,0.0,0.0,0.0,0.0,0.0,0.0,0.0,0.0,0.0,0.0,0.0,0.0,0.0,0.0,0.0,0.0,0.0,0.0,0.0,0.0,0.0,0.0,0.0,0.0,0.0,0.0,0.0,0.0,0.0,0.0,0.0,0.0,0.0,0.0,0.0,0.0,0.0,0.0,0.0,0.0,0.0,0.0,0.0,0.0,0.0,0.0,0.0,0.0,0.0,0.0,0.0,0.0,0.0,0.0,0.0,0.0,0.0,0.0,0.0,0.0,0.0,0.0,0.0,0.0,0.0,0.0,0.0,0.0,0.0,0.0,0.0,0.0,0.0,0.0,0.0,0.0,0.0,0.0,0.0,0.0,0.0,0.0,0.0,0.0,0.0,0.0,0.0,0.0,0.0,0.0,0.0,3.2842,2.6765,1.9509,1.0964,-0.0964,-1.1741,-2.0521,-2.8473,-3.4872,-3.9254,0.0,0.0,0.0,0.0,0.0,0.0,0.0,0.0,0.0,0.0,0.0,0.0,0.0,0.0,0.0,0.0,0.0,0.0,0.0,0.0,0.0,0.0,0.0,0.0,0.0,0.0,0.0,0.0,0.0,0.0,0.0,0.0,0.0,0.0,0.0,0.0,0.0,0.0,0.0,0.0,0.0,0.0,0.0,0.0,0.0,0.0,0.0,0.0,0.0,0.0,0.0,0.0,0.0,0.0,0.0,0.0,0.0,0.0,0.0,0.0,0.0,0.0,0.0,0.0,0.0,0.0,0.0,0.0,0.0,0.0,0.0,0.0,0.0,0.0,0.0,0.0,0.0,0.0,0.0,0.0,0.0,0.0,0.0,0.0,0.0,0.0,0.0,0.0,0.0,0.0,0.0,0.0,0.0,0.0,0.0,0.0,0.0,0.0,0.0,0.0,0.0,0.0,3.098,2.4144,1.6477,0.8081,-0.4701,-1.5463,-2.2482,-3.0743,-3.7462,-4.1902,0.0,0.0,0.0,0.0,0.0,0.0,0.0,0.0,0.0,0.0,0.0,0.0,0.0,0.0,0.0,0.0,0.0,0.0,0.0,0.0,0.0,0.0,0.0,0.0,0.0,0.0,0.0,0.0,0.0,0.0,0.0,0.0,0.0,0.0,0.0,0.0,0.0,0.0,0.0,0.0,0.0,0.0,0.0,0.0,0.0,0.0,0.0,0.0,0.0,0.0,0.0,0.0,0.0,0.0,0.0,0.0,0.0,0.0,0.0,0.0,0.0,0.0,0.0,0.0,0.0,0.0,0.0,0.0,0.0,0.0,0.0,0.0,0.0,0.0,0.0,0.0,0.0,0.0,0.0,0.0,0.0,0.0,0.0,0.0,0.0,0.0,0.0,0.0,0.0,0.0,0.0,0.0,0.0,0.0,0.0,0.0,0.0,0.0,0.0,0.0,0.0,0.0,2.9121,2.2046,1.377,0.4012,-0.7667,-1.7101,-2.3035,-3.1978,-3.8702,0.0,0.0,0.0,0.0,0.0,0.0,0.0,0.0,0.0,0.0,0.0,0.0,0.0,0.0,0.0,0.0,0.0,0.0,0.0,0.0,0.0,0.0,0.0,0.0,0.0,0.0,0.0,0.0,0.0,0.0,0.0,0.0,0.0,0.0,0.0,0.0,0.0,0.0,0.0,0.0,0.0,0.0,0.0,0.0,0.0,0.0,0.0,0.0,0.0,0.0,0.0,0.0,0.0,0.0,0.0,0.0,0.0,0.0,0.0,0.0,0.0,0.0,0.0,0.0,0.0,0.0,0.0,0.0,0.0,0.0,0.0,0.0,0.0,0.0,0.0,0.0,0.0,0.0,0.0,0.0,0.0,0.0,0.0,0.0,0.0,0.0,0.0,0.0,0.0,0.0,0.0,0.0,0.0,0.0,0.0,0.0,0.0,0.0,0.0,0.0,0.0,0.0,0.0,2.7726,2.1393,1.3754,0.0,-0.8786,-1.9438,-2.6387,-3.5388,-4.2515,-4.6796,0.0,0.0,0.0,0.0,0.0,0.0,0.0,0.0,0.0,0.0,0.0,0.0,0.0,0.0,0.0,0.0,0.0,0.0,0.0,0.0,0.0,0.0,0.0,0.0,0.0,0.0,0.0,0.0,0.0,0.0,0.0,0.0,0.0,0.0,0.0,0.0,0.0,0.0,0.0,0.0,0.0,0.0,0.0,0.0,0.0,0.0,0.0,0.0,0.0,0.0,0.0,0.0,0.0,0.0,0.0,0.0,0.0,0.0,0.0,0.0,0.0,0.0,0.0,0.0,0.0,0.0,0.0,0.0,0.0,0.0,0.0,0.0,0.0,0.0,0.0,0.0,0.0,0.0,0.0,0.0,0.0,0.0,0.0,0.0,0.0,0.0,0.0,0.0,0.0,0.0,0.0,0.0,0.0,0.0,0.0,0.0,0.0,0.0,0.0,0.0,0.0,0.0,0.0,2.0664,1.3219,0.0,-1.0234,-2.0579,-2.8083,-3.701,-4.3979,-4.8123,0.0,0.0,0.0,0.0,0.0,0.0,0.0,0.0,0.0,0.0,0.0,0.0,0.0,0.0,0.0,0.0,0.0,0.0,0.0,0.0,0.0,0.0,0.0,0.0,0.0,0.0,0.0,0.0,0.0,0.0,0.0,0.0,0.0,0.0,0.0,0.0,0.0,0.0,0.0,0.0,0.0,0.0,0.0,0.0,0.0,0.0,0.0,0.0,0.0,0.0,0.0,0.0,0.0,0.0,0.0,0.0,0.0,0.0,0.0,0.0,0.0,0.0,0.0,0.0,0.0,0.0,0.0,0.0,0.0,0.0,0.0,0.0,0.0,0.0,0.0,0.0,0.0,0.0,0.0,0.0,0.0,0.0,0.0,0.0,0.0,0.0,0.0,0.0,0.0,0.0,0.0,0.0,0.0,0.0,0.0,0.0,0.0,0.0,0.0,0.0,0.0,0.0,0.0,1.9691,1.2109,-0.1484,-1.1649,-2.0626,-2.8455,-3.7239,-4.3697,-4.6805,-4.9928,0.0,0.0,0.0,0.0,0.0,0.0,0.0,0.0,0.0,0.0,0.0,0.0,0.0,0.0,0.0,0.0,0.0,0.0,0.0,0.0,0.0,0.0,0.0,0.0,0.0,0.0,0.0,0.0,0.0,0.0,0.0,0.0,0.0,0.0,0.0,0.0,0.0,0.0,0.0,0.0,0.0,0.0,0.0,0.0,0.0,0.0,0.0,0.0,0.0,0.0,0.0,0.0,0.0,0.0,0.0,0.0,0.0,0.0,0.0,0.0,0.0,0.0,0.0,0.0,0.0,0.0,0.0,0.0,0.0,0.0,0.0,0.0,0.0,0.0,0.0,0.0,0.0,0.0,0.0,0.0,0.0,0.0,0.0,0.0,0.0,0.0,0.0,0.0,0.0,0.0,0.0,0.0,0.0,0.0,0.0,0.0,0.0,0.0,0.0,0.0,0.0,0.0,1.8361,1.0735,-0.1634,-1.1649,-2.1139,-3.0141,-3.8851,-4.5211,-4.8558,-5.1551,0.0,0.0,0.0,0.0,0.0,0.0,0.0,0.0,0.0,0.0,0.0,0.0,0.0,0.0,0.0,0.0,0.0,0.0,0.0,0.0,0.0,0.0,0.0,0.0,0.0,0.0,0.0,0.0,0.0,0.0,0.0,0.0,0.0,0.0,0.0,0.0,0.0,0.0,0.0,0.0,0.0,0.0,0.0,0.0,0.0,0.0,0.0,0.0,0.0,0.0,0.0,0.0,0.0,0.0,0.0,0.0,0.0,0.0,0.0,0.0,0.0,0.0,0.0,0.0,0.0,0.0,0.0,0.0,0.0,0.0,0.0,0.0,0.0,0.0,0.0,0.0,0.0,0.0,0.0,0.0,0.0,0.0,0.0,0.0,0.0,0.0,0.0,0.0,0.0,0.0,0.0,0.0,0.0,0.0,0.0,0.0,0.0,0.0,0.0,0.0,0.0,0.0,2.1761,1.2449,-0.2658,-1.2222,-2.1686,-3.1951,-3.9288,-4.5089,-4.9127,-5.0854,0.0,0.0,0.0,0.0,0.0,0.0,0.0,0.0,0.0,0.0,0.0,0.0,0.0,0.0,0.0,0.0,0.0,0.0,0.0,0.0,0.0,0.0,0.0,0.0,0.0,0.0,0.0,0.0,0.0,0.0,0.0,0.0,0.0,0.0,0.0,0.0,0.0,0.0,0.0,0.0,0.0,0.0,0.0,0.0,0.0,0.0,0.0,0.0,0.0,0.0,0.0,0.0,0.0,0.0,0.0,0.0,0.0,0.0,0.0,0.0,0.0,0.0,0.0,0.0,0.0,0.0,0.0,0.0,0.0,0.0,0.0,0.0,0.0,0.0,0.0,0.0,0.0,0.0,0.0,0.0,0.0,0.0,0.0,0.0,0.0,0.0,0.0,0.0,0.0,0.0,0.0,0.0,0.0,0.0,0.0,0.0,0.0,0.0,0.0,0.0,0.0,0.0,0.0,1.6261,-0.1246,-1.1748,-2.2116,-3.3428,-3.9218,-4.4213,-4.9073,0.0,0.0,0.0,0.0,0.0,0.0,0.0,0.0,0.0,0.0,0.0,0.0,0.0,0.0,0.0,0.0,0.0,0.0,0.0,0.0,0.0,0.0,0.0,0.0,0.0,0.0,0.0,0.0,0.0,0.0,0.0,0.0,0.0,0.0,0.0,0.0,0.0,0.0,0.0,0.0,0.0,0.0,0.0,0.0,0.0,0.0,0.0,0.0,0.0,0.0,0.0,0.0,0.0,0.0,0.0,0.0,0.0,0.0,0.0,0.0,0.0,0.0,0.0,0.0,0.0,0.0,0.0,0.0,0.0,0.0,0.0,0.0,0.0,0.0,0.0,0.0,0.0,0.0,0.0,0.0,0.0,0.0,0.0,0.0,0.0,0.0,0.0,0.0,0.0,0.0,0.0,0.0,0.0,0.0,0.0,0.0,0.0,0.0,0.0,0.0,0.0,0.0,0.0,0.0,2.1519,1.0464,-0.6752,-2.2116,-3.3428,-3.9218,-4.4213,-4.9073,0.0,0.0,0.0,0.0,0.0,0.0,0.0,0.0,0.0,0.0,0.0,0.0,0.0,0.0]}]]]